ftp/pub/palmer/observations_modified/2017/June/AR170603_BASE.txt

Download

Sample DateTime	Unit Id	WS Avg 2min	WD Avg 2min	WGS 10min	WGD 10min	Air Temp	Rel Humidity	Dew Point	Pyranometer	Quantum	Air Pressure	Snow Level	Rainfall	PW Current	Visibility	CBase 1	CBase 2	CBase 3	Vert Vis
2017/06/03 00:00:01	BASE	3.49	74	7.82	132	2.0	70	-3.0	0	0	994.6	NA	0.0000		9999	11120	0	0	0
2017/06/03 00:01:01	BASE	3.23	91	7.82	132	2.3	68	-3.0	0	0	994.6	NA	0.0000		9999	11020	0	0	0
2017/06/03 00:02:01	BASE	3.93	114	7.82	132	2.5	67	-3.0	0	0	994.5	NA	0.0000		9999	11160	0	0	0
2017/06/03 00:03:01	BASE	4.55	116	7.82	132	2.7	66	-3.1	0	0	994.5	NA	0.0000		9999	11090	0	0	0
2017/06/03 00:04:01	BASE	4.98	104	7.82	132	2.8	65	-3.3	0	0	994.6	NA	0.0000		9999	11090	0	0	0
2017/06/03 00:05:01	BASE	5.48	102	7.82	132	2.8	64	-3.4	0	0	994.5	NA	0.0000		9999	11120	0	0	0
2017/06/03 00:06:01	BASE	5.55	112	8.08	102	2.8	64	-3.4	0	0	994.5	NA	0.0000		9999	0	0	0	0
2017/06/03 00:07:01	BASE	4.86	100	8.39	104	2.9	63	-3.4	0	0	994.5	NA	0.0000		9999	0	0	0	0
2017/06/03 00:08:01	BASE	4.72	98	8.39	104	3.1	62	-3.4	0	0	994.5	NA	0.0000		9999	0	0	0	0
2017/06/03 00:09:01	BASE	5.49	120	8.39	104	3.2	62	-3.4	0	0	994.4	NA	0.0000		9999	11190	0	0	0
2017/06/03 00:10:01	BASE	5.89	122	8.39	104	3.3	62	-3.4	0	0	994.4	NA	0.0000		9999	11160	0	0	0
2017/06/03 00:11:01	BASE	4.96	117	8.39	104	3.2	62	-3.4	0	0	994.4	NA	0.0000		9999	0	0	0	0
2017/06/03 00:12:01	BASE	4.89	116	8.39	104	3.2	62	-3.4	0	0	994.4	NA	0.0000		9999	0	0	0	0
2017/06/03 00:13:01	BASE	6.39	119	8.39	104	3.1	62	-3.5	0	0	994.4	NA	0.0000		9999	0	0	0	0
2017/06/03 00:14:01	BASE	6.98	120	8.39	104	3.1	62	-3.5	0	0	994.4	NA	0.0000		9999	0	0	0	0
2017/06/03 00:15:00	BASE	6.37	116	8.39	104	3.0	62	-3.5	0	0	994.4	NA	0.0000		9999	0	0	0	0
2017/06/03 00:16:00	BASE	4.95	105	8.39	104	3.0	62	-3.6	0	0	994.5	NA	0.0000		9999	11060	0	0	0
2017/06/03 00:17:00	BASE	3.15	89	7.92	126	2.9	62	-3.6	0	0	994.5	NA	0.0000		9999	11060	0	0	0
2017/06/03 00:18:00	BASE	3.54	93	7.92	126	2.9	62	-3.6	0	0	994.6	NA	0.0000		9999	11090	0	0	0
2017/06/03 00:19:00	BASE	5.09	109	7.92	126	2.8	63	-3.6	0	0	994.5	NA	0.0000		9999	11650	0	0	0
2017/06/03 00:20:00	BASE	5.35	116	7.92	126	2.8	63	-3.6	0	0	994.5	NA	0.0000		9999	0	0	0	0
2017/06/03 00:21:00	BASE	4.49	115	7.92	126	2.7	63	-3.6	0	0	994.5	NA	0.0000		9999	0	0	0	0
2017/06/03 00:22:00	BASE	3.55	101	7.92	126	2.5	64	-3.7	0	0	994.5	NA	0.0000		9999	0	0	0	0
2017/06/03 00:23:00	BASE	3.63	90	7.56	116	2.4	65	-3.6	0	0	994.5	NA	0.0000		9999	11120	0	0	0
2017/06/03 00:24:00	BASE	4.64	86	7.05	117	2.2	66	-3.6	0	0	994.5	NA	0.0000		9999	6170	11090	0	0
2017/06/03 00:25:00	BASE	5.32	92	6.53	102	2.2	66	-3.4	0	0	994.4	NA	0.0000		9999	11120	0	0	0
2017/06/03 00:26:00	BASE	4.70	109	6.53	102	2.3	66	-3.4	0	0	994.4	NA	0.0000		9999	11060	0	0	0
2017/06/03 00:27:00	BASE	4.98	110	6.64	109	2.3	66	-3.3	0	0	994.4	NA	0.0000		9999	11090	0	0	0
2017/06/03 00:28:00	BASE	5.30	105	6.64	109	2.4	66	-3.3	0	0	994.5	NA	0.0000		9999	10990	0	0	0
2017/06/03 00:29:00	BASE	4.30	109	6.64	109	2.5	65	-3.4	0	0	994.5	NA	0.0000		9999	10930	0	0	0
2017/06/03 00:30:00	BASE	4.23	117	6.64	109	2.5	65	-3.4	0	0	994.5	NA	0.0000		9999	10960	0	0	0
2017/06/03 00:31:00	BASE	5.29	116	6.64	109	2.4	65	-3.5	0	0	994.5	NA	0.0000		9999	10960	0	0	0
2017/06/03 00:32:00	BASE	6.39	111	7.77	103	2.4	65	-3.5	0	0	994.4	NA	0.0000		9999	10930	0	0	0
2017/06/03 00:33:01	BASE	6.38	103	7.77	103	2.4	65	-3.5	0	0	994.5	NA	0.0000		9999	10990	0	0	0
2017/06/03 00:34:00	BASE	5.53	104	7.77	103	2.4	65	-3.5	0	0	994.5	NA	0.0000		9999	10990	12600	0	0
2017/06/03 00:35:00	BASE	5.36	113	7.77	103	2.4	65	-3.5	0	0	994.5	NA	0.0000		9999	10990	0	0	0
2017/06/03 00:36:00	BASE	5.70	116	7.77	103	2.3	66	-3.5	0	0	994.5	NA	0.0000		9999	10990	11880	0	0
2017/06/03 00:37:00	BASE	5.68	112	7.77	103	2.3	66	-3.5	0	0	994.5	NA	0.0000		9999	10990	11980	0	0
2017/06/03 00:38:00	BASE	5.62	104	7.77	103	2.3	66	-3.5	0	0	994.5	NA	0.0000		9999	10990	0	0	0
2017/06/03 00:39:00	BASE	5.60	99	7.77	103	2.3	65	-3.6	0	0	994.5	NA	0.0000		9999	11020	0	0	0
2017/06/03 00:40:00	BASE	5.60	89	7.77	103	2.3	65	-3.6	0	0	994.6	NA	0.0000		9999	6040	0	0	0
2017/06/03 00:41:00	BASE	4.59	90	7.77	103	2.3	65	-3.6	0	0	994.6	NA	0.0000		9999	0	0	0	0
2017/06/03 00:42:00	BASE	4.79	93	7.61	76	2.4	65	-3.6	0	0	994.6	NA	0.0000		9999	6100	11350	0	0
2017/06/03 00:43:00	BASE	5.97	85	7.92	68	2.4	65	-3.6	0	0	994.5	NA	0.0000		9999	0	0	0	0
2017/06/03 00:44:00	BASE	5.68	90	7.92	68	2.4	65	-3.5	0	0	994.6	NA	0.0000		9999	6040	0	0	0
2017/06/03 00:45:00	BASE	5.49	96	7.92	68	2.3	65	-3.5	0	0	994.5	NA	0.0000		9999	6100	0	0	0
2017/06/03 00:46:00	BASE	5.68	93	7.92	68	2.3	66	-3.5	0	0	994.6	NA	0.0000		9999	6000	0	0	0
2017/06/03 00:47:00	BASE	5.43	92	7.92	68	2.3	66	-3.5	0	0	994.6	NA	0.0000		9999	6230	0	0	0
2017/06/03 00:48:00	BASE	5.20	84	7.92	68	2.3	66	-3.4	0	0	994.6	NA	0.0000		9999	6140	0	0	0
2017/06/03 00:49:00	BASE	5.64	81	7.92	68	2.3	66	-3.5	0	0	994.6	NA	0.0000		9999	6270	0	0	0
2017/06/03 00:50:00	BASE	5.28	91	7.92	68	2.3	66	-3.5	0	0	994.6	NA	0.0000		9999	6070	0	0	0
2017/06/03 00:51:00	BASE	4.27	92	7.92	68	2.3	66	-3.5	0	0	994.6	NA	0.0000		9999	6040	0	0	0
2017/06/03 00:52:00	BASE	3.33	106	7.92	68	2.3	65	-3.5	0	0	994.6	NA	0.0000		9999	6070	6530	0	0
2017/06/03 00:53:00	BASE	2.70	113	7.82	87	2.3	65	-3.5	0	0	994.6	NA	0.0000		9999	6170	0	0	0
2017/06/03 00:54:00	BASE	3.52	92	7.82	87	2.2	66	-3.5	0	0	994.7	NA	0.0000		9999	6230	0	0	0
2017/06/03 00:55:00	BASE	4.45	91	7.05	75	2.2	66	-3.5	0	0	994.6	NA	0.0000		9999	6430	0	0	0
2017/06/03 00:56:00	BASE	3.10	105	7.05	75	2.3	66	-3.5	0	0	994.7	NA	0.0000		9999	6270	0	0	0
2017/06/03 00:57:00	BASE	1.16	130	7.05	75	2.3	66	-3.5	0	0	994.7	NA	0.0000		9999	6140	0	0	0
2017/06/03 00:58:00	BASE	0.33	222	7.05	75	2.3	66	-3.5	0	0	994.7	NA	0.0000		9999	6070	0	0	0
2017/06/03 00:59:00	BASE	0.00	221	7.05	75	2.3	65	-3.5	0	0	994.7	NA	0.0000		9999	6040	0	0	0
2017/06/03 01:00:00	BASE	0.09	199	7.05	75	2.3	65	-3.6	0	0	994.7	NA	0.0000		9999	6040	0	0	0
2017/06/03 01:01:00	BASE	0.09	197	7.05	75	2.2	66	-3.6	0	0	994.7	NA	0.0000		9999	6370	0	0	0
2017/06/03 01:02:00	BASE	0.00	206	7.05	75	2.1	66	-3.6	0	0	994.7	NA	0.0000		9999	6330	0	0	0
2017/06/03 01:03:00	BASE	0.17	196	7.05	75	2.0	67	-3.5	0	0	994.7	NA	0.0000		9999	6100	0	0	0
2017/06/03 01:04:00	BASE	0.56	192	7.05	75	1.9	67	-3.5	0	0	994.7	NA	0.0000		9999	5970	0	0	0
2017/06/03 01:05:00	BASE	0.97	188	2.21	119	1.9	68	-3.4	0	0	994.7	NA	0.0000		9999	6100	0	0	0
2017/06/03 01:06:00	BASE	1.02	168	2.01	142	1.9	68	-3.5	0	0	994.7	NA	0.0000		9999	6230	0	0	0
2017/06/03 01:07:00	BASE	0.48	121	2.01	142	1.8	68	-3.5	0	0	994.7	NA	0.0000		9999	6170	0	0	0
2017/06/03 01:08:00	BASE	0.34	104	2.01	142	1.7	69	-3.4	0	0	994.7	NA	0.0000		9999	6170	0	0	0
2017/06/03 01:09:00	BASE	0.30	106	2.01	142	1.7	69	-3.5	0	0	994.7	NA	0.0000		9999	6140	0	0	0
2017/06/03 01:10:00	BASE	0.00	31	2.01	142	1.6	69	-3.4	0	0	994.7	NA	0.0000		9999	6270	0	0	0
2017/06/03 01:11:00	BASE	0.16	303	2.01	142	1.6	70	-3.4	0	0	994.7	NA	0.0000		9999	6230	0	0	0
2017/06/03 01:12:00	BASE	0.32	17	2.01	142	1.7	69	-3.3	0	0	994.7	NA	0.0000		9999	6270	0	0	0
2017/06/03 01:13:00	BASE	0.58	64	2.01	142	1.7	69	-3.4	0	0	994.7	NA	0.0000		9999	6330	0	0	0
2017/06/03 01:14:00	BASE	0.42	87	2.01	142	1.8	68	-3.4	0	0	994.7	NA	0.0000		9999	6400	0	0	0
2017/06/03 01:15:00	BASE	0.06	117	2.01	142	1.8	68	-3.5	0	0	994.7	NA	0.0000		9999	6460	12500	0	0
2017/06/03 01:16:00	BASE	0.42	123	1.70	95	1.8	68	-3.5	0	0	994.7	NA	0.0000		9999	6590	12430	0	0
2017/06/03 01:17:00	BASE	0.66	115	1.70	95	1.8	68	-3.6	0	0	994.7	NA	0.0000		9999	6530	12500	0	0
2017/06/03 01:18:00	BASE	1.23	116	2.11	147	1.7	68	-3.5	0	0	994.7	NA	0.0000		9999	6560	0	0	0
2017/06/03 01:19:00	BASE	1.76	122	2.11	147	1.7	68	-3.5	0	0	994.7	NA	0.0000		9999	12530	0	0	0
2017/06/03 01:20:00	BASE	1.70	133	2.47	147	1.7	68	-3.5	0	0	994.7	NA	0.0000		9999	0	0	0	0
2017/06/03 01:21:00	BASE	1.70	156	2.47	134	1.8	68	-3.6	0	0	994.7	NA	0.0000		9999	0	0	0	0
2017/06/03 01:22:00	BASE	1.22	174	2.47	134	1.8	68	-3.6	0	0	994.7	NA	0.0000		9999	0	0	0	0
2017/06/03 01:23:00	BASE	1.11	197	2.47	134	1.8	67	-3.6	0	0	994.7	NA	0.0000		9999	0	0	0	0
2017/06/03 01:24:00	BASE	1.17	220	2.47	134	1.9	67	-3.6	0	0	994.6	NA	0.0000		9999	0	0	0	0
2017/06/03 01:25:00	BASE	1.30	216	2.47	134	1.9	67	-3.6	0	0	994.7	NA	0.0000		9999	0	0	0	0
2017/06/03 01:26:00	BASE	1.58	211	2.47	134	1.9	67	-3.6	0	0	994.7	NA	0.0000		9999	0	0	0	0
2017/06/03 01:27:00	BASE	1.17	212	2.47	134	1.9	67	-3.6	0	0	994.7	NA	0.0000		9999	0	0	0	0
2017/06/03 01:28:00	BASE	0.71	195	2.47	134	1.9	67	-3.6	0	0	994.7	NA	0.0000		9999	12170	0	0	0
2017/06/03 01:29:00	BASE	0.28	178	2.47	134	1.9	67	-3.6	0	0	994.7	NA	0.0000		9999	0	0	0	0
2017/06/03 01:30:00	BASE	0.13	198	2.47	134	1.9	67	-3.7	0	0	994.6	NA	0.0000		9999	0	0	0	0
2017/06/03 01:31:00	BASE	0.13	226	2.11	217	1.9	66	-3.7	0	0	994.6	NA	0.0000		9999	0	0	0	0
2017/06/03 01:32:00	BASE	0.00	216	2.11	217	1.9	66	-3.8	0	0	994.6	NA	0.0000		9999	0	0	0	0
2017/06/03 01:33:00	BASE	0.35	157	1.95	212	1.9	66	-3.8	0	0	994.6	NA	0.0000		9999	0	0	0	0
2017/06/03 01:34:00	BASE	0.55	134	1.95	212	1.9	66	-3.8	0	0	994.7	NA	0.0000		9999	0	0	0	0
2017/06/03 01:35:00	BASE	0.60	104	1.90	194	1.8	66	-3.8	0	0	994.7	NA	0.0000		9999	0	0	0	0
2017/06/03 01:36:00	BASE	1.22	79	1.95	70	1.8	67	-3.8	0	0	994.7	NA	0.0000		9999	0	0	0	0
2017/06/03 01:37:00	BASE	1.33	62	1.95	70	1.8	67	-3.8	0	0	994.7	NA	0.0000		9999	0	0	0	0
2017/06/03 01:38:00	BASE	0.93	58	1.95	70	1.8	67	-3.7	0	0	994.7	NA	0.0000		9999	0	0	0	0
2017/06/03 01:39:00	BASE	0.42	95	1.95	70	1.9	66	-3.7	0	0	994.7	NA	0.0000		9999	0	0	0	0
2017/06/03 01:40:00	BASE	0.00	230	1.95	70	2.0	65	-3.8	0	0	994.7	NA	0.0000		9999	0	0	0	0
2017/06/03 01:41:00	BASE	0.77	311	1.95	70	2.1	65	-3.8	0	0	994.7	NA	0.0000		9999	0	0	0	0
2017/06/03 01:42:00	BASE	1.54	338	1.95	70	2.2	64	-3.9	0	0	994.7	NA	0.0000		9999	0	0	0	0
2017/06/03 01:43:00	BASE	1.44	327	1.95	70	2.1	64	-3.9	0	0	994.6	NA	0.0000		9999	12500	0	0	0
2017/06/03 01:44:00	BASE	1.42	311	1.95	70	2.0	65	-3.9	0	0	994.6	NA	0.0000		9999	12600	0	0	0
2017/06/03 01:45:00	BASE	1.87	312	2.52	323	1.9	66	-3.9	0	0	994.6	NA	0.0000		9999	12300	0	0	0
2017/06/03 01:46:00	BASE	2.20	327	2.52	323	1.7	67	-3.8	0	0	994.6	NA	0.0000		9999	12370	0	0	0
2017/06/03 01:47:00	BASE	2.32	336	2.68	337	1.6	67	-3.8	0	0	994.6	NA	0.0000		9999	12500	0	0	0
2017/06/03 01:48:00	BASE	2.66	336	3.55	341	1.5	68	-3.8	0	0	994.6	NA	0.0000		9999	0	0	0	0
2017/06/03 01:49:00	BASE	3.15	353	4.01	49	1.5	68	-3.8	0	0	994.6	NA	0.0000		9999	0	0	0	0
2017/06/03 01:50:00	BASE	3.85	28	4.99	38	1.5	68	-3.8	0	0	994.7	NA	0.0000		9999	0	0	0	0
2017/06/03 01:51:00	BASE	4.67	49	6.94	64	1.4	68	-3.7	0	0	994.6	NA	0.0000		9999	0	0	0	0
2017/06/03 01:52:00	BASE	4.66	71	6.94	64	1.4	69	-3.7	0	0	994.5	NA	0.0000		9999	0	0	0	0
2017/06/03 01:53:00	BASE	4.33	90	6.94	64	1.4	69	-3.6	0	0	994.4	NA	0.0000		9999	0	0	0	0
2017/06/03 01:54:00	BASE	3.60	95	6.94	64	1.4	69	-3.6	0	0	994.4	NA	0.0000		9999	0	0	0	0
2017/06/03 01:55:00	BASE	2.34	106	6.94	64	1.5	69	-3.5	0	0	994.4	NA	0.0000		9999	0	0	0	0
2017/06/03 01:56:00	BASE	2.04	111	6.94	64	1.6	68	-3.6	0	0	994.4	NA	0.0000		9999	0	0	0	0
2017/06/03 01:57:00	BASE	3.50	98	6.94	64	1.8	67	-3.6	0	0	994.5	NA	0.0000		9999	0	0	0	0
2017/06/03 01:58:00	BASE	5.17	98	6.94	64	1.8	67	-3.7	0	0	994.4	NA	0.0000		9999	0	0	0	0
2017/06/03 01:59:00	BASE	4.96	108	6.94	64	1.8	67	-3.7	0	0	994.4	NA	0.0000		9999	0	0	0	0
2017/06/03 02:00:00	BASE	3.97	116	6.94	64	1.7	68	-3.7	0	0	994.5	NA	0.0000		9999	0	0	0	0
2017/06/03 02:01:00	BASE	3.67	126	6.38	110	1.6	68	-3.6	0	0	994.5	NA	0.0000		9999	0	0	0	0
2017/06/03 02:02:00	BASE	3.62	129	6.38	110	1.4	69	-3.6	0	0	994.5	NA	0.0000		9999	0	0	0	0
2017/06/03 02:03:00	BASE	3.72	127	6.38	110	1.4	70	-3.5	0	0	994.5	NA	0.0000		9999	0	0	0	0
2017/06/03 02:04:00	BASE	4.09	130	6.38	110	1.3	70	-3.6	0	0	994.6	NA	0.0000		9999	0	0	0	0
2017/06/03 02:05:00	BASE	3.75	144	6.38	110	1.1	71	-3.5	0	0	994.6	NA	0.0000		9999	0	0	0	0
2017/06/03 02:06:00	BASE	3.16	163	6.38	110	1.0	72	-3.4	0	0	994.6	NA	0.0000		9999	0	0	0	0
2017/06/03 02:07:00	BASE	2.65	168	6.38	110	0.8	73	-3.4	0	0	994.6	NA	0.0000		9999	0	0	0	0
2017/06/03 02:08:00	BASE	2.00	164	5.71	100	0.7	74	-3.3	0	0	994.6	NA	0.0000		9999	6200	0	0	0
2017/06/03 02:09:00	BASE	1.51	152	4.78	128	0.6	75	-3.2	0	0	994.6	NA	0.0000		9999	6270	0	0	0
2017/06/03 02:10:00	BASE	1.23	127	4.78	128	0.6	76	-3.1	0	0	994.6	NA	0.0000		9999	0	0	0	0
2017/06/03 02:11:00	BASE	0.56	104	4.78	128	0.7	76	-3.0	0	0	994.6	NA	0.0000		9999	0	0	0	0
2017/06/03 02:12:00	BASE	0.77	109	4.78	128	0.7	77	-2.9	0	0	994.6	NA	0.0000		9999	0	0	0	0
2017/06/03 02:13:00	BASE	2.13	103	4.78	128	0.7	77	-2.9	0	0	994.6	NA	0.0000		9999	0	0	0	0
2017/06/03 02:14:00	BASE	3.47	90	4.94	96	0.8	77	-2.9	0	0	994.6	NA	0.0000		9999	6300	0	0	0
2017/06/03 02:15:00	BASE	3.79	100	4.94	96	0.8	76	-2.9	0	0	994.5	NA	0.0000		9999	6300	0	0	0
2017/06/03 02:16:00	BASE	3.04	110	4.94	96	0.9	76	-2.9	0	0	994.5	NA	0.0000		9999	6370	0	0	0
2017/06/03 02:17:00	BASE	2.61	120	4.94	96	0.9	76	-2.9	0	0	994.5	NA	0.0000		9999	6140	0	0	0
2017/06/03 02:18:00	BASE	2.43	119	4.94	96	1.0	75	-2.8	0	0	994.5	NA	0.0000		9999	6170	0	0	0
2017/06/03 02:19:00	BASE	1.99	103	4.94	96	1.1	75	-2.8	0	0	994.5	NA	0.0000		9999	6100	0	0	0
2017/06/03 02:20:00	BASE	1.40	81	4.94	96	1.2	74	-2.8	0	0	994.5	NA	0.0000		9999	6070	0	0	0
2017/06/03 02:21:00	BASE	2.02	65	4.94	96	1.3	74	-2.9	0	0	994.6	NA	0.0000		9999	6140	0	0	0
2017/06/03 02:22:00	BASE	3.25	65	4.94	96	1.3	74	-2.9	0	0	994.5	NA	0.0000		9999	6070	0	0	0
2017/06/03 02:23:00	BASE	3.43	66	4.94	96	1.2	73	-3.0	0	0	994.6	NA	0.0000		9999	5940	0	0	0
2017/06/03 02:24:00	BASE	2.64	74	4.22	65	1.2	73	-3.1	0	0	994.5	NA	0.0000		9999	5910	0	0	0
2017/06/03 02:25:00	BASE	1.69	94	4.22	65	1.2	73	-3.2	0	0	994.5	NA	0.0000		9999	5970	0	0	0
2017/06/03 02:26:00	BASE	1.51	110	4.22	65	1.2	72	-3.2	0	0	994.5	NA	0.0000		9999	5970	0	0	0
2017/06/03 02:27:00	BASE	1.78	109	4.22	65	1.2	72	-3.3	0	0	994.5	NA	0.0000		9999	5970	0	0	0
2017/06/03 02:28:00	BASE	1.80	108	4.22	65	1.2	72	-3.2	0	0	994.6	NA	0.0000		9999	5970	0	0	0
2017/06/03 02:29:00	BASE	1.53	93	4.22	65	1.3	72	-3.1	0	0	994.6	NA	0.0000		9999	5970	0	0	0
2017/06/03 02:30:00	BASE	1.90	69	4.22	65	1.4	72	-3.1	0	0	994.6	NA	0.0000		9999	6070	0	0	0
2017/06/03 02:31:00	BASE	2.52	65	4.22	65	1.5	71	-3.1	0	0	994.5	NA	0.0000		9999	6100	0	0	0
2017/06/03 02:32:00	BASE	2.11	71	3.76	64	1.6	71	-3.1	0	0	994.6	NA	0.0000		9999	6200	0	0	0
2017/06/03 02:33:00	BASE	0.98	83	3.24	58	1.8	70	-3.1	0	0	994.5	NA	0.0000		9999	6300	0	0	0
2017/06/03 02:34:00	BASE	0.44	92	3.24	58	1.8	69	-3.2	0	0	994.5	NA	0.0000		9999	6370	0	0	0
2017/06/03 02:35:00	BASE	0.53	96	3.24	58	1.9	69	-3.3	0	0	994.5	NA	0.0000		9999	6430	0	0	0
2017/06/03 02:36:00	BASE	0.75	91	3.24	58	1.9	69	-3.3	0	0	994.5	NA	0.0000		9999	6630	0	0	0
2017/06/03 02:37:00	BASE	1.42	88	3.24	58	1.8	68	-3.4	0	0	994.5	NA	0.0000		9999	6690	0	0	0
2017/06/03 02:38:00	BASE	1.81	91	3.24	58	1.8	69	-3.4	0	0	994.5	NA	0.0000		9999	0	0	0	0
2017/06/03 02:39:00	BASE	1.94	102	3.24	58	1.7	69	-3.4	0	0	994.5	NA	0.0000		9999	6270	0	0	0
2017/06/03 02:40:00	BASE	1.95	116	3.24	58	1.7	69	-3.3	0	0	994.6	NA	0.0000		9999	6170	0	0	0
2017/06/03 02:41:00	BASE	1.63	126	2.26	107	1.7	69	-3.3	0	0	994.6	NA	0.0000		9999	6100	0	0	0
2017/06/03 02:42:00	BASE	1.47	132	2.26	107	1.7	69	-3.3	0	0	994.6	NA	0.0000		9999	6200	0	0	0
2017/06/03 02:43:00	BASE	1.10	143	2.26	107	1.7	69	-3.3	0	0	994.6	NA	0.0000		9999	6100	0	0	0
2017/06/03 02:44:00	BASE	0.34	149	2.26	107	1.8	69	-3.3	0	0	994.6	NA	0.0000		9999	6170	0	0	0
2017/06/03 02:45:00	BASE	0.00	149	2.26	107	1.8	69	-3.3	0	0	994.6	NA	0.0000		9999	6100	0	0	0
2017/06/03 02:46:00	BASE	0.00	150	2.26	107	1.8	68	-3.4	0	0	994.6	NA	0.0000		9999	6070	0	0	0
2017/06/03 02:47:00	BASE	0.00	150	2.26	107	1.8	68	-3.4	0	0	994.6	NA	0.0000		9999	6070	0	0	0
2017/06/03 02:48:00	BASE	0.00	150	2.26	107	1.8	68	-3.4	0	0	994.6	NA	0.0000		9999	6100	0	0	0
2017/06/03 02:49:00	BASE	0.00	149	1.95	134	1.8	68	-3.5	0	0	994.6	NA	0.0000		9999	6300	0	0	0
2017/06/03 02:50:00	BASE	0.00	149	1.65	143	1.8	68	-3.5	0	0	994.6	NA	0.0000		9999	11650	0	0	0
2017/06/03 02:51:00	BASE	0.00	149	1.65	143	1.8	68	-3.5	0	0	994.6	NA	0.0000		9999	0	0	0	0
2017/06/03 02:52:00	BASE	0.00	149	1.44	145	1.9	68	-3.5	0	0	994.6	NA	0.0000		9999	6230	0	0	0
2017/06/03 02:53:00	BASE	0.00	149	M	M	2.0	67	-3.5	0	0	994.6	NA	0.0000		9999	6270	0	0	0
2017/06/03 02:54:00	BASE	0.00	122	M	M	2.0	67	-3.5	0	0	994.6	NA	0.0000		9999	6330	0	0	0
2017/06/03 02:55:00	BASE	0.00	13	M	M	2.0	67	-3.5	0	0	994.6	NA	0.0000		9999	6460	0	0	0
2017/06/03 02:56:00	BASE	0.00	4	M	M	1.9	67	-3.5	0	0	994.6	NA	0.0000		9999	6460	0	0	0
2017/06/03 02:57:00	BASE	0.00	4	M	M	1.8	68	-3.5	0	0	994.5	NA	0.0000		9999	6400	0	0	0
2017/06/03 02:58:00	BASE	0.00	3	M	M	1.7	69	-3.5	0	0	994.5	NA	0.0000		9999	6370	0	0	0
2017/06/03 02:59:00	BASE	0.00	3	M	M	1.6	69	-3.5	0	0	994.5	NA	0.0000		9999	6300	0	0	0
2017/06/03 03:00:00	BASE	0.00	3	M	M	1.5	69	-3.5	0	0	994.5	NA	0.0000		9999	6270	0	0	0
2017/06/03 03:01:00	BASE	0.00	3	M	M	1.4	70	-3.5	0	0	994.5	NA	0.0000		9999	6330	0	0	0
2017/06/03 03:02:00	BASE	0.00	3	M	M	1.3	71	-3.4	0	0	994.5	NA	0.0000		9999	6370	0	0	0
2017/06/03 03:03:00	BASE	0.00	3	M	M	1.3	71	-3.4	0	0	994.5	NA	0.0000		9999	6300	0	0	0
2017/06/03 03:04:00	BASE	0.00	3	M	M	1.2	72	-3.4	0	0	994.5	NA	0.0000		9999	6330	0	0	0
2017/06/03 03:05:00	BASE	0.00	330	M	M	1.1	72	-3.3	0	0	994.5	NA	0.0000		9999	6330	0	0	0
2017/06/03 03:06:00	BASE	0.00	270	M	M	1.1	72	-3.3	0	0	994.5	NA	0.0000		9999	6400	0	0	0
2017/06/03 03:07:00	BASE	0.00	260	M	M	1.1	73	-3.2	0	0	994.5	NA	0.0000		9999	6370	0	0	0
2017/06/03 03:08:00	BASE	0.00	261	M	M	1.1	73	-3.2	0	0	994.4	NA	0.0000		9999	6400	0	0	0
2017/06/03 03:09:00	BASE	0.00	263	M	M	1.1	73	-3.2	0	0	994.4	NA	0.0000		9999	6370	0	0	0
2017/06/03 03:10:00	BASE	0.00	277	M	M	1.1	73	-3.2	0	0	994.4	NA	0.0000		9999	6300	0	0	0
2017/06/03 03:11:00	BASE	0.39	300	1.54	313	1.1	73	-3.1	0	0	994.4	NA	0.0000		9999	6330	0	0	0
2017/06/03 03:12:00	BASE	1.16	313	1.65	315	1.1	73	-3.2	0	0	994.4	NA	0.0000		9999	6300	0	0	0
2017/06/03 03:13:00	BASE	1.50	314	1.65	315	1.1	73	-3.2	0	0	994.4	NA	0.0000		9999	6300	0	0	0
2017/06/03 03:14:00	BASE	1.46	308	1.65	315	1.0	74	-3.1	0	0	994.3	NA	0.0000		9999	6300	0	0	0
2017/06/03 03:15:00	BASE	1.34	298	1.65	315	1.1	74	-3.1	0	0	994.3	NA	0.0000		9999	6300	0	0	0
2017/06/03 03:16:00	BASE	0.70	293	1.65	315	1.1	74	-3.1	0	0	994.3	NA	0.0000		9999	6300	0	0	0
2017/06/03 03:17:00	BASE	0.09	293	1.65	315	1.1	74	-3.1	0	0	994.3	NA	0.0000		9999	6300	0	0	0
2017/06/03 03:18:00	BASE	0.00	293	1.65	315	1.2	73	-3.1	0	0	994.3	NA	0.0000		9999	6300	0	0	0
2017/06/03 03:19:00	BASE	0.42	277	1.65	315	1.1	73	-3.2	0	0	994.3	NA	0.0000		9999	6370	0	0	0
2017/06/03 03:20:00	BASE	0.56	116	1.65	315	1.0	73	-3.2	0	0	994.4	NA	0.0000		9999	6330	0	0	0
2017/06/03 03:21:00	BASE	0.14	109	1.65	315	0.9	74	-3.2	0	0	994.3	NA	0.0000		9999	6330	0	0	0
2017/06/03 03:22:00	BASE	0.00	110	1.59	122	0.8	75	-3.2	0	0	994.3	NA	0.0000		9999	6300	0	0	0
2017/06/03 03:23:00	BASE	0.00	110	1.59	122	0.7	75	-3.2	0	0	994.2	NA	0.0000		9999	6330	0	0	0
2017/06/03 03:24:00	BASE	0.00	110	1.59	122	0.8	75	-3.1	0	0	994.2	NA	0.0000		9999	6330	0	0	0
2017/06/03 03:25:00	BASE	0.00	109	1.59	122	0.9	75	-3.0	0	0	994.2	NA	0.0000		9999	6330	7150	0	0
2017/06/03 03:26:00	BASE	0.05	248	1.59	122	1.1	74	-3.0	0	0	994.2	NA	0.0000		9999	6300	0	0	0
2017/06/03 03:27:00	BASE	0.05	282	1.59	122	1.2	74	-3.0	0	0	994.2	NA	0.0000		9999	6330	0	0	0
2017/06/03 03:28:00	BASE	0.00	311	1.59	122	1.4	73	-3.0	0	0	994.2	NA	0.0000		9999	6330	0	0	0
2017/06/03 03:29:00	BASE	0.50	345	1.80	29	1.4	72	-3.1	0	0	994.2	NA	0.0000		9999	6300	0	0	0
2017/06/03 03:30:00	BASE	1.46	29	2.11	48	1.4	72	-3.2	0	0	994.2	NA	0.0000		9999	6300	0	0	0
2017/06/03 03:31:00	BASE	1.65	48	2.11	48	1.2	72	-3.3	0	0	994.3	NA	0.0000		9999	6330	0	0	0
2017/06/03 03:32:00	BASE	0.96	44	2.11	48	1.2	72	-3.3	0	0	994.3	NA	0.0000		9999	6370	0	0	0
2017/06/03 03:33:00	BASE	0.27	44	2.11	48	1.1	73	-3.3	0	0	994.4	NA	0.0000		9999	6370	0	0	0
2017/06/03 03:34:00	BASE	0.00	55	2.11	48	1.0	73	-3.2	0	0	994.4	NA	0.0000		9999	6300	0	0	0
2017/06/03 03:35:00	BASE	0.00	99	2.11	48	1.1	73	-3.2	0	0	994.4	NA	0.0000		9999	6330	0	0	0
2017/06/03 03:36:00	BASE	0.00	147	2.11	48	1.1	73	-3.2	0	0	994.4	NA	0.0000		9999	6370	0	0	0
2017/06/03 03:37:00	BASE	0.00	153	2.11	48	1.1	73	-3.2	0	0	994.4	NA	0.0000		9999	6330	0	0	0
2017/06/03 03:38:00	BASE	0.00	153	2.11	48	1.1	73	-3.2	0	0	994.4	NA	0.0000		9999	6370	0	0	0
2017/06/03 03:39:00	BASE	0.00	153	2.11	48	1.1	73	-3.2	0	0	994.4	NA	0.0000		9999	6370	0	0	0
2017/06/03 03:40:00	BASE	0.00	153	1.85	42	1.2	73	-3.1	0	0	994.4	NA	0.0000		9999	6330	0	0	0
2017/06/03 03:41:00	BASE	0.00	157	1.18	42	1.3	73	-3.1	0	0	994.4	NA	0.0000		9999	6500	0	0	0
2017/06/03 03:42:00	BASE	0.00	162	M	M	1.4	72	-3.1	0	0	994.4	NA	0.0000		9999	6530	0	0	0
2017/06/03 03:43:00	BASE	0.05	148	1.08	135	1.4	72	-3.1	0	0	994.4	NA	0.0000		9999	6460	0	0	0
2017/06/03 03:44:00	BASE	0.05	133	1.08	135	1.4	72	-3.1	0	0	994.4	NA	0.0000		9999	6460	0	0	0
2017/06/03 03:45:00	BASE	0.00	133	1.08	135	1.4	72	-3.1	0	0	994.4	NA	0.0000		9999	6500	0	0	0
2017/06/03 03:46:00	BASE	0.00	133	1.08	135	1.5	72	-3.1	0	0	994.4	NA	0.0000		9999	6500	0	0	0
2017/06/03 03:47:00	BASE	0.00	143	1.08	135	1.4	72	-3.1	0	0	994.4	NA	0.0000		9999	6460	0	0	0
2017/06/03 03:48:00	BASE	0.00	151	1.08	135	1.4	72	-3.1	0	0	994.4	NA	0.0000		9999	6460	0	0	0
2017/06/03 03:49:00	BASE	0.09	149	1.13	146	1.4	72	-3.1	0	0	994.4	NA	0.0000		9999	6460	0	0	0
2017/06/03 03:50:00	BASE	0.33	150	1.39	154	1.4	72	-3.1	0	0	994.4	NA	0.0000		9999	6500	0	0	0
2017/06/03 03:51:00	BASE	0.73	159	1.85	165	1.3	72	-3.1	0	0	994.3	NA	0.0000		9999	6530	0	0	0
2017/06/03 03:52:00	BASE	1.64	164	2.62	159	1.3	73	-3.1	0	0	994.3	NA	0.0000		9999	6560	0	0	0
2017/06/03 03:53:00	BASE	2.32	160	3.04	163	1.2	73	-3.0	0	0	994.2	NA	0.0000		9999	6530	0	0	0
2017/06/03 03:54:00	BASE	2.51	157	3.04	163	1.2	74	-3.0	0	0	994.3	NA	0.0000		9999	6500	0	0	0
2017/06/03 03:55:00	BASE	2.53	152	3.04	163	1.2	74	-3.0	0	0	994.3	NA	0.0000		9999	6500	0	0	0
2017/06/03 03:56:00	BASE	2.54	154	3.09	157	1.1	74	-2.9	0	0	994.2	NA	0.0000		9999	6500	0	0	0
2017/06/03 03:57:00	BASE	2.57	154	3.09	157	1.1	75	-2.9	0	0	994.2	NA	0.0000		9999	6460	0	0	0
2017/06/03 03:58:00	BASE	2.33	153	3.09	157	1.0	75	-2.9	0	0	994.2	NA	0.0000		9999	6460	0	0	0
2017/06/03 03:59:00	BASE	2.36	159	3.09	157	1.0	76	-2.8	0	0	994.2	NA	0.0000		9999	6530	0	0	0
2017/06/03 04:00:00	BASE	2.41	164	3.09	157	0.9	76	-2.9	0	0	994.2	NA	0.0000		9999	6560	0	0	0
2017/06/03 04:01:00	BASE	2.19	164	3.09	157	0.9	76	-2.8	0	0	994.2	NA	0.0000		9999	6560	0	0	0
2017/06/03 04:02:00	BASE	1.94	165	3.09	157	0.8	76	-2.9	0	0	994.2	NA	0.0000		9999	6590	0	0	0
2017/06/03 04:03:00	BASE	1.82	165	3.09	157	0.8	77	-2.9	0	0	994.2	NA	0.0000		9999	6590	0	0	0
2017/06/03 04:04:00	BASE	1.82	162	3.09	157	0.7	77	-2.8	0	0	994.2	NA	0.0000		9999	6630	0	0	0
2017/06/03 04:05:00	BASE	1.76	163	3.09	157	0.7	77	-2.8	0	0	994.2	NA	0.0000		9999	6660	0	0	0
2017/06/03 04:06:00	BASE	1.57	166	2.93	169	0.7	78	-2.8	0	0	994.2	NA	0.0000		9999	6630	0	0	0
2017/06/03 04:07:00	BASE	1.40	168	2.93	169	0.6	78	-2.8	0	0	994.2	NA	0.0000		9999	6630	0	0	0
2017/06/03 04:08:00	BASE	1.40	169	2.93	169	0.6	78	-2.7	0	0	994.2	NA	0.0000		9999	6630	0	0	0
2017/06/03 04:09:00	BASE	1.23	172	2.57	166	0.6	79	-2.7	0	0	994.2	NA	0.0000		9999	6590	0	0	0
2017/06/03 04:10:00	BASE	0.87	175	2.42	171	0.6	79	-2.7	0	0	994.2	NA	0.0000		9999	6560	0	0	0
2017/06/03 04:11:00	BASE	0.37	175	2.06	159	0.6	79	-2.6	0	0	994.2	NA	0.0000		9999	6560	0	0	0
2017/06/03 04:12:00	BASE	0.00	179	2.01	156	0.6	79	-2.5	0	0	994.1	NA	0.0000		9999	6560	0	0	0
2017/06/03 04:13:01	BASE	0.00	182	2.01	156	0.7	80	-2.4	0	0	994.1	NA	0.0000		9999	6560	0	0	0
2017/06/03 04:14:00	BASE	0.00	182	1.95	165	0.7	80	-2.4	0	0	994.1	NA	0.0000		9999	6560	0	0	0
2017/06/03 04:15:00	BASE	0.00	182	1.70	174	0.7	80	-2.4	0	0	994.2	NA	0.0000		9999	6560	0	0	0
2017/06/03 04:16:00	BASE	0.00	182	1.54	169	0.8	80	-2.3	0	0	994.2	NA	0.0000		9999	6590	0	0	0
2017/06/03 04:17:00	BASE	0.00	182	1.54	169	0.8	80	-2.3	0	0	994.2	NA	0.0000		9999	6560	0	0	0
2017/06/03 04:18:00	BASE	0.00	145	1.44	176	0.8	79	-2.4	0	0	994.2	NA	0.0000		9999	6560	0	0	0
2017/06/03 04:19:00	BASE	0.04	45	1.18	176	0.7	79	-2.4	0	0	994.2	NA	0.0000		9999	6560	0	0	0
2017/06/03 04:20:00	BASE	0.41	32	1.39	31	0.7	79	-2.5	0	0	994.2	NA	0.0000		9999	6590	0	0	0
2017/06/03 04:21:00	BASE	1.04	27	1.49	25	0.6	79	-2.5	0	0	994.1	NA	0.0000		9999	6560	0	0	0
2017/06/03 04:22:00	BASE	1.37	29	1.49	30	0.6	80	-2.6	0	0	994.1	NA	0.0000		9999	6560	0	0	0
2017/06/03 04:23:00	BASE	1.32	34	1.49	30	0.6	80	-2.5	0	0	994.1	NA	0.0000		9999	6590	0	0	0
2017/06/03 04:24:00	BASE	1.06	44	1.49	30	0.6	80	-2.4	0	0	994.1	NA	0.0000		9999	6590	0	0	0
2017/06/03 04:25:00	BASE	0.74	48	1.49	30	0.7	80	-2.4	0	0	994.1	NA	0.0000		9999	6590	0	0	0
2017/06/03 04:26:00	BASE	0.45	49	1.49	30	0.8	80	-2.3	0	0	994.1	NA	0.0000		9999	6630	0	0	0
2017/06/03 04:27:00	BASE	0.70	49	1.59	40	0.8	79	-2.3	0	0	994.1	NA	0.0000		9999	6590	0	0	0
2017/06/03 04:28:00	BASE	1.16	37	1.59	40	0.9	79	-2.4	0	0	994.1	NA	0.0000		9999	6630	0	0	0
2017/06/03 04:29:00	BASE	1.09	31	1.59	40	0.9	78	-2.4	0	0	994.1	NA	0.0000		9999	6630	0	0	0
2017/06/03 04:30:00	BASE	0.94	39	1.59	40	0.9	78	-2.5	0	0	994.1	NA	0.0000		9999	6040	6590	0	0
2017/06/03 04:31:00	BASE	0.79	68	1.59	40	0.9	78	-2.5	0	0	994.1	NA	0.0000		9999	6560	0	0	0
2017/06/03 04:32:00	BASE	0.33	78	1.59	40	1.0	77	-2.5	0	0	994.1	NA	0.0000		9999	6560	0	0	0
2017/06/03 04:33:00	BASE	0.00	60	1.59	40	1.0	77	-2.5	0	0	994.1	NA	0.0000		9999	6590	0	0	0
2017/06/03 04:34:00	BASE	0.00	50	1.59	40	1.1	77	-2.5	0	0	994.1	NA	0.0000		9999	6630	0	0	0
2017/06/03 04:35:00	BASE	0.00	33	1.59	40	1.1	76	-2.5	0	0	994.1	NA	0.0000		9999	6040	6590	0	0
2017/06/03 04:36:00	BASE	0.00	24	1.59	40	1.2	76	-2.6	0	0	994.1	NA	0.0000		9999	6500	0	0	0
2017/06/03 04:37:00	BASE	0.00	52	1.29	91	1.2	76	-2.6	0	0	994.1	NA	0.0000		9999	6140	6660	0	0
2017/06/03 04:38:00	BASE	0.00	101	1.29	91	1.3	75	-2.6	0	0	994.1	NA	0.0000		9999	6140	0	0	0
2017/06/03 04:39:00	BASE	0.26	143	1.39	160	1.3	75	-2.6	0	0	994.1	NA	0.0000		9999	6270	0	0	0
2017/06/03 04:40:00	BASE	0.52	155	1.49	172	1.3	75	-2.6	0	0	994.1	NA	0.0000		9999	6330	0	0	0
2017/06/03 04:41:00	BASE	0.59	151	1.54	139	1.4	74	-2.7	0	0	994.1	NA	0.0000		9999	6330	0	0	0
2017/06/03 04:42:00	BASE	0.46	134	1.54	139	1.3	74	-2.8	0	0	994.1	NA	0.0000		9999	6370	0	0	0
2017/06/03 04:43:00	BASE	0.44	123	1.54	139	1.2	74	-2.8	0	0	994.1	NA	0.0000		9999	6400	0	0	0
2017/06/03 04:44:00	BASE	0.98	120	1.80	115	1.2	75	-2.9	0	0	994.1	NA	0.0000		9999	6330	0	0	0
2017/06/03 04:45:00	BASE	1.33	129	1.85	149	1.1	75	-2.8	0	0	994.1	NA	0.0000		9999	6370	0	0	0
2017/06/03 04:46:00	BASE	1.31	131	1.85	142	1.0	75	-2.8	0	0	994.0	NA	0.0000		9999	6330	0	0	0
2017/06/03 04:47:00	BASE	1.56	135	2.06	136	1.0	76	-2.8	0	0	994.0	NA	0.0000		9999	6430	0	0	0
2017/06/03 04:48:00	BASE	2.09	144	2.78	150	1.0	76	-2.7	0	0	994.0	NA	0.0000		9999	6330	0	0	0
2017/06/03 04:49:00	BASE	2.50	154	2.88	152	1.0	76	-2.7	0	0	994.0	NA	0.0000		9999	6460	0	0	0
2017/06/03 04:50:00	BASE	2.58	160	3.09	163	1.0	76	-2.7	0	0	994.0	NA	0.0000		9999	6500	0	0	0
2017/06/03 04:51:00	BASE	2.27	151	3.09	163	1.0	76	-2.7	0	0	994.0	NA	0.0000		9999	6460	0	0	0
2017/06/03 04:52:00	BASE	1.79	134	3.09	163	1.0	76	-2.7	0	0	994.0	NA	0.0000		9999	6500	0	0	0
2017/06/03 04:53:00	BASE	1.02	115	3.09	163	0.9	76	-2.8	0	0	994.1	NA	0.0000		9999	6530	0	0	0
2017/06/03 04:54:00	BASE	0.25	111	3.09	163	0.9	77	-2.7	0	0	994.1	NA	0.0000		9999	6560	0	0	0
2017/06/03 04:55:00	BASE	0.05	113	3.09	163	0.8	77	-2.7	0	0	994.1	NA	0.0000		9999	4660	6560	0	0
2017/06/03 04:56:00	BASE	0.09	82	3.09	163	0.8	78	-2.7	0	0	994.1	NA	0.0000		9999	6330	0	0	0
2017/06/03 04:57:00	BASE	0.09	94	3.09	163	0.8	78	-2.7	0	0	994.1	NA	0.0000		9999	6370	0	0	0
2017/06/03 04:58:00	BASE	0.56	136	3.09	163	0.8	78	-2.6	0	0	994.0	NA	0.0000		9999	6500	0	0	0
2017/06/03 04:59:00	BASE	1.29	150	3.09	163	0.9	78	-2.6	0	0	994.0	NA	0.0000		9999	6460	0	0	0
2017/06/03 05:00:00	BASE	1.47	150	2.62	154	0.9	78	-2.6	0	0	994.0	NA	0.0000		9999	6500	0	0	0
2017/06/03 05:01:00	BASE	0.98	141	2.11	150	0.9	77	-2.6	0	0	994.0	NA	0.0000		9999	6560	0	0	0
2017/06/03 05:02:00	BASE	1.04	150	2.11	150	0.9	77	-2.6	0	0	994.0	NA	0.0000		9999	6630	0	0	0
2017/06/03 05:03:00	BASE	1.29	170	2.11	150	0.9	77	-2.7	0	0	994.0	NA	0.0000		9999	6560	0	0	0
2017/06/03 05:04:00	BASE	0.55	181	2.11	150	0.9	77	-2.7	0	0	994.0	NA	0.0000		9999	6460	0	0	0
2017/06/03 05:05:00	BASE	0.14	155	2.11	150	0.8	78	-2.6	0	0	994.1	NA	0.0000		9999	6430	0	0	0
2017/06/03 05:06:00	BASE	0.14	155	2.11	150	0.8	78	-2.6	0	0	994.1	NA	0.0000		9999	6430	6920	0	0
2017/06/03 05:07:00	BASE	0.00	173	2.11	150	0.8	78	-2.6	0	0	994.0	NA	0.0000		9999	6230	0	0	0
2017/06/03 05:08:00	BASE	0.00	167	1.95	161	0.9	78	-2.5	0	0	994.0	NA	0.0000		9999	6200	0	0	0
2017/06/03 05:09:00	BASE	0.05	157	1.80	167	0.9	78	-2.6	0	0	994.0	NA	0.0000		9999	6230	0	0	0
2017/06/03 05:10:00	BASE	0.28	149	1.80	167	0.9	78	-2.6	0	0	994.0	NA	0.0000		9999	6890	0	0	0
2017/06/03 05:11:00	BASE	0.69	147	1.80	167	0.9	77	-2.6	0	0	994.0	NA	0.0000		9999	6330	6860	0	0
2017/06/03 05:12:00	BASE	0.55	146	1.80	167	0.9	77	-2.7	0	0	994.0	NA	0.0000		9999	6170	0	0	0
2017/06/03 05:13:00	BASE	0.18	134	1.29	141	0.9	77	-2.7	0	0	994.0	NA	0.0000		9999	6200	0	0	0
2017/06/03 05:14:00	BASE	0.18	122	1.29	141	0.9	77	-2.7	0	0	994.0	NA	0.0000		9999	6960	0	0	0
2017/06/03 05:15:00	BASE	0.09	96	1.29	141	0.9	77	-2.6	0	0	993.9	NA	0.0000		9999	6990	0	0	0
2017/06/03 05:16:00	BASE	0.00	72	1.29	141	0.9	77	-2.6	0	0	994.0	NA	0.0000		9999	7020	0	0	0
2017/06/03 05:17:00	BASE	0.04	72	1.29	141	1.0	77	-2.6	0	0	994.0	NA	0.0000		9999	7090	0	0	0
2017/06/03 05:18:00	BASE	0.04	73	1.29	141	1.0	77	-2.6	0	0	993.9	NA	0.0000		9999	7090	0	0	0
2017/06/03 05:19:00	BASE	0.00	78	1.29	141	1.0	77	-2.6	0	0	993.9	NA	0.0000		9999	7150	0	0	0
2017/06/03 05:20:00	BASE	0.00	78	1.29	141	1.1	76	-2.6	0	0	993.9	NA	0.0000		9999	7090	0	0	0
2017/06/03 05:21:00	BASE	0.00	74	1.08	109	1.1	76	-2.6	0	0	993.9	NA	0.0000		9999	7220	0	0	0
2017/06/03 05:22:00	BASE	0.00	74	1.08	109	1.1	76	-2.7	0	0	993.9	NA	0.0000		9999	7050	0	0	0
2017/06/03 05:23:00	BASE	0.00	74	1.08	109	1.1	75	-2.7	0	0	993.9	NA	0.0000		9999	7050	0	0	0
2017/06/03 05:24:00	BASE	0.33	74	1.29	75	1.1	75	-2.8	0	0	993.8	NA	0.0000		9999	7020	0	0	0
2017/06/03 05:25:00	BASE	0.64	76	1.29	75	1.1	75	-2.8	0	0	993.7	NA	0.0000		9999	7050	0	0	0
2017/06/03 05:26:00	BASE	0.46	85	1.29	75	1.1	75	-2.8	0	0	993.7	NA	0.0000		9999	7020	0	0	0
2017/06/03 05:27:00	BASE	0.14	94	1.29	75	1.1	75	-2.8	0	0	993.7	NA	0.0000		9999	7090	0	0	0
2017/06/03 05:28:00	BASE	0.00	89	1.29	75	1.1	75	-2.8	0	0	993.7	NA	0.0000		9999	7090	0	0	0
2017/06/03 05:29:00	BASE	0.00	78	1.29	75	1.1	75	-2.8	0	0	993.7	NA	0.0000		9999	7120	0	0	0
2017/06/03 05:30:00	BASE	0.00	68	1.29	75	1.2	75	-2.8	0	0	993.7	NA	0.0000		9999	7090	0	0	0
2017/06/03 05:31:00	BASE	0.00	60	1.29	75	1.2	75	-2.8	0	0	993.7	NA	0.0000		9999	7150	0	0	0
2017/06/03 05:32:00	BASE	0.13	54	1.29	75	1.3	75	-2.8	0	0	993.7	NA	0.0000		9999	7050	0	0	0
2017/06/03 05:33:00	BASE	0.40	56	1.29	75	1.3	74	-2.7	0	0	993.7	NA	0.0000		9999	7090	0	0	0
2017/06/03 05:34:00	BASE	0.57	63	1.23	89	1.4	74	-2.8	0	0	993.7	NA	0.0000		9999	7090	0	0	0
2017/06/03 05:35:00	BASE	0.44	71	1.23	89	1.4	74	-2.8	0	0	993.7	NA	0.0000		9999	7050	0	0	0
2017/06/03 05:36:00	BASE	0.58	89	1.39	115	1.4	73	-2.9	0	0	993.7	NA	0.0000		9999	7150	0	0	0
2017/06/03 05:37:00	BASE	0.45	98	1.39	115	1.4	73	-2.9	0	0	993.7	NA	0.0000		9999	7120	0	0	0
2017/06/03 05:38:00	BASE	0.27	92	1.39	115	1.4	73	-2.9	0	0	993.7	NA	0.0000		9999	7120	0	0	0
2017/06/03 05:39:00	BASE	0.31	92	1.39	115	1.3	73	-2.9	0	0	993.7	NA	0.0000		9999	7320	0	0	0
2017/06/03 05:40:00	BASE	0.05	98	1.39	115	1.3	73	-2.9	0	0	993.7	NA	0.0000		9999	7250	0	0	0
2017/06/03 05:41:00	BASE	0.09	96	1.39	115	1.3	74	-2.9	0	0	993.7	NA	0.0000		9999	7090	0	0	0
2017/06/03 05:42:00	BASE	0.22	91	1.39	115	1.3	74	-2.9	0	0	993.7	NA	0.0000		9999	7050	0	0	0
2017/06/03 05:43:00	BASE	0.55	90	1.39	84	1.3	74	-2.9	0	0	993.6	NA	0.0000		9999	6890	0	0	0
2017/06/03 05:44:00	BASE	1.12	91	1.54	95	1.3	74	-2.9	0	0	993.6	NA	0.0000		9999	6790	7840	0	0
2017/06/03 05:45:00	BASE	1.23	94	1.54	95	1.4	73	-2.9	0	0	993.6	NA	0.0000		9999	6760	0	0	0
2017/06/03 05:46:00	BASE	0.75	95	1.54	95	1.4	73	-2.9	0	0	993.6	NA	0.0000		9999	6790	0	0	0
2017/06/03 05:47:00	BASE	0.82	99	1.54	95	1.4	73	-2.9	0	0	993.6	NA	0.0000		9999	6790	0	0	0
2017/06/03 05:48:00	BASE	1.30	115	1.54	95	1.4	73	-2.9	0	0	993.6	NA	0.0000		9999	6860	0	0	0
2017/06/03 05:49:00	BASE	1.54	121	1.95	112	1.4	73	-2.9	0	0	993.6	NA	0.0000		9999	6890	0	0	0
2017/06/03 05:50:00	BASE	1.80	115	2.06	110	1.4	73	-2.9	0	0	993.6	NA	0.0000		9999	6820	0	0	0
2017/06/03 05:51:00	BASE	1.98	112	2.26	116	1.3	73	-3.0	0	0	993.6	NA	0.0000		9999	6790	0	0	0
2017/06/03 05:52:00	BASE	2.04	110	2.26	116	1.2	74	-3.0	0	0	993.6	NA	0.0000		9999	6860	0	0	0
2017/06/03 05:53:00	BASE	1.94	108	2.26	116	1.1	74	-3.0	0	0	993.6	NA	0.0000		9999	6890	0	0	0
2017/06/03 05:54:00	BASE	1.80	101	2.26	116	1.0	75	-3.0	0	0	993.6	NA	0.0000		9999	6920	0	0	0
2017/06/03 05:55:00	BASE	1.77	98	2.26	116	1.0	75	-2.9	0	0	993.6	NA	0.0000		9999	6920	0	0	0
2017/06/03 05:56:00	BASE	1.90	101	2.26	116	1.0	75	-2.9	0	0	993.6	NA	0.0000		9999	6960	0	0	0
2017/06/03 05:57:00	BASE	1.94	105	2.26	116	1.0	75	-2.9	0	0	993.6	NA	0.0000		9999	6960	0	0	0
2017/06/03 05:58:00	BASE	1.98	103	2.62	98	1.0	75	-2.8	0	0	993.6	NA	0.0000		9999	6920	0	0	0
2017/06/03 05:59:00	BASE	2.05	101	2.62	98	1.0	75	-2.9	0	0	993.6	NA	0.0000		9999	6990	0	0	0
2017/06/03 06:00:00	BASE	2.18	102	2.62	98	1.0	75	-2.9	0	0	993.6	NA	0.0000		9999	6990	0	0	0
2017/06/03 06:01:00	BASE	2.35	101	2.62	98	1.0	75	-2.9	0	0	993.6	NA	0.0000		9999	6960	0	0	0
2017/06/03 06:02:00	BASE	2.38	103	2.83	104	0.9	75	-2.9	0	0	993.6	NA	0.0000		9999	6990	0	0	0
2017/06/03 06:03:00	BASE	2.39	102	2.83	104	0.9	76	-3.0	0	0	993.6	NA	0.0000		9999	7020	0	0	0
2017/06/03 06:04:00	BASE	2.29	101	2.83	104	0.9	76	-2.9	0	0	993.6	NA	0.0000		9999	7050	0	0	0
2017/06/03 06:05:00	BASE	2.10	100	2.83	104	0.9	76	-2.9	0	0	993.6	NA	0.0000		9999	7050	0	0	0
2017/06/03 06:06:00	BASE	2.18	97	2.83	104	0.9	76	-2.9	0	0	993.6	NA	0.0000		9999	7050	0	0	0
2017/06/03 06:07:00	BASE	2.36	94	2.83	104	0.9	76	-2.8	0	0	993.6	NA	0.0000		9999	7090	0	0	0
2017/06/03 06:08:00	BASE	2.45	94	2.83	104	1.0	76	-2.8	0	0	993.6	NA	0.0000		9999	7090	0	0	0
2017/06/03 06:09:00	BASE	2.39	97	2.83	104	1.0	76	-2.8	0	0	993.6	NA	0.0000		9999	7050	0	0	0
2017/06/03 06:10:00	BASE	2.08	100	2.83	104	1.0	75	-2.9	0	0	993.6	NA	0.0000		9999	7150	0	0	0
2017/06/03 06:11:00	BASE	1.89	98	2.83	104	1.0	75	-2.9	0	0	993.6	NA	0.0000		9999	7150	0	0	0
2017/06/03 06:12:00	BASE	2.08	94	2.78	97	1.0	75	-2.9	0	0	993.6	NA	0.0000		9999	7190	0	0	0
2017/06/03 06:13:00	BASE	2.35	91	2.78	85	1.0	75	-2.9	0	0	993.6	NA	0.0000		9999	7220	0	0	0
2017/06/03 06:14:00	BASE	2.29	88	2.78	85	1.0	75	-2.9	0	0	993.6	NA	0.0000		9999	4430	7280	0	0
2017/06/03 06:15:00	BASE	2.24	91	2.78	85	1.0	75	-2.9	0	0	993.6	NA	0.0000		9999	4400	7220	0	0
2017/06/03 06:16:00	BASE	2.24	94	2.78	85	1.1	75	-2.9	0	0	993.6	NA	0.0000		9999	4400	7250	0	0
2017/06/03 06:17:00	BASE	2.28	96	2.78	85	1.0	75	-2.9	0	0	993.6	NA	0.0000		9999	4430	7280	0	0
2017/06/03 06:18:00	BASE	2.41	95	2.78	85	1.0	75	-2.9	0	0	993.5	NA	0.0000		9999	7250	0	0	0
2017/06/03 06:19:00	BASE	2.29	92	2.78	85	1.0	75	-2.9	0	0	993.5	NA	0.0000		9999	4200	7220	0	0
2017/06/03 06:20:00	BASE	2.02	94	2.78	85	1.0	75	-3.0	0	0	993.5	NA	0.0000		9999	4170	7250	0	0
2017/06/03 06:21:00	BASE	1.95	94	2.78	85	0.9	75	-3.0	0	0	993.5	NA	0.0000		9999	4130	0	0	0
2017/06/03 06:22:00	BASE	2.21	91	2.78	85	0.9	75	-3.0	0	0	993.5	NA	0.0000		9999	4200	7190	0	0
2017/06/03 06:23:00	BASE	2.48	89	2.73	92	0.9	75	-3.0	0	0	993.5	NA	0.0000		9999	4170	0	0	0
2017/06/03 06:24:00	BASE	2.61	90	2.78	92	0.8	76	-3.1	0	0	993.5	NA	0.0000		9999	4130	0	0	0
2017/06/03 06:25:00	BASE	2.56	93	2.78	92	0.7	76	-3.1	0	0	993.5	NA	0.0000		9999	4230	4690	0	0
2017/06/03 06:26:00	BASE	2.33	93	2.78	92	0.6	76	-3.0	0	0	993.5	NA	0.0000		9999	4200	0	0	0
2017/06/03 06:27:00	BASE	2.08	92	2.78	92	0.7	77	-3.0	0	0	993.5	NA	0.0000		9999	4170	0	0	0
2017/06/03 06:28:01	BASE	2.06	88	2.78	92	0.7	77	-2.9	0	0	993.5	NA	0.0000		9999	4230	0	0	0
2017/06/03 06:29:00	BASE	2.33	84	2.78	85	0.8	77	-2.9	0	0	993.5	NA	0.0000		9999	4270	7250	0	0
2017/06/03 06:30:00	BASE	2.52	81	2.98	75	0.8	76	-2.9	0	0	993.5	NA	0.0000		9999	4270	7150	0	0
2017/06/03 06:31:00	BASE	2.40	76	2.98	75	0.8	76	-2.9	0	0	993.4	NA	0.0000		9999	4230	5320	7220	0
2017/06/03 06:32:00	BASE	2.38	71	2.98	75	0.8	76	-3.0	0	0	993.4	NA	0.0000		9999	5350	7190	0	0
2017/06/03 06:33:00	BASE	2.57	65	2.98	75	0.7	76	-3.0	0	0	993.4	NA	0.0000		9999	4430	7120	0	0
2017/06/03 06:34:00	BASE	2.61	68	2.98	75	0.7	76	-3.0	0	0	993.4	NA	0.0000		9999	7090	0	0	0
2017/06/03 06:35:00	BASE	2.45	72	2.98	75	0.8	76	-3.0	0	0	993.4	NA	0.0000		9999	4330	7090	0	0
2017/06/03 06:36:00	BASE	2.39	77	2.98	75	0.8	75	-3.1	0	0	993.4	NA	0.0000		9999	7050	0	0	0
2017/06/03 06:37:00	BASE	2.28	90	2.98	75	0.9	75	-3.1	0	0	993.4	NA	0.0000		9999	7020	0	0	0
2017/06/03 06:38:00	BASE	2.01	99	2.98	75	0.9	74	-3.1	0	0	993.4	NA	0.0000		9999	7020	0	0	0
2017/06/03 06:39:00	BASE	2.01	100	2.98	75	0.9	74	-3.2	0	0	993.3	NA	0.0000		9999	7050	0	0	0
2017/06/03 06:40:00	BASE	2.61	96	3.50	87	0.9	74	-3.2	0	0	993.3	NA	0.0000		9999	4560	7020	0	0
2017/06/03 06:41:00	BASE	3.33	88	3.70	85	0.8	74	-3.2	0	0	993.3	NA	0.0000		9999	4590	5840	7020	0
2017/06/03 06:42:00	BASE	3.70	85	4.01	86	0.8	75	-3.2	0	0	993.3	NA	0.0000		9999	4630	6990	0	0
2017/06/03 06:43:00	BASE	3.93	85	4.12	88	0.8	75	-3.2	0	0	993.3	NA	0.0000		9999	4760	5870	7050	0
2017/06/03 06:44:00	BASE	3.94	86	4.12	88	0.8	75	-3.1	0	0	993.3	NA	0.0000		9999	4890	5870	0	0
2017/06/03 06:45:00	BASE	3.82	86	4.12	88	0.8	75	-3.2	0	0	993.3	NA	0.0000		9999	4330	4920	5910	0
2017/06/03 06:46:00	BASE	3.90	87	4.22	88	0.9	75	-3.1	0	0	993.3	NA	0.0000		9999	4300	5910	0	0
2017/06/03 06:47:00	BASE	4.12	88	4.32	91	0.9	74	-3.2	0	0	993.3	NA	0.0000		9999	4330	5970	0	0
2017/06/03 06:48:00	BASE	4.18	90	4.37	92	0.9	74	-3.2	0	0	993.3	NA	0.0000		9999	4330	5940	6990	0
2017/06/03 06:49:00	BASE	3.99	91	4.37	92	0.9	73	-3.3	0	0	993.3	NA	0.0000		9999	4330	5970	0	0
2017/06/03 06:50:00	BASE	3.94	90	4.48	92	0.9	73	-3.4	0	0	993.3	NA	0.0000		9999	4270	5970	0	0
2017/06/03 06:51:00	BASE	4.28	91	4.68	93	0.8	73	-3.4	0	0	993.3	NA	0.0000		9999	4170	0	0	0
2017/06/03 06:52:00	BASE	4.23	94	4.68	93	0.8	74	-3.4	0	0	993.2	NA	0.0000		9999	4170	0	0	0
2017/06/03 06:53:00	BASE	3.77	102	4.68	93	0.8	74	-3.3	0	0	993.2	NA	0.0000		9999	4130	0	0	0
2017/06/03 06:54:00	BASE	3.35	110	4.68	93	0.9	74	-3.3	0	0	993.2	NA	0.0000		9999	4070	6890	0	0
2017/06/03 06:55:00	BASE	3.18	110	4.68	93	1.0	73	-3.2	0	0	993.2	NA	0.0000		9999	4100	6070	6890	0
2017/06/03 06:56:00	BASE	3.33	106	4.68	93	1.1	73	-3.3	0	0	993.2	NA	0.0000		9999	4100	5970	6860	0
2017/06/03 06:57:00	BASE	3.41	104	4.68	93	1.1	72	-3.3	0	0	993.1	NA	0.0000		9999	4100	6960	0	0
2017/06/03 06:58:00	BASE	3.40	102	4.68	93	1.2	72	-3.3	0	0	993.0	NA	0.0000		9999	4070	6920	0	0
2017/06/03 06:59:00	BASE	3.33	102	4.68	93	1.3	72	-3.3	0	0	993.0	NA	0.0000		9999	4130	6890	0	0
2017/06/03 07:00:00	BASE	3.19	102	4.68	93	1.3	71	-3.3	0	0	993.0	NA	0.0000		9999	4170	6920	0	0
2017/06/03 07:01:00	BASE	3.31	104	4.27	94	1.3	71	-3.3	0	0	993.0	NA	0.0000		9999	4230	6460	0	0
2017/06/03 07:02:00	BASE	3.61	108	3.96	113	1.4	71	-3.3	0	0	992.9	NA	0.0000		9999	4170	6460	0	0
2017/06/03 07:03:00	BASE	3.45	115	3.96	113	1.4	71	-3.3	0	0	992.9	NA	0.0000		9999	4130	5410	0	0
2017/06/03 07:04:00	BASE	3.04	123	3.96	113	1.4	71	-3.2	0	0	992.9	NA	0.0000		9999	4490	5220	6300	0
2017/06/03 07:05:00	BASE	2.56	122	3.96	113	1.4	71	-3.3	0	0	992.9	NA	0.0000		9999	4630	5050	6270	0
2017/06/03 07:06:00	BASE	2.59	113	3.96	113	1.4	71	-3.2	0	0	992.9	NA	0.0000		9999	4560	0	0	0
2017/06/03 07:07:00	BASE	2.74	108	3.96	113	1.4	71	-3.2	0	0	992.9	NA	0.0000		9999	4270	0	0	0
2017/06/03 07:08:01	BASE	2.96	105	3.96	113	1.4	71	-3.2	0	0	992.9	NA	0.0000		9999	4200	0	0	0
2017/06/03 07:09:00	BASE	3.48	107	3.96	113	1.4	72	-3.2	0	0	992.9	NA	0.0000		9999	4200	0	0	0
2017/06/03 07:10:00	BASE	3.48	115	3.96	113	1.5	72	-3.1	0	0	992.9	NA	0.0000		9999	4300	0	0	0
2017/06/03 07:11:00	BASE	3.17	117	3.96	113	1.6	71	-3.1	0	0	992.9	NA	0.0000		9999	4230	0	0	0
2017/06/03 07:12:00	BASE	2.96	113	3.91	113	1.6	71	-3.1	0	0	992.9	NA	0.0000		9999	4230	0	0	0
2017/06/03 07:13:00	BASE	2.93	109	3.91	113	1.6	71	-3.1	0	0	992.9	NA	0.0000		9999	4200	0	0	0
2017/06/03 07:14:00	BASE	2.91	110	3.91	113	1.6	71	-3.2	0	0	992.9	NA	0.0000		9999	4200	0	0	0
2017/06/03 07:15:00	BASE	2.79	112	3.91	113	1.6	71	-3.2	0	0	992.9	NA	0.0000		9999	4200	0	0	0
2017/06/03 07:16:00	BASE	2.69	112	3.91	113	1.5	71	-3.2	0	0	992.9	NA	0.0000		9999	4130	0	0	0
2017/06/03 07:17:00	BASE	2.57	110	3.91	113	1.5	71	-3.2	0	0	992.9	NA	0.0000		9999	4230	0	0	0
2017/06/03 07:18:00	BASE	2.43	106	3.91	113	1.5	71	-3.2	0	0	992.9	NA	0.0000		9999	4230	0	0	0
2017/06/03 07:19:00	BASE	2.19	104	3.70	119	1.5	71	-3.2	0	0	992.9	NA	0.0000		9999	4230	0	0	0
2017/06/03 07:20:00	BASE	1.79	107	3.29	120	1.5	71	-3.2	0	0	992.9	NA	0.0000		9999	4200	0	0	0
2017/06/03 07:21:00	BASE	1.68	115	3.24	102	1.4	72	-3.2	0	0	992.9	NA	0.0000		9999	4270	0	0	0
2017/06/03 07:22:00	BASE	1.75	118	3.24	102	1.4	72	-3.1	0	0	992.8	NA	0.0000		9999	4300	0	0	0
2017/06/03 07:23:00	BASE	1.81	119	3.14	113	1.4	72	-3.1	0	0	992.8	NA	0.0000		9999	4360	0	0	0
2017/06/03 07:24:00	BASE	1.79	127	2.88	112	1.4	72	-3.1	0	0	992.8	NA	0.0000		9999	4360	0	0	0
2017/06/03 07:25:00	BASE	1.55	135	2.78	107	1.4	72	-3.1	0	0	992.8	NA	0.0000		9999	4400	0	0	0
2017/06/03 07:26:00	BASE	1.18	139	2.78	107	1.4	72	-3.1	0	0	992.8	NA	0.0000		9999	4360	0	0	0
2017/06/03 07:27:00	BASE	0.48	131	2.78	107	1.4	72	-3.1	0	0	992.8	NA	0.0000		9999	4330	0	0	0
2017/06/03 07:28:00	BASE	0.24	111	2.31	105	1.4	72	-3.1	0	0	992.8	NA	0.0000		9999	4230	0	0	0
2017/06/03 07:29:00	BASE	0.69	95	2.16	126	1.4	72	-3.1	0	0	992.8	NA	0.0000		9999	4270	0	0	0
2017/06/03 07:30:00	BASE	0.50	84	2.16	126	1.4	72	-3.1	0	0	992.8	NA	0.0000		9999	4270	0	0	0
2017/06/03 07:31:00	BASE	0.05	76	2.11	119	1.4	72	-3.1	0	0	992.7	NA	0.0000		9999	4330	0	0	0
2017/06/03 07:32:00	BASE	0.00	73	2.06	118	1.4	72	-3.1	0	0	992.7	NA	0.0000		9999	4400	0	0	0
2017/06/03 07:33:00	BASE	0.00	104	2.01	131	1.4	72	-3.1	0	0	992.7	NA	0.0000		9999	4430	0	0	0
2017/06/03 07:34:00	BASE	0.00	136	1.65	135	1.4	72	-3.1	0	0	992.7	NA	0.0000		9999	4430	0	0	0
2017/06/03 07:35:00	BASE	0.04	130	1.44	141	1.4	72	-3.1	0	0	992.7	NA	0.0000		9999	4430	0	0	0
2017/06/03 07:36:00	BASE	0.19	104	1.39	95	1.4	72	-3.1	0	0	992.7	NA	0.0000		9999	4460	0	0	0
2017/06/03 07:37:00	BASE	0.62	80	1.44	68	1.4	72	-3.1	0	0	992.7	NA	0.0000		9999	4430	0	0	0
2017/06/03 07:38:00	BASE	0.66	68	1.44	68	1.4	72	-3.1	0	0	992.6	NA	0.0000		9999	4430	0	0	0
2017/06/03 07:39:00	BASE	0.18	54	1.44	68	1.4	72	-3.1	0	0	992.7	NA	0.0000		9999	4400	0	0	0
2017/06/03 07:40:00	BASE	0.00	45	1.44	68	1.5	71	-3.2	0	0	992.6	NA	0.0000		9999	4430	0	0	0
2017/06/03 07:41:00	BASE	0.00	43	1.44	68	1.5	71	-3.2	0	0	992.6	NA	0.0000		9999	4430	0	0	0
2017/06/03 07:42:00	BASE	0.50	8	1.44	323	1.5	71	-3.3	0	0	992.6	NA	0.0000		9999	4460	0	0	0
2017/06/03 07:43:00	BASE	0.87	321	1.44	323	1.4	71	-3.3	0	0	992.6	NA	0.0000		9999	4400	0	0	0
2017/06/03 07:44:00	BASE	1.02	306	1.65	304	1.4	71	-3.3	0	0	992.6	NA	0.0000		9999	4300	0	0	0
2017/06/03 07:45:00	BASE	0.82	301	1.65	304	1.3	72	-3.3	0	0	992.6	NA	0.0000		9999	4300	0	0	0
2017/06/03 07:46:00	BASE	0.22	298	1.65	304	1.1	72	-3.3	0	0	992.6	NA	0.0000		9999	4400	0	0	0
2017/06/03 07:47:00	BASE	0.52	298	1.65	304	1.1	73	-3.2	0	0	992.6	NA	0.0000		9999	4330	0	0	0
2017/06/03 07:48:00	BASE	1.20	300	1.75	302	1.0	74	-3.2	0	0	992.6	NA	0.0000		9999	4530	0	0	0
2017/06/03 07:49:00	BASE	1.80	297	2.88	293	1.0	74	-3.2	0	0	992.6	NA	0.0000		9999	4400	0	0	0
2017/06/03 07:50:00	BASE	2.20	292	2.88	293	1.0	74	-3.1	0	0	992.5	NA	0.0000		9999	4330	4990	0	0
2017/06/03 07:51:00	BASE	2.14	288	2.88	293	0.9	75	-3.1	0	0	992.5	NA	0.0000		9999	4360	0	0	0
2017/06/03 07:52:00	BASE	2.17	293	2.88	293	0.8	75	-3.1	0	0	992.5	NA	0.0000		9999	4300	0	0	0
2017/06/03 07:53:00	BASE	1.99	290	2.88	293	0.7	76	-3.0	0	0	992.6	NA	0.0000		9999	4330	0	0	0
2017/06/03 07:54:00	BASE	1.54	282	2.88	293	0.5	78	-2.9	0	0	992.6	NA	0.0000		9999	4430	0	0	0
2017/06/03 07:55:00	BASE	1.62	288	2.88	293	0.4	79	-2.8	0	0	992.6	NA	0.0000		9999	4330	0	0	0
2017/06/03 07:56:00	BASE	1.80	302	2.88	293	0.3	80	-2.7	0	0	992.6	NA	0.0000		9999	4330	0	0	0
2017/06/03 07:57:00	BASE	1.76	314	2.88	293	0.3	81	-2.7	0	0	992.6	NA	0.0000		9999	4460	0	0	0
2017/06/03 07:58:00	BASE	2.25	312	3.04	307	0.2	81	-2.6	0	0	992.5	NA	0.0000		9999	4300	0	0	0
2017/06/03 07:59:00	BASE	2.78	307	3.04	306	0.2	82	-2.5	0	0	992.4	NA	0.0000		9999	4300	0	0	0
2017/06/03 08:00:00	BASE	2.70	306	3.04	306	0.2	82	-2.5	0	0	992.4	NA	0.0000		9999	4400	0	0	0
2017/06/03 08:01:00	BASE	2.45	307	3.04	306	0.1	83	-2.5	0	0	992.4	NA	0.0000		9999	4230	0	0	0
2017/06/03 08:02:00	BASE	2.30	311	3.04	306	0.1	83	-2.4	0	0	992.3	NA	0.0000		9999	4400	0	0	0
2017/06/03 08:03:00	BASE	2.35	317	3.04	306	0.1	84	-2.4	0	0	992.3	NA	0.0000		9999	4330	0	0	0
2017/06/03 08:04:00	BASE	2.45	320	3.04	306	0.0	84	-2.4	0	0	992.3	NA	0.0000		9999	4300	0	0	0
2017/06/03 08:05:00	BASE	2.25	319	3.04	306	-0.0	84	-2.4	0	0	992.3	NA	0.0000		9999	4430	0	0	0
2017/06/03 08:06:00	BASE	2.02	320	3.04	306	-0.0	84	-2.4	0	0	992.3	NA	0.0000		9999	4400	0	0	0
2017/06/03 08:07:00	BASE	1.94	322	3.04	306	-0.1	85	-2.3	0	0	992.3	NA	0.0000		9999	4330	0	0	0
2017/06/03 08:08:00	BASE	2.01	322	3.04	306	-0.1	85	-2.3	0	0	992.3	NA	0.0000		9999	4330	0	0	0
2017/06/03 08:09:00	BASE	2.18	321	2.78	308	-0.1	86	-2.2	0	0	992.3	NA	0.0000		9999	4300	0	0	0
2017/06/03 08:10:00	BASE	2.28	317	2.62	320	-0.1	86	-2.2	0	0	992.3	NA	0.0000		9999	4330	0	0	0
2017/06/03 08:11:00	BASE	2.41	311	2.62	311	-0.1	86	-2.1	0	0	992.3	NA	0.0000		9999	4300	0	0	0
2017/06/03 08:12:00	BASE	2.51	311	2.68	313	-0.1	86	-2.1	0	0	992.3	NA	0.0000		9999	4330	0	0	0
2017/06/03 08:13:00	BASE	2.36	315	2.68	313	-0.1	87	-2.1	0	0	992.3	NA	0.0000		9999	4230	0	0	0
2017/06/03 08:14:00	BASE	2.07	317	2.68	313	-0.1	87	-2.0	0	0	992.2	NA	0.0000		9999	4270	0	0	0
2017/06/03 08:15:00	BASE	1.98	316	2.68	313	-0.1	87	-2.0	0	0	992.2	NA	0.0000		9999	4270	0	0	0
2017/06/03 08:16:00	BASE	1.99	319	2.68	313	-0.1	87	-2.0	0	0	992.3	NA	0.0000		9999	4360	0	0	0
2017/06/03 08:17:00	BASE	2.01	321	2.68	313	-0.2	87	-2.1	0	0	992.3	NA	0.0000		9999	4300	0	0	0
2017/06/03 08:18:00	BASE	1.85	316	2.68	313	-0.2	87	-2.1	0	0	992.2	NA	0.0000		9999	4400	0	0	0
2017/06/03 08:19:00	BASE	1.61	305	2.68	313	-0.2	87	-2.1	0	0	992.2	NA	0.0000		9999	4300	0	0	0
2017/06/03 08:20:00	BASE	1.37	288	2.68	313	-0.1	87	-2.0	0	0	992.2	NA	0.0000		9999	4400	0	0	0
2017/06/03 08:21:00	BASE	1.23	261	2.68	313	-0.1	87	-2.0	0	0	992.2	NA	0.0000		9999	4400	0	0	0
2017/06/03 08:22:00	BASE	1.37	234	2.37	314	-0.1	87	-2.0	0	0	992.2	NA	0.0000		9999	4460	0	0	0
2017/06/03 08:23:00	BASE	1.63	222	2.11	323	-0.1	87	-2.0	0	0	992.1	NA	0.0000		9999	4490	0	0	0
2017/06/03 08:24:00	BASE	1.63	221	2.11	323	-0.1	87	-2.0	0	0	992.1	NA	0.0000		9999	4400	0	0	0
2017/06/03 08:25:00	BASE	1.04	222	2.11	323	-0.1	87	-2.0	0	0	992.1	NA	0.0000		9999	4330	0	0	0
2017/06/03 08:26:00	BASE	0.29	232	2.11	323	-0.1	87	-2.0	0	0	992.1	NA	0.0000		9999	4400	0	0	0
2017/06/03 08:27:00	BASE	0.00	255	1.85	221	-0.1	87	-2.0	0	0	992.2	NA	0.0000		9999	4330	0	0	0
2017/06/03 08:28:00	BASE	0.19	273	1.85	221	-0.1	87	-2.0	0	0	992.1	NA	0.0000		9999	5120	0	0	0
2017/06/03 08:29:00	BASE	0.77	277	1.85	221	-0.1	87	-2.0	0	0	992.1	NA	0.0000		9999	4300	5090	0	0
2017/06/03 08:30:00	BASE	1.20	277	1.85	221	-0.1	87	-2.0	0	0	992.1	NA	0.0000		9999	5050	0	0	0
2017/06/03 08:31:00	BASE	1.39	280	1.85	221	-0.0	87	-2.0	0	0	992.0	NA	0.0000		9999	4990	0	0	0
2017/06/03 08:32:00	BASE	1.68	284	2.11	287	0.0	87	-2.0	0	0	992.0	NA	0.0000		9999	4430	0	0	0
2017/06/03 08:33:00	BASE	1.92	287	2.11	291	0.0	86	-2.0	0	0	992.0	NA	0.0000		9999	4760	0	0	0
2017/06/03 08:34:00	BASE	1.99	291	2.11	291	-0.0	86	-2.0	0	0	992.0	NA	0.0000		9999	4720	0	0	0
2017/06/03 08:35:00	BASE	1.81	299	2.11	291	-0.1	86	-2.1	0	0	992.0	NA	0.0000		9999	4690	0	0	0
2017/06/03 08:36:00	BASE	1.67	309	2.11	291	-0.1	86	-2.1	0	0	992.1	NA	0.0000		9999	4690	0	0	0
2017/06/03 08:37:00	BASE	1.71	314	2.11	291	-0.2	87	-2.1	0	0	992.1	NA	0.0000		9999	4690	0	0	0
2017/06/03 08:38:00	BASE	1.56	306	2.11	291	-0.2	87	-2.1	0	0	992.1	NA	0.0000		9999	4630	0	0	0
2017/06/03 08:39:00	BASE	1.13	294	2.11	291	-0.3	88	-2.1	0	0	992.1	NA	0.0000		9000	4460	0	0	0
2017/06/03 08:40:00	BASE	0.45	289	2.11	291	-0.3	88	-2.0	0	0	992.1	NA	0.0000		9999	4430	0	0	0
2017/06/03 08:41:00	BASE	0.00	289	2.11	291	-0.3	88	-2.0	0	0	992.1	NA	0.0000		9999	4460	0	0	0
2017/06/03 08:42:00	BASE	0.00	289	2.11	291	-0.3	89	-1.9	0	0	992.1	NA	0.0000		9999	4270	0	0	0
2017/06/03 08:43:00	BASE	0.00	289	2.01	297	-0.3	89	-1.9	0	0	992.0	NA	0.0000		9999	4040	0	0	0
2017/06/03 08:44:00	BASE	0.00	289	2.01	297	-0.2	89	-1.8	0	0	992.0	NA	0.0000		9999	3710	0	0	0
2017/06/03 08:45:00	BASE	0.00	289	1.90	314	-0.2	89	-1.8	0	0	992.0	NA	0.0000		9999	3710	0	0	0
2017/06/03 08:46:00	BASE	0.00	289	1.90	314	-0.2	89	-1.8	0	0	991.9	NA	0.0000		9999	3510	0	0	0
2017/06/03 08:47:00	BASE	0.00	289	1.54	296	-0.1	89	-1.8	0	0	991.8	NA	0.0000		9999	3450	0	0	0
2017/06/03 08:48:00	BASE	0.13	296	1.29	289	-0.1	88	-1.8	0	0	991.8	NA	0.0000		9999	4070	0	0	0
2017/06/03 08:49:00	BASE	0.83	321	1.85	345	-0.1	88	-1.8	0	0	991.8	NA	0.0000		9999	3840	0	0	0
2017/06/03 08:50:00	BASE	1.72	343	2.21	349	-0.0	88	-1.8	0	0	991.8	NA	0.0000		9999	3900	0	0	0
2017/06/03 08:51:00	BASE	2.01	348	2.21	349	-0.0	88	-1.9	0	0	991.8	NA	0.0000		9999	4170	0	0	0
2017/06/03 08:52:00	BASE	1.70	349	2.21	349	-0.0	87	-1.9	0	0	991.8	NA	0.0000		9999	3770	0	0	0
2017/06/03 08:53:00	BASE	0.93	351	2.21	349	-0.1	87	-1.9	0	0	991.8	NA	0.0000		9999	3900	0	0	0
2017/06/03 08:54:00	BASE	0.22	359	2.21	349	-0.1	87	-2.0	0	0	991.8	NA	0.0000		9999	3450	0	0	0
2017/06/03 08:55:00	BASE	0.41	18	2.21	349	-0.1	87	-2.0	0	0	991.8	NA	0.0000		9999	3380	0	0	0
2017/06/03 08:56:00	BASE	1.07	31	2.21	349	-0.1	87	-2.0	0	0	991.8	NA	0.0000		9999	4630	0	0	0
2017/06/03 08:57:00	BASE	1.41	27	2.21	349	-0.1	87	-2.0	0	0	991.8	NA	0.0000		9999	5120	0	0	0
2017/06/03 08:58:00	BASE	1.52	23	2.21	349	-0.0	87	-1.9	0	0	991.8	NA	0.0000		9999	3450	0	0	0
2017/06/03 08:59:00	BASE	1.33	27	2.21	349	0.0	87	-1.9	0	0	991.8	NA	0.0000		9999	5380	0	0	0
2017/06/03 09:00:00	BASE	0.70	42	2.21	349	0.1	86	-1.9	0	0	991.8	NA	0.0000		9999	5350	0	0	0
2017/06/03 09:01:00	BASE	0.47	61	1.65	20	0.1	86	-1.9	0	0	991.8	NA	0.0000		9999	5770	0	0	0
2017/06/03 09:02:00	BASE	0.95	72	1.65	20	0.1	86	-2.0	0	0	991.7	NA	0.0000		9999	5380	0	0	0
2017/06/03 09:03:00	BASE	1.36	73	1.75	67	0.1	85	-2.0	0	0	991.7	NA	0.0000		9999	3510	0	0	0
2017/06/03 09:04:00	BASE	1.53	62	1.75	67	0.2	85	-2.0	0	0	991.7	NA	0.0000		9999	5120	0	0	0
2017/06/03 09:05:00	BASE	1.82	46	2.31	42	0.2	85	-2.0	0	0	991.8	NA	0.0000		9999	5150	0	0	0
2017/06/03 09:06:00	BASE	2.27	43	2.52	46	0.2	85	-2.0	0	0	991.8	NA	0.0000		9999	3150	0	0	0
2017/06/03 09:07:00	BASE	2.37	44	2.52	46	0.3	84	-2.1	0	0	991.7	NA	0.0000		9999	2850	0	0	0
2017/06/03 09:08:00	BASE	2.09	37	2.52	46	0.3	84	-2.1	0	0	991.7	NA	0.0000		9999	5610	0	0	0
2017/06/03 09:09:00	BASE	1.77	34	2.52	46	0.3	83	-2.1	0	0	991.7	NA	0.0000		9999	5610	0	0	0
2017/06/03 09:10:00	BASE	1.58	37	2.52	46	0.4	83	-2.2	0	0	991.7	NA	0.0000		9999	3250	0	0	0
2017/06/03 09:11:00	BASE	1.40	40	2.52	46	0.4	82	-2.2	0	0	991.7	NA	0.0000		9999	5610	0	0	0
2017/06/03 09:12:00	BASE	1.21	38	2.52	46	0.4	82	-2.3	0	0	991.7	NA	0.0000		9999	5680	0	0	0
2017/06/03 09:13:00	BASE	1.27	44	2.52	46	0.5	82	-2.3	0	0	991.7	NA	0.0000		9999	5810	0	0	0
2017/06/03 09:14:00	BASE	1.46	51	2.52	46	0.5	82	-2.3	0	0	991.7	NA	0.0000		9999	4590	5770	0	0
2017/06/03 09:15:00	BASE	1.43	51	2.52	46	0.5	81	-2.3	0	0	991.7	NA	0.0000		9999	6140	0	0	0
2017/06/03 09:16:00	BASE	1.25	53	2.42	45	0.5	81	-2.4	0	0	991.7	NA	0.0000		9999	5770	0	0	0
2017/06/03 09:17:00	BASE	0.62	55	2.21	39	0.6	81	-2.4	0	0	991.7	NA	0.0000		9999	4890	0	0	0
2017/06/03 09:18:00	BASE	0.04	55	1.75	30	0.6	80	-2.4	0	0	991.6	NA	0.0000		9999	4230	5120	0	0
2017/06/03 09:19:00	BASE	0.00	63	1.70	41	0.6	80	-2.5	0	0	991.6	NA	0.0000		9999	5250	0	0	0
2017/06/03 09:20:00	BASE	0.00	72	1.65	52	0.7	79	-2.5	0	0	991.6	NA	0.0000		9999	5120	0	0	0
2017/06/03 09:21:00	BASE	0.00	72	1.65	52	0.7	79	-2.5	0	0	991.6	NA	0.0000		9999	5120	0	0	0
2017/06/03 09:22:00	BASE	0.00	73	1.65	52	0.7	79	-2.6	0	0	991.6	NA	0.0000		9999	4920	0	0	0
2017/06/03 09:23:00	BASE	0.00	72	1.65	52	0.8	78	-2.6	0	0	991.6	NA	0.0000		9999	5410	0	0	0
2017/06/03 09:24:00	BASE	0.00	69	1.54	56	0.8	78	-2.6	0	0	991.6	NA	0.0000		9999	3940	0	0	0
2017/06/03 09:25:00	BASE	0.04	80	1.54	56	0.8	77	-2.7	0	0	991.5	NA	0.0000		9999	5250	0	0	0
2017/06/03 09:26:00	BASE	0.59	114	1.29	140	0.8	77	-2.8	0	0	991.5	NA	0.0000		9999	5180	0	0	0
2017/06/03 09:27:00	BASE	1.17	140	1.34	147	0.8	77	-2.8	0	0	991.5	NA	0.0000		9999	5150	0	0	0
2017/06/03 09:28:00	BASE	0.95	144	1.34	147	0.7	77	-2.9	0	0	991.5	NA	0.0000		9999	4990	0	0	0
2017/06/03 09:29:00	BASE	0.41	132	1.34	147	0.6	78	-2.9	0	0	991.5	NA	0.0000		9999	3770	0	0	0
2017/06/03 09:30:00	BASE	0.09	123	1.34	147	0.5	78	-2.9	0	0	991.5	NA	0.0000		9999	3180	0	0	0
2017/06/03 09:31:00	BASE	0.00	115	1.34	147	0.4	79	-2.8	0	0	991.5	NA	0.0000		9999	5020	0	0	0
2017/06/03 09:32:00	BASE	0.00	122	1.34	147	0.4	79	-2.7	0	0	991.5	NA	0.0000		9999	5020	0	0	0
2017/06/03 09:33:00	BASE	0.00	141	1.34	147	0.4	80	-2.7	0	0	991.5	NA	0.0000		9999	4920	0	0	0
2017/06/03 09:34:00	BASE	0.00	132	1.34	147	0.4	80	-2.7	0	0	991.5	NA	0.0000		9999	4920	0	0	0
2017/06/03 09:35:00	BASE	0.00	114	1.34	147	0.5	80	-2.6	0	0	991.5	NA	0.0000		9999	5090	0	0	0
2017/06/03 09:36:00	BASE	0.00	111	1.34	147	0.5	79	-2.7	0	0	991.5	NA	0.0000		9999	5120	0	0	0
2017/06/03 09:37:00	BASE	0.00	111	1.29	147	0.6	79	-2.7	0	0	991.5	NA	0.0000		9999	5090	0	0	0
2017/06/03 09:38:00	BASE	0.00	111	1.08	126	0.6	78	-2.7	0	0	991.5	NA	0.0000		9999	4920	0	0	0
2017/06/03 09:39:00	BASE	0.00	129	M	M	0.6	78	-2.8	0	0	991.5	NA	0.0000		9999	4690	0	0	0
2017/06/03 09:40:00	BASE	0.00	251	M	M	0.6	78	-2.8	0	0	991.4	NA	0.0000		9999	4630	0	0	0
2017/06/03 09:41:00	BASE	0.41	271	1.34	279	0.6	78	-2.8	0	0	991.4	NA	0.0000		9999	4690	0	0	0
2017/06/03 09:42:00	BASE	1.05	279	1.39	277	0.6	78	-2.8	0	0	991.4	NA	0.0000		9999	4790	0	0	0
2017/06/03 09:43:00	BASE	0.99	277	1.39	277	0.6	78	-2.8	0	0	991.4	NA	0.0000		9999	4790	0	0	0
2017/06/03 09:44:00	BASE	0.45	285	1.39	277	0.5	78	-2.8	0	0	991.4	NA	0.0000		9999	4790	0	0	0
2017/06/03 09:45:00	BASE	0.09	291	1.39	277	0.5	78	-2.8	0	0	991.4	NA	0.0000		9999	4660	0	0	0
2017/06/03 09:46:00	BASE	0.00	293	1.39	277	0.5	78	-2.8	0	0	991.4	NA	0.0000		9999	4760	0	0	0
2017/06/03 09:47:00	BASE	0.00	299	1.39	277	0.5	79	-2.8	0	0	991.4	NA	0.0000		9999	4720	0	0	0
2017/06/03 09:48:00	BASE	0.00	319	1.39	277	0.4	79	-2.8	0	0	991.4	NA	0.0000		9999	4760	0	0	0
2017/06/03 09:49:00	BASE	0.27	346	1.39	277	0.4	79	-2.8	0	0	991.4	NA	0.0000		9999	4720	0	0	0
2017/06/03 09:50:00	BASE	0.31	358	1.39	277	0.3	79	-2.9	0	0	991.3	NA	0.0000		9999	4890	0	0	0
2017/06/03 09:51:00	BASE	0.09	351	1.39	277	0.2	80	-2.8	0	0	991.3	NA	0.0000		9999	4720	0	0	0
2017/06/03 09:52:00	BASE	0.04	331	1.18	1	0.2	80	-2.8	0	0	991.3	NA	0.0000		9999	4270	0	0	0
2017/06/03 09:53:00	BASE	0.00	317	1.18	1	0.2	81	-2.7	0	0	991.3	NA	0.0000		9999	3740	0	0	0
2017/06/03 09:54:00	BASE	0.00	315	1.18	1	0.2	81	-2.7	0	0	991.3	NA	0.0000		9999	3740	0	0	0
2017/06/03 09:55:00	BASE	0.00	315	1.18	1	0.3	81	-2.6	0	0	991.3	NA	0.0000		9999	3640	0	0	0
2017/06/03 09:56:00	BASE	0.00	315	1.18	1	0.4	81	-2.6	0	0	991.3	NA	0.0000		9999	3940	0	0	0
2017/06/03 09:57:00	BASE	0.00	319	1.18	1	0.5	80	-2.6	0	0	991.4	NA	0.0000		9999	4330	0	0	0
2017/06/03 09:58:00	BASE	0.00	333	1.18	1	0.6	79	-2.6	0	0	991.3	NA	0.0000		9999	4360	0	0	0
2017/06/03 09:59:00	BASE	0.29	335	1.49	302	0.7	78	-2.7	0	0	991.3	NA	0.0000		9999	4460	0	0	0
2017/06/03 10:00:00	BASE	1.10	310	1.85	288	0.7	77	-2.8	0	0	991.3	NA	0.0000		9999	4460	0	0	0
2017/06/03 10:01:00	BASE	1.62	290	1.85	288	0.6	77	-2.9	0	0	991.2	NA	0.0000		9999	4430	0	0	0
2017/06/03 10:02:00	BASE	1.59	282	1.85	288	0.5	78	-3.0	0	0	991.2	NA	0.0000		9999	4430	0	0	0
2017/06/03 10:03:00	BASE	1.58	275	1.85	288	0.3	79	-3.0	0	0	991.2	NA	0.0000		9999	4400	0	0	0
2017/06/03 10:04:00	BASE	1.52	271	1.85	288	0.1	80	-2.9	0	0	991.2	NA	0.0000		9999	4330	0	0	0
2017/06/03 10:05:00	BASE	1.49	274	1.85	288	-0.1	82	-2.8	0	0	991.2	NA	0.0000		9999	4360	0	0	0
2017/06/03 10:06:00	BASE	1.64	279	2.21	278	-0.1	83	-2.6	0	0	991.1	NA	0.0000		9999	4360	0	0	0
2017/06/03 10:07:00	BASE	2.06	285	2.62	293	-0.2	84	-2.5	0	0	991.1	NA	0.0000		9999	4330	0	0	0
2017/06/03 10:08:00	BASE	2.40	292	2.93	299	-0.2	85	-2.4	0	0	991.0	NA	0.0000		9999	4490	0	0	0
2017/06/03 10:09:00	BASE	2.42	300	2.93	299	-0.2	86	-2.3	0	0	991.0	NA	0.0000		8000	4530	0	0	0
2017/06/03 10:10:00	BASE	2.28	309	2.93	299	-0.2	86	-2.2	0	0	991.0	NA	0.0000		9000	4300	0	0	0
2017/06/03 10:11:00	BASE	1.96	309	2.93	299	-0.3	87	-2.2	0	0	991.0	NA	0.0000		9000	4230	0	0	0
2017/06/03 10:12:00	BASE	1.93	305	2.93	299	-0.3	88	-2.1	0	0	991.0	NA	0.0000		9000	4100	0	0	0
2017/06/03 10:13:00	BASE	1.95	307	2.93	299	-0.3	88	-2.0	0	0	991.0	NA	0.0000		9000	4070	0	0	0
2017/06/03 10:14:00	BASE	1.71	308	2.93	299	-0.3	89	-2.0	0	0	991.0	NA	0.0000	BR	9000	4070	0	0	0
2017/06/03 10:15:00	BASE	1.56	304	2.93	299	-0.4	89	-1.9	0	0	991.0	NA	0.0000	BR	9000	3870	0	0	0
2017/06/03 10:16:00	BASE	1.50	300	2.93	299	-0.4	90	-1.9	0	0	991.0	NA	0.0000	BR	9000	4070	0	0	0
2017/06/03 10:17:00	BASE	1.61	300	2.93	299	-0.4	90	-1.9	0	0	991.0	NA	0.0000	BR	9000	4200	0	0	0
2017/06/03 10:18:00	BASE	1.75	298	2.62	310	-0.4	90	-1.8	0	0	991.0	NA	0.0000	BR	9999	1080	0	0	0
2017/06/03 10:19:00	BASE	1.80	297	2.37	311	-0.4	90	-1.8	0	0	991.0	NA	0.0000	BR	9999	920	0	0	0
2017/06/03 10:20:00	BASE	1.74	302	2.21	305	-0.4	91	-1.7	0	0	991.0	NA	0.0000	BR	9999	4330	0	0	0
2017/06/03 10:21:00	BASE	0.83	319	2.21	305	-0.4	91	-1.7	0	0	991.0	NA	0.0000	BR	9999	4200	0	0	0
2017/06/03 10:22:00	BASE	0.00	328	2.06	307	-0.4	91	-1.7	0	0	991.0	NA	0.0000	BR	9999	2200	0	0	0
2017/06/03 10:23:00	BASE	0.00	303	2.06	307	-0.4	91	-1.7	0	0	991.0	NA	0.0000	BR	9999	4200	0	0	0
2017/06/03 10:24:00	BASE	0.47	288	2.06	307	-0.4	91	-1.7	0	0	991.0	NA	0.0000	BR	9000	4070	0	0	0
2017/06/03 10:25:00	BASE	1.13	306	2.06	307	-0.4	91	-1.7	0	0	991.0	NA	0.0000	BR	9999	4040	0	0	0
2017/06/03 10:26:00	BASE	1.31	325	2.06	307	-0.4	91	-1.7	0	0	991.0	NA	0.0000	BR	9999	4100	0	0	0
2017/06/03 10:27:00	BASE	1.28	337	2.06	307	-0.4	91	-1.7	0	0	991.0	NA	0.0000	BR	9999	4130	0	0	0
2017/06/03 10:28:00	BASE	0.86	340	2.06	307	-0.4	91	-1.6	0	0	990.9	NA	0.0000	BR	9999	4170	0	0	0
2017/06/03 10:29:00	BASE	0.24	340	2.06	307	-0.3	91	-1.6	0	0	990.9	NA	0.0000	BR	9999	4270	0	0	0
2017/06/03 10:30:00	BASE	0.00	339	1.44	326	-0.3	91	-1.6	0	0	990.8	NA	0.0000		9999	4230	0	0	0
2017/06/03 10:31:00	BASE	0.00	303	1.44	326	-0.3	91	-1.6	0	0	990.8	NA	0.0000		9999	4170	0	0	0
2017/06/03 10:32:00	BASE	0.04	259	1.44	326	-0.3	91	-1.5	0	0	990.8	NA	0.0000		9999	4130	0	0	0
2017/06/03 10:33:00	BASE	0.04	256	1.44	326	-0.3	91	-1.6	0	0	990.8	NA	0.0000		9999	4170	0	0	0
2017/06/03 10:34:00	BASE	0.00	262	1.44	326	-0.3	91	-1.6	0	0	990.8	NA	0.0000		9000	4270	0	0	0
2017/06/03 10:35:00	BASE	0.00	307	1.39	330	-0.3	91	-1.6	0	0	990.9	NA	0.0000		9999	4170	0	0	0
2017/06/03 10:36:00	BASE	0.00	356	1.29	340	-0.3	91	-1.6	0	0	990.8	NA	0.0000		9999	4230	0	0	0
2017/06/03 10:37:00	BASE	0.00	0	1.29	340	-0.3	91	-1.6	0	0	990.8	NA	0.0000		9999	4270	0	0	0
2017/06/03 10:38:00	BASE	0.00	349	1.03	250	-0.3	91	-1.6	0	0	990.7	NA	0.0000		9999	4330	0	0	0
2017/06/03 10:39:00	BASE	0.31	267	1.08	235	-0.3	91	-1.6	0	0	990.7	NA	0.0000		9999	4270	0	0	0
2017/06/03 10:40:00	BASE	0.31	235	1.08	235	-0.3	91	-1.6	0	0	990.7	NA	0.0000		9999	4200	0	0	0
2017/06/03 10:41:00	BASE	0.00	235	1.08	235	-0.3	91	-1.6	0	0	990.7	NA	0.0000		9999	4200	0	0	0
2017/06/03 10:42:00	BASE	0.18	273	1.13	331	-0.3	91	-1.6	0	0	990.8	NA	0.0000		9999	4230	0	0	0
2017/06/03 10:43:00	BASE	0.87	327	1.65	331	-0.3	91	-1.6	0	0	990.9	NA	0.0000		9999	4230	0	0	0
2017/06/03 10:44:00	BASE	1.29	340	1.65	331	-0.3	91	-1.6	0	0	990.8	NA	0.0000		9999	4100	0	0	0
2017/06/03 10:45:00	BASE	0.94	338	1.65	331	-0.3	91	-1.6	0	0	990.8	NA	0.0000		9999	3770	0	0	0
2017/06/03 10:46:00	BASE	0.69	330	1.65	331	-0.3	91	-1.6	0	0	990.8	NA	0.0000		9999	3740	0	0	0
2017/06/03 10:47:00	BASE	0.37	331	1.65	331	-0.4	91	-1.6	0	0	990.7	NA	0.0000		9999	3640	0	0	0
2017/06/03 10:48:00	BASE	0.04	326	1.65	331	-0.4	91	-1.7	0	0	990.7	NA	0.0000		9999	4130	0	0	0
2017/06/03 10:49:00	BASE	0.46	311	1.65	331	-0.4	91	-1.7	0	0	990.7	NA	0.0000		9999	4200	0	0	0
2017/06/03 10:50:00	BASE	1.02	316	1.65	331	-0.4	91	-1.7	0	0	990.7	NA	0.0000		9999	4200	0	0	0
2017/06/03 10:51:00	BASE	1.01	335	1.65	331	-0.4	91	-1.6	0	0	990.7	NA	0.0000		9999	4040	0	0	0
2017/06/03 10:52:00	BASE	0.40	343	1.65	331	-0.4	91	-1.6	0	0	990.7	NA	0.0000		9999	4000	0	0	0
2017/06/03 10:53:00	BASE	0.00	347	1.54	343	-0.4	91	-1.6	0	0	990.7	NA	0.0000		9999	1540	0	0	0
2017/06/03 10:54:00	BASE	0.00	352	1.34	345	-0.4	91	-1.7	0	0	990.7	NA	0.0000		9999	3970	0	0	0
2017/06/03 10:55:00	BASE	0.00	355	1.34	345	-0.4	91	-1.7	0	0	990.7	NA	0.0000		9999	3840	0	0	0
2017/06/03 10:56:00	BASE	0.00	141	1.34	345	-0.4	91	-1.7	0	0	990.7	NA	0.0000		9000	3940	0	0	0
2017/06/03 10:57:00	BASE	0.00	165	1.34	345	-0.5	91	-1.7	0	0	990.7	NA	0.0000		9999	3900	0	0	0
2017/06/03 10:58:00	BASE	0.00	165	1.34	345	-0.5	91	-1.7	0	0	990.7	NA	0.0000		9999	3870	0	0	0
2017/06/03 10:59:00	BASE	0.00	165	1.34	345	-0.5	91	-1.7	0	0	990.7	NA	0.0000		9999	2720	0	0	0
2017/06/03 11:00:00	BASE	0.00	179	1.34	345	-0.4	91	-1.6	0	0	990.7	NA	0.0000		9999	2460	0	0	0
2017/06/03 11:01:00	BASE	0.00	281	M	M	-0.4	91	-1.6	0	0	990.7	NA	0.0000		9999	4130	0	0	0
2017/06/03 11:02:00	BASE	0.00	309	M	M	-0.3	91	-1.5	0	0	990.7	NA	0.0000		9999	3940	0	0	0
2017/06/03 11:03:00	BASE	0.00	318	M	M	-0.2	91	-1.5	0	0	990.7	NA	0.0000		9999	0	0	0	3870
2017/06/03 11:04:00	BASE	0.00	323	M	M	-0.2	91	-1.4	0	0	990.7	NA	0.0000		9999	1570	0	0	0
2017/06/03 11:05:00	BASE	0.04	321	1.03	323	-0.1	90	-1.5	0	0	990.7	NA	0.0000		9999	3540	0	0	0
2017/06/03 11:06:00	BASE	0.56	317	1.85	300	-0.0	90	-1.5	0	0	990.7	NA	0.0000		9999	3640	0	0	0
2017/06/03 11:07:00	BASE	1.41	310	2.06	299	0.0	89	-1.6	0	0	990.7	NA	0.0000		9999	560	0	0	0
2017/06/03 11:08:00	BASE	1.75	308	2.06	299	0.0	88	-1.7	0	0	990.7	NA	0.0000		9999	390	0	0	0
2017/06/03 11:09:00	BASE	1.52	311	2.06	299	0.0	88	-1.8	0	0	990.7	NA	0.0000		8000	3480	0	0	0
2017/06/03 11:10:00	BASE	1.21	309	2.06	299	-0.0	87	-1.9	0	0	990.7	NA	0.0000		7000	3640	0	0	0
2017/06/03 11:11:00	BASE	1.02	302	2.06	299	-0.0	87	-1.9	0	0	990.7	NA	0.0000	UP	8000	0	0	0	4070
2017/06/03 11:12:00	BASE	0.61	298	2.06	299	-0.1	87	-1.9	0	0	990.6	NA	0.0000	UP	9999	3580	0	0	0
2017/06/03 11:13:00	BASE	0.80	298	2.06	299	-0.1	88	-1.9	0	0	990.6	NA	0.0000	UP	9999	3410	0	0	0
2017/06/03 11:14:00	BASE	1.45	304	2.06	299	-0.1	88	-1.9	0	0	990.6	NA	0.0000	UP	9999	3480	0	0	0
2017/06/03 11:15:00	BASE	1.62	314	2.06	299	-0.2	88	-1.9	0	0	990.7	NA	0.0000	UP BR	9999	3450	0	0	0
2017/06/03 11:16:00	BASE	1.64	317	2.06	299	-0.2	88	-1.9	0	0	990.6	NA	0.0000	UP BR	9999	3280	0	0	0
2017/06/03 11:17:00	BASE	1.59	319	1.90	299	-0.3	88	-2.0	0	0	990.7	NA	0.0000	UP BR	9999	3280	0	0	0
2017/06/03 11:18:00	BASE	1.30	324	1.90	299	-0.3	89	-2.0	0	0	990.7	NA	0.0000	UP BR	9999	3410	0	0	0
2017/06/03 11:19:00	BASE	0.57	319	1.90	299	-0.4	89	-2.0	0	0	990.7	NA	0.0000	UP BR	9999	2820	0	0	0
2017/06/03 11:20:00	BASE	0.05	312	1.90	299	-0.4	89	-1.9	0	0	990.7	NA	0.0000	UP	9999	2920	0	0	0
2017/06/03 11:21:00	BASE	0.23	319	1.90	299	-0.4	89	-1.9	0	0	990.7	NA	0.0000		9999	0	0	0	300
2017/06/03 11:22:00	BASE	0.56	337	1.90	299	-0.4	90	-1.9	0	0	990.7	NA	0.0000		9999	1570	0	0	0
2017/06/03 11:23:00	BASE	0.64	3	1.90	299	-0.4	90	-1.8	0	0	990.8	NA	0.0000		9999	1380	0	0	0
2017/06/03 11:24:00	BASE	0.35	24	1.90	299	-0.3	90	-1.8	0	0	990.8	NA	0.0000		9999	1310	0	0	0
2017/06/03 11:25:00	BASE	0.04	24	1.90	299	-0.3	90	-1.8	0	0	990.8	NA	0.0000		9999	690	0	0	0
2017/06/03 11:26:00	BASE	0.00	5	1.90	299	-0.3	90	-1.8	0	0	990.8	NA	0.0000		9999	490	1570	0	0
2017/06/03 11:27:00	BASE	0.00	349	1.23	320	-0.3	90	-1.7	0	0	990.8	NA	0.0000		9000	390	0	0	0
2017/06/03 11:28:00	BASE	0.14	346	1.18	352	-0.3	90	-1.7	0	0	990.8	NA	0.0000	UP BR	5000	330	3350	0	0
2017/06/03 11:29:00	BASE	0.14	348	1.18	352	-0.3	90	-1.7	0	0	990.8	NA	0.0000	UP BR	4700	300	0	0	0
2017/06/03 11:30:00	BASE	0.00	351	1.18	352	-0.2	90	-1.7	0	0	990.8	NA	0.0000	UP BR	4900	0	0	0	3450
2017/06/03 11:31:00	BASE	0.00	351	1.18	352	-0.2	90	-1.7	0	0	990.8	NA	0.0000	UP BR	4900	0	0	0	3410
2017/06/03 11:32:00	BASE	0.00	351	1.18	352	-0.2	90	-1.7	0	0	990.8	NA	0.0000	UP BR	5000	0	0	0	3410
2017/06/03 11:33:00	BASE	0.00	351	1.18	352	-0.2	90	-1.7	0	0	990.8	NA	0.0000	UP BR	6000	0	0	0	3020
2017/06/03 11:34:00	BASE	0.00	351	1.18	352	-0.2	90	-1.7	0	0	990.9	NA	0.0000	UP BR	6000	0	0	0	2620
2017/06/03 11:35:00	BASE	0.00	351	1.18	352	-0.3	90	-1.7	0	0	990.9	NA	0.0000	UP BR	6000	360	0	0	0
2017/06/03 11:36:00	BASE	0.30	353	1.44	2	-0.3	90	-1.7	0	0	990.9	NA	0.0000	UP BR	6000	330	0	0	0
2017/06/03 11:37:00	BASE	1.18	358	2.11	3	-0.3	90	-1.7	0	0	990.9	NA	0.0000	UP BR	5000	300	0	0	0
2017/06/03 11:38:00	BASE	1.67	354	2.11	3	-0.3	90	-1.7	0	0	990.8	NA	0.0000	UP BR	5000	260	0	0	0
2017/06/03 11:39:00	BASE	1.13	340	2.11	3	-0.3	90	-1.8	0	0	990.8	NA	0.0000	UP BR	3800	0	0	0	2230
2017/06/03 11:40:00	BASE	0.34	330	2.11	3	-0.3	90	-1.8	0	0	990.8	NA	0.0000	UP BR	3300	0	0	0	2170
2017/06/03 11:41:00	BASE	0.55	325	2.11	3	-0.3	90	-1.8	0	0	990.8	NA	0.0000	-SN BR	3400	0	0	0	2130
2017/06/03 11:42:00	BASE	1.18	319	2.11	3	-0.3	90	-1.8	0	0	990.8	NA	0.0000	-SN BR	2700	0	0	0	2360
2017/06/03 11:43:00	BASE	1.32	315	2.11	3	-0.3	90	-1.8	0	0	990.8	NA	0.0000	-SN BR	2300	0	0	0	2260
2017/06/03 11:44:00	BASE	1.30	315	2.11	3	-0.3	90	-1.8	0	0	990.7	NA	0.0000	-SN BR	2600	0	0	0	2100
2017/06/03 11:45:00	BASE	1.01	315	2.11	3	-0.4	90	-1.7	0	0	990.7	NA	0.0000	-SN BR	3000	0	0	0	2130
2017/06/03 11:46:00	BASE	0.44	315	2.11	3	-0.4	91	-1.7	0	0	990.8	NA	0.0000	-SN BR	2400	0	0	0	2430
2017/06/03 11:47:00	BASE	0.04	315	1.75	351	-0.4	91	-1.7	0	0	990.8	NA	0.0000	-SN BR	2100	0	0	0	2360
2017/06/03 11:48:00	BASE	0.00	315	1.44	315	-0.4	91	-1.7	0	0	990.8	NA	0.0000	-SN BR	2300	0	0	0	2170
2017/06/03 11:49:00	BASE	0.27	302	1.44	315	-0.4	91	-1.6	0	0	990.8	NA	0.0000	-SN BR	2600	0	0	0	2130
2017/06/03 11:50:00	BASE	0.32	289	1.44	315	-0.4	92	-1.6	0	0	990.8	NA	0.0000	-SN BR	3100	0	0	0	1970
2017/06/03 11:51:00	BASE	0.04	289	1.44	315	-0.4	92	-1.6	0	0	990.8	NA	0.0000	-SN BR	2700	0	0	0	1900
2017/06/03 11:52:00	BASE	0.23	289	1.44	315	-0.4	92	-1.5	0	0	990.8	NA	0.0000	-SN BR	2000	260	0	0	0
2017/06/03 11:53:00	BASE	0.59	289	1.44	315	-0.4	92	-1.5	0	0	990.8	NA	0.0000	-SN BR	1900	260	0	0	0
2017/06/03 11:54:00	BASE	0.36	287	1.18	289	-0.4	92	-1.5	0	0	990.8	NA	0.0000	-SN BR	2200	0	0	0	2690
2017/06/03 11:55:00	BASE	0.00	278	1.18	289	-0.4	93	-1.5	0	0	990.7	NA	0.0000	-SN BR	2300	0	0	0	2760
2017/06/03 11:56:00	BASE	0.50	271	1.44	270	-0.4	93	-1.5	0	0	990.7	NA	0.0000	-SN BR	2800	0	0	0	2890
2017/06/03 11:57:00	BASE	1.20	280	1.44	289	-0.5	93	-1.4	0	0	990.7	NA	0.0000	-SN BR	3300	0	0	0	3020
2017/06/03 11:58:00	BASE	1.33	291	1.44	289	-0.5	93	-1.5	0	0	990.7	NA	0.0000	-SN BR	3700	0	0	0	3050
2017/06/03 11:59:00	BASE	0.97	288	1.44	289	-0.5	93	-1.5	0	0	990.6	NA	0.0000	-SN BR	3800	0	0	0	3220
2017/06/03 12:00:00	BASE	0.33	284	1.44	289	-0.5	93	-1.4	0	0	990.7	NA	0.0000	-SN BR	3800	0	0	0	3250
2017/06/03 12:01:00	BASE	0.00	299	1.44	289	-0.5	94	-1.4	0	0	990.7	NA	0.0000	-SN BR	3900	0	0	0	3180
2017/06/03 12:02:00	BASE	0.13	316	1.44	289	-0.5	94	-1.4	0	0	990.7	NA	0.0000	-SN BR	3800	0	0	0	3220
2017/06/03 12:03:00	BASE	0.13	321	1.44	289	-0.5	94	-1.3	0	0	990.7	NA	0.0000	-SN BR	4100	0	0	0	3380
2017/06/03 12:04:00	BASE	0.00	321	1.44	289	-0.5	94	-1.3	0	0	990.7	NA	0.0000	-SN BR	4200	0	0	0	3250
2017/06/03 12:05:00	BASE	0.00	321	1.44	289	-0.5	94	-1.4	0	0	990.7	NA	0.0000	-SN BR	3900	0	0	0	3310
2017/06/03 12:06:00	BASE	0.00	328	1.44	289	-0.5	94	-1.4	0	0	990.7	NA	0.0000	-SN BR	3800	0	0	0	3410
2017/06/03 12:07:00	BASE	0.09	355	1.39	295	-0.6	94	-1.4	0	0	990.7	NA	0.0000	-SN BR	3700	0	0	0	3450
2017/06/03 12:08:00	BASE	0.09	29	1.29	282	-0.6	94	-1.4	0	0	990.7	NA	0.0000	-SN BR	3700	0	0	0	3410
2017/06/03 12:09:00	BASE	0.00	44	1.08	320	-0.6	94	-1.4	0	0	990.7	NA	0.0000	-SN BR	3700	0	0	0	3150
2017/06/03 12:10:00	BASE	0.00	42	1.08	320	-0.6	95	-1.4	0	0	990.7	NA	0.0000	-SN BR	3500	0	0	0	3180
2017/06/03 12:11:00	BASE	0.00	39	1.08	320	-0.6	95	-1.3	0	0	990.7	NA	0.0000	-SN BR	3600	0	0	0	3280
2017/06/03 12:12:00	BASE	0.00	37	1.03	10	-0.6	95	-1.3	0	0	990.7	NA	0.0000	-SN BR	4000	520	0	0	0
2017/06/03 12:13:01	BASE	0.00	35	1.03	10	-0.6	95	-1.3	0	0	990.7	NA	0.0000	-SN BR	4300	1210	0	0	0
2017/06/03 12:14:00	BASE	0.00	30	1.03	10	-0.6	95	-1.3	0	0	990.6	NA	0.0000	-SN BR	4400	0	0	0	3410
2017/06/03 12:15:00	BASE	0.00	306	1.03	10	-0.6	95	-1.3	0	0	990.5	NA	0.0000	-SN BR	4100	0	0	0	3250
2017/06/03 12:16:00	BASE	0.00	243	1.03	10	-0.6	95	-1.3	0	0	990.5	NA	0.0000	-SN BR	4300	0	0	0	3150
2017/06/03 12:17:00	BASE	0.00	256	M	M	-0.6	95	-1.3	0	0	990.5	NA	0.0000	-SN BR	4800	0	0	0	3050
2017/06/03 12:18:00	BASE	0.00	252	M	M	-0.6	95	-1.3	0	0	990.5	NA	0.0000	-SN BR	4600	0	0	0	3180
2017/06/03 12:19:00	BASE	0.00	222	M	M	-0.6	95	-1.3	0	0	990.5	NA	0.0000	-SN BR	4400	0	0	0	3080
2017/06/03 12:20:00	BASE	0.00	193	M	M	-0.6	95	-1.3	0	0	990.5	NA	0.0000	-SN BR	4400	0	0	0	3080
2017/06/03 12:21:00	BASE	0.00	179	M	M	-0.6	95	-1.3	0	0	990.5	NA	0.0000	-SN BR	5000	0	0	0	3180
2017/06/03 12:22:00	BASE	0.04	174	1.03	174	-0.7	95	-1.3	0	0	990.5	NA	0.0000	-SN BR	6000	0	0	0	3250
2017/06/03 12:23:00	BASE	0.04	174	1.03	174	-0.7	96	-1.3	0	0	990.5	NA	0.0000	-SN BR	9000	0	0	0	3280
2017/06/03 12:24:00	BASE	0.00	174	1.03	174	-0.7	96	-1.3	0	0	990.5	NA	0.0000	-SN BR	6000	0	0	0	3280
2017/06/03 12:25:00	BASE	0.00	174	1.03	174	-0.7	96	-1.2	0	0	990.5	NA	0.0000	-SN BR	5000	0	0	0	3180
2017/06/03 12:26:00	BASE	0.00	174	1.03	174	-0.7	96	-1.2	0	0	990.5	NA	0.0000	-SN BR	9000	0	0	0	3220
2017/06/03 12:27:00	BASE	0.00	174	1.03	174	-0.7	96	-1.2	0	0	990.5	NA	0.0000	-SN BR	9000	0	0	0	3250
2017/06/03 12:28:00	BASE	0.00	174	1.03	174	-0.6	96	-1.2	0	0	990.5	NA	0.0000	-SN BR	5000	0	0	0	3180
2017/06/03 12:29:00	BASE	0.00	174	1.03	174	-0.7	96	-1.2	0	0	990.5	NA	0.0000	-SN BR	5000	0	0	0	3150
2017/06/03 12:30:00	BASE	0.00	174	1.03	174	-0.6	96	-1.2	0	0	990.4	NA	0.0000	-SN BR	4800	0	0	0	3250
2017/06/03 12:31:00	BASE	0.00	174	1.03	174	-0.6	96	-1.2	0	0	990.4	NA	0.0000	-SN BR	3600	0	0	0	3180
2017/06/03 12:32:00	BASE	0.00	174	M	M	-0.6	96	-1.2	0	0	990.4	NA	0.0000	-SN BR	3500	0	0	0	3180
2017/06/03 12:33:00	BASE	0.00	172	M	M	-0.6	96	-1.2	0	0	990.4	NA	0.0000	-SN BR	3200	0	0	0	3250
2017/06/03 12:34:00	BASE	0.00	170	M	M	-0.6	96	-1.2	0	0	990.4	NA	0.0000	-SN BR	3300	0	0	0	3180
2017/06/03 12:35:00	BASE	0.00	153	M	M	-0.6	96	-1.2	0	0	990.4	NA	0.0000	-SN BR	4400	0	0	0	3050
2017/06/03 12:36:00	BASE	0.00	114	M	M	-0.6	96	-1.1	0	0	990.4	NA	0.0000	-SN BR	6000	0	0	0	3020
2017/06/03 12:37:00	BASE	0.00	84	M	M	-0.6	96	-1.1	0	0	990.4	NA	0.0000	-SN BR	5000	0	0	0	2950
2017/06/03 12:38:00	BASE	0.00	76	M	M	-0.6	96	-1.1	0	0	990.4	NA	0.0000	-SN BR	4800	0	0	0	2790
2017/06/03 12:39:00	BASE	0.00	83	M	M	-0.6	96	-1.1	0	0	990.4	NA	0.0000	-SN BR	5000	390	0	0	0
2017/06/03 12:40:00	BASE	0.29	182	1.29	214	-0.5	96	-1.0	0	0	990.4	NA	0.0000	-SN BR	5000	360	0	0	0
2017/06/03 12:41:00	BASE	0.29	203	1.29	214	-0.5	96	-1.0	0	0	990.4	NA	0.0000	-SN BR	4000	260	0	0	0
2017/06/03 12:42:00	BASE	0.00	169	1.29	214	-0.5	97	-1.0	0	0	990.4	NA	0.0000	-SN BR	3300	260	0	0	0
2017/06/03 12:43:00	BASE	0.00	132	1.29	214	-0.5	97	-0.9	0	0	990.4	NA	0.0000	-SN BR	3700	0	0	0	2850
2017/06/03 12:44:00	BASE	0.00	118	1.29	214	-0.4	97	-0.8	0	0	990.4	NA	0.0000	-SN BR	4500	0	0	0	2890
2017/06/03 12:45:00	BASE	0.04	45	1.29	214	-0.5	97	-0.9	0	0	990.4	NA	0.0000	-SN BR	4000	0	0	0	2850
2017/06/03 12:46:00	BASE	0.04	29	1.29	214	-0.5	97	-1.0	0	0	990.4	NA	0.0000	-SN BR	3400	0	0	0	2990
2017/06/03 12:47:00	BASE	0.00	54	1.29	214	-0.6	97	-1.0	0	0	990.3	NA	0.0000	-SN BR	3400	0	0	0	3020
2017/06/03 12:48:00	BASE	0.00	56	1.29	214	-0.6	97	-1.0	0	0	990.3	NA	0.0000	-SN BR	3400	0	0	0	2790
2017/06/03 12:49:00	BASE	0.00	69	1.29	214	-0.5	97	-1.0	0	0	990.3	NA	0.0000	-SN BR	3600	0	0	0	2820
2017/06/03 12:50:00	BASE	0.00	93	1.03	3	-0.4	97	-0.8	0	0	990.3	NA	0.0000	-SN BR	3800	0	0	0	2920
2017/06/03 12:51:00	BASE	0.00	109	1.03	3	-0.3	97	-0.7	0	0	990.3	NA	0.0000	-SN BR	3700	0	0	0	2890
2017/06/03 12:52:00	BASE	0.00	113	1.03	3	-0.3	97	-0.7	0	0	990.3	NA	0.0000	-SN BR	4600	0	0	0	2890
2017/06/03 12:53:00	BASE	0.00	113	1.03	3	-0.2	97	-0.6	0	0	990.3	NA	0.0000	-SN BR	5000	0	0	0	2950
2017/06/03 12:54:00	BASE	0.00	113	1.03	3	-0.3	97	-0.7	0	0	990.3	NA	0.0000	-SN BR	5000	0	0	0	2790
2017/06/03 12:55:00	BASE	0.00	113	M	M	-0.3	97	-0.7	0	0	990.3	NA	0.0000	-SN BR	5000	0	0	0	2820
2017/06/03 12:56:00	BASE	0.00	113	M	M	-0.4	97	-0.8	0	0	990.3	NA	0.0000	-SN BR	4300	0	0	0	2590
2017/06/03 12:57:00	BASE	0.00	113	M	M	-0.4	97	-0.8	0	0	990.2	NA	0.0000	-SN BR	3500	0	0	0	2490
2017/06/03 12:58:00	BASE	0.00	97	M	M	-0.4	97	-0.8	0	0	990.3	NA	0.0000	-SN BR	3600	0	0	0	2430
2017/06/03 12:59:00	BASE	0.00	306	M	M	-0.5	97	-0.9	0	0	990.2	NA	0.0000	-SN BR	3600	0	0	0	2330
2017/06/03 13:00:00	BASE	0.00	252	M	M	-0.5	97	-0.9	0	0	990.2	NA	0.0000	-SN BR	3700	0	0	0	2400
2017/06/03 13:01:00	BASE	0.00	222	M	M	-0.5	97	-1.0	0	0	990.3	NA	0.0000	-SN BR	3800	0	0	0	2430
2017/06/03 13:02:00	BASE	0.14	216	1.13	212	-0.6	97	-1.0	0	0	990.2	NA	0.0000	-SN BR	4000	0	0	0	2230
2017/06/03 13:03:00	BASE	0.14	208	1.13	212	-0.6	97	-1.1	0	0	990.2	NA	0.0000	-SN BR	3900	0	0	0	2300
2017/06/03 13:04:00	BASE	0.00	206	1.13	212	-0.6	97	-1.0	0	0	990.3	NA	0.0000	-SN BR	3500	0	0	0	2720
2017/06/03 13:05:00	BASE	0.04	196	1.13	212	-0.5	97	-0.9	0	0	990.3	NA	0.0000	-SN BR	3600	0	0	0	2820
2017/06/03 13:06:00	BASE	0.72	177	1.49	170	-0.4	97	-0.8	0	0	990.2	NA	0.0000	-SN BR	3500	0	0	0	2890
2017/06/03 13:07:00	BASE	1.49	179	1.75	192	-0.3	97	-0.7	0	0	990.2	NA	0.0000	-SN BR	3300	0	0	0	2660
2017/06/03 13:08:00	BASE	1.50	186	1.75	192	-0.2	97	-0.6	0	0	990.2	NA	0.0000	-SN BR	3600	0	0	0	2720
2017/06/03 13:09:00	BASE	1.32	180	1.75	192	-0.2	97	-0.6	0	0	990.2	NA	0.0000	-SN BR	4900	0	0	0	2760
2017/06/03 13:10:00	BASE	1.41	179	1.75	192	-0.2	97	-0.7	0	0	990.2	NA	0.0000	-SN BR	7000	0	0	0	2660
2017/06/03 13:11:00	BASE	1.64	183	1.95	183	-0.3	96	-0.8	0	0	990.2	NA	0.0000	-SN BR	8000	0	0	0	2690
2017/06/03 13:12:00	BASE	1.88	181	2.11	178	-0.4	96	-0.9	0	0	990.2	NA	0.0000	-SN BR	7000	0	0	0	2660
2017/06/03 13:13:00	BASE	1.84	177	2.11	178	-0.5	96	-1.0	0	0	990.2	NA	0.0000	-SN BR	5000	0	0	0	2560
2017/06/03 13:14:00	BASE	1.43	173	2.11	178	-0.5	96	-1.0	0	0	990.2	NA	0.0000	-SN BR	5000	0	0	0	2400
2017/06/03 13:15:00	BASE	1.24	166	2.11	178	-0.6	97	-1.0	0	0	990.2	NA	0.0000	-SN BR	5000	0	0	0	2430
2017/06/03 13:16:00	BASE	1.30	155	2.11	178	-0.6	97	-1.0	0	0	990.2	NA	0.0000	-SN BR	5000	0	0	0	2590
2017/06/03 13:17:00	BASE	1.21	150	2.11	178	-0.6	97	-1.0	0	0	990.2	NA	0.0000	-SN BR	5000	0	0	0	2590
2017/06/03 13:18:00	BASE	0.94	154	2.11	178	-0.6	97	-1.0	0	0	990.2	NA	0.0000	-SN BR	4500	0	0	0	2850
2017/06/03 13:19:00	BASE	0.55	155	2.11	178	-0.6	97	-1.0	0	0	990.2	NA	0.0000	-SN BR	3600	0	0	0	3150
2017/06/03 13:20:00	BASE	0.78	161	2.11	178	-0.6	97	-1.0	0	0	990.1	NA	0.0000	-SN BR	2700	0	0	0	4070
2017/06/03 13:21:00	BASE	1.00	168	2.11	178	-0.6	97	-1.0	0	0	990.1	NA	0.0000	-SN BR	2400	0	0	0	360
2017/06/03 13:22:00	BASE	0.40	169	1.85	175	-0.6	97	-1.0	0	0	990.1	NA	0.0000	-SN BR	3300	0	0	0	360
2017/06/03 13:23:00	BASE	0.00	169	1.54	160	-0.6	97	-1.0	0	0	990.2	NA	0.0000	-SN BR	4700	0	0	0	4040
2017/06/03 13:24:00	BASE	0.00	193	1.54	160	-0.6	97	-1.0	0	0	990.2	NA	0.0000	-SN BR	5000	0	0	0	5450
2017/06/03 13:25:00	BASE	0.00	234	1.54	160	-0.6	97	-1.0	0	0	990.2	NA	0.0000	-SN BR	6000	0	0	0	3900
2017/06/03 13:26:00	BASE	0.40	216	1.54	160	-0.6	97	-1.0	0	0	990.1	NA	0.0000	-SN BR	6000	0	0	0	2620
2017/06/03 13:27:00	BASE	1.12	187	1.49	188	-0.6	97	-1.0	0	0	990.1	NA	0.0000	-SN BR	6000	0	0	0	2620
2017/06/03 13:28:00	BASE	1.43	184	1.59	184	-0.5	97	-0.9	0	0	990.1	NA	0.0000	-SN BR	7000	0	0	0	2990
2017/06/03 13:29:00	BASE	1.32	185	1.59	184	-0.4	97	-0.9	0	0	990.1	NA	0.0000	-SN BR	8000	0	0	0	3740
2017/06/03 13:30:00	BASE	0.92	183	1.59	184	-0.3	97	-0.8	0	0	990.1	NA	0.0000	-SN BR	8000	0	0	0	3220
2017/06/03 13:31:00	BASE	0.77	181	1.59	184	-0.3	97	-0.7	0	0	990.1	NA	0.0000	-SN BR	6000	0	0	0	3150
2017/06/03 13:32:00	BASE	0.55	177	1.59	184	-0.2	97	-0.6	0	0	990.1	NA	0.0000	-SN BR	4300	0	0	0	3510
2017/06/03 13:33:00	BASE	0.09	175	1.59	184	-0.1	97	-0.5	0	0	990.1	NA	0.0000	-SN BR	3500	0	0	0	3450
2017/06/03 13:34:00	BASE	0.00	171	1.59	184	-0.1	97	-0.5	0	0	990.1	NA	0.0000	-SN BR	3300	0	0	0	3380
2017/06/03 13:35:00	BASE	0.00	164	1.59	184	-0.1	97	-0.5	0	0	990.1	NA	0.0000	-SN BR	3300	0	0	0	3120
2017/06/03 13:36:00	BASE	0.00	195	1.59	184	-0.0	97	-0.5	0	0	990.1	NA	0.0000	-SN BR	4600	0	0	0	3220
2017/06/03 13:37:00	BASE	0.00	239	1.59	184	-0.0	97	-0.5	0	0	990.0	NA	0.0000	-SN BR	9000	0	0	0	3410
2017/06/03 13:38:00	BASE	0.19	243	1.54	189	-0.0	97	-0.4	0	0	990.0	NA	0.0000	-SN BR	9999	0	0	0	3350
2017/06/03 13:39:00	BASE	0.88	227	1.65	213	-0.0	97	-0.4	0	0	989.9	NA	0.0000	-SN BR	9999	460	0	0	0
2017/06/03 13:40:00	BASE	1.17	225	1.65	213	0.0	97	-0.4	0	0	989.9	NA	0.0000	-SN BR	9999	0	0	0	330
2017/06/03 13:41:00	BASE	0.69	231	1.65	213	-0.0	97	-0.4	0	0	989.9	NA	0.0000	-SN BR	9999	0	0	0	390
2017/06/03 13:42:00	BASE	0.21	259	1.65	213	-0.0	97	-0.4	0	0	990.0	NA	0.0000	-SN BR	9999	2660	0	0	0
2017/06/03 13:43:00	BASE	0.00	296	1.65	213	-0.0	97	-0.5	0	0	990.0	NA	0.0000	-SN BR	9999	5910	0	0	0
2017/06/03 13:44:00	BASE	0.00	288	1.65	213	-0.0	97	-0.5	0	0	989.9	NA	0.0000	-SN BR	9999	5910	0	0	0
2017/06/03 13:45:00	BASE	0.00	276	1.65	213	-0.0	97	-0.5	0	0	990.0	NA	0.0000	-SN	9999	5940	0	0	0
2017/06/03 13:46:00	BASE	0.00	295	1.65	213	-0.0	97	-0.4	0	0	990.1	NA	0.0000	-SN	9999	6170	0	0	0
2017/06/03 13:47:00	BASE	0.00	330	1.65	213	-0.0	97	-0.4	0	0	990.1	NA	0.0000	-SN	9999	6370	0	0	0
2017/06/03 13:48:00	BASE	0.00	324	1.65	213	-0.0	97	-0.4	0	0	990.1	NA	0.0000	-SN	9999	7450	0	0	0
2017/06/03 13:49:00	BASE	0.14	282	1.49	231	-0.0	97	-0.4	0	0	990.0	NA	0.0000	-SN	9999	6590	7420	0	0
2017/06/03 13:50:00	BASE	0.63	273	1.49	231	-0.0	97	-0.4	0	0	990.0	NA	0.0000		9999	5940	7380	0	0
2017/06/03 13:51:00	BASE	1.03	281	1.39	279	-0.0	97	-0.4	0	0	990.1	NA	0.0000		9999	6040	0	0	0
2017/06/03 13:52:00	BASE	0.58	280	1.39	279	-0.0	97	-0.4	0	0	990.1	NA	0.0000		9999	6660	0	0	0
2017/06/03 13:53:00	BASE	0.04	289	1.39	279	-0.0	97	-0.4	0	0	990.1	NA	0.0000		9999	3900	6230	0	0
2017/06/03 13:54:00	BASE	0.09	283	1.39	279	0.0	97	-0.4	0	0	990.0	NA	0.0000		9999	6400	0	0	0
2017/06/03 13:55:00	BASE	0.09	257	1.39	279	0.1	97	-0.4	0	0	989.9	NA	0.0000		9999	6530	0	0	0
2017/06/03 13:56:00	BASE	0.25	253	1.39	258	0.1	97	-0.3	0	0	989.9	NA	0.0000		9999	6560	0	0	0
2017/06/03 13:57:00	BASE	0.43	242	1.39	258	0.1	97	-0.3	1	0	989.9	NA	0.0000		9999	6500	0	0	0
2017/06/03 13:58:00	BASE	0.23	217	1.39	258	0.1	97	-0.3	1	0	989.9	NA	0.0000		9999	0	0	0	0
2017/06/03 13:59:00	BASE	0.39	213	1.39	209	0.1	97	-0.3	1	0	989.9	NA	0.0000		9999	6820	0	0	0
2017/06/03 14:00:00	BASE	0.54	213	1.39	209	0.1	97	-0.3	1	0	989.9	NA	0.0000		9999	6630	0	0	0
2017/06/03 14:01:00	BASE	0.94	196	1.70	185	0.1	97	-0.3	1	0	990.0	NA	0.0000		9999	6890	0	0	0
2017/06/03 14:02:00	BASE	0.84	190	1.70	185	0.1	97	-0.3	1	0	990.0	NA	0.0000		9999	6820	0	0	0
2017/06/03 14:03:00	BASE	0.14	213	1.70	185	0.1	97	-0.3	1	0	989.9	NA	0.0000		9999	6860	0	0	0
2017/06/03 14:04:00	BASE	0.04	231	1.70	185	0.1	97	-0.3	1	0	989.9	NA	0.2540		9999	6270	0	0	0
2017/06/03 14:05:00	BASE	0.39	222	1.70	185	0.2	97	-0.3	1	0	989.9	NA	0.0000		9999	6000	0	0	0
2017/06/03 14:06:00	BASE	0.79	213	1.70	185	0.2	97	-0.3	1	0	989.9	NA	0.0000		9999	5910	0	0	0
2017/06/03 14:07:00	BASE	0.89	229	1.70	185	0.2	96	-0.3	1	0	989.9	NA	0.0000		9999	6200	0	0	0
2017/06/03 14:08:00	BASE	0.49	239	1.70	185	0.2	96	-0.3	1	0	989.9	NA	0.0000		9999	5410	0	0	0
2017/06/03 14:09:00	BASE	0.00	230	1.70	185	0.2	96	-0.3	1	0	989.9	NA	0.0000		9999	5280	0	0	0
2017/06/03 14:10:00	BASE	0.78	221	2.11	219	0.3	96	-0.3	1	0	989.9	NA	0.0000		9999	6040	0	0	0
2017/06/03 14:11:00	BASE	1.63	218	2.11	219	0.3	96	-0.3	1	0	989.9	NA	0.0000		9999	5410	0	0	0
2017/06/03 14:12:00	BASE	1.61	219	2.11	219	0.3	96	-0.3	1	0	989.9	NA	0.0000		9999	6000	0	0	0
2017/06/03 14:13:00	BASE	1.64	211	2.16	197	0.4	95	-0.3	1	1	989.8	NA	0.0000		9999	5090	0	0	0
2017/06/03 14:14:00	BASE	1.87	199	2.16	197	0.4	95	-0.3	1	1	989.9	NA	0.0000		9999	5250	0	0	0
2017/06/03 14:15:00	BASE	1.48	191	2.16	197	0.4	95	-0.3	1	1	989.9	NA	0.0000		9999	5220	0	0	0
2017/06/03 14:16:00	BASE	1.26	185	2.16	197	0.5	94	-0.3	1	1	989.8	NA	0.0000		9999	5320	0	0	0
2017/06/03 14:17:00	BASE	1.62	176	2.16	152	0.4	94	-0.4	1	1	989.8	NA	0.0000		9999	5480	0	0	0
2017/06/03 14:18:00	BASE	1.46	186	2.16	152	0.4	94	-0.5	1	1	989.8	NA	0.0000		9999	5320	0	0	0
2017/06/03 14:19:00	BASE	1.29	200	2.16	152	0.4	93	-0.5	1	1	989.8	NA	0.0000		9999	5350	0	0	0
2017/06/03 14:20:00	BASE	1.37	191	2.16	152	0.4	93	-0.6	1	1	989.8	NA	0.0000		9999	5090	0	0	0
2017/06/03 14:21:00	BASE	1.36	183	2.16	152	0.4	93	-0.6	1	1	989.8	NA	0.0000		9999	5320	0	0	0
2017/06/03 14:22:00	BASE	1.38	173	2.16	152	0.4	93	-0.7	1	1	989.8	NA	0.0000		9999	5350	0	0	0
2017/06/03 14:23:00	BASE	1.25	147	2.37	141	0.4	92	-0.7	1	1	989.8	NA	0.0000		9999	5510	0	0	0
2017/06/03 14:24:00	BASE	2.37	124	4.94	120	0.4	92	-0.7	1	2	989.8	NA	0.0000		9999	4990	0	0	0
2017/06/03 14:25:00	BASE	3.98	121	4.94	116	0.5	92	-0.7	1	2	989.8	NA	0.0000		9999	5090	0	0	0
2017/06/03 14:26:00	BASE	4.04	123	4.94	116	0.6	92	-0.6	1	2	989.7	NA	0.0000		9999	3050	0	0	0
2017/06/03 14:27:00	BASE	3.82	124	4.99	129	0.7	91	-0.6	1	2	989.7	NA	0.0000	UP	9999	4560	0	0	0
2017/06/03 14:28:00	BASE	4.76	126	6.69	132	0.8	90	-0.6	1	3	989.7	NA	0.0000	UP	9999	4860	0	0	0
2017/06/03 14:29:00	BASE	5.80	128	6.69	132	1.0	90	-0.6	2	3	989.7	NA	0.0000	UP	9999	5050	0	0	0
2017/06/03 14:30:00	BASE	5.73	128	6.69	132	1.0	89	-0.6	2	3	989.7	NA	0.0000	UP	9999	4990	0	0	0
2017/06/03 14:31:00	BASE	5.38	128	6.69	132	1.1	88	-0.8	2	3	989.7	NA	0.0000	UP	9999	2070	0	0	0
2017/06/03 14:32:00	BASE	5.35	130	6.69	132	1.1	87	-0.9	2	3	989.7	NA	0.0000	UP	9999	2850	0	0	0
2017/06/03 14:33:00	BASE	5.90	131	7.56	126	1.1	86	-1.0	2	3	989.6	NA	0.0000	UP	9999	4660	0	0	0
2017/06/03 14:34:00	BASE	6.28	129	7.56	126	1.1	85	-1.1	2	3	989.6	NA	0.0000	UP	9999	4890	0	0	0
2017/06/03 14:35:00	BASE	5.63	128	7.56	126	1.1	85	-1.2	2	4	989.7	NA	0.0000	UP	9999	4720	0	0	0
2017/06/03 14:36:00	BASE	5.13	124	7.56	126	1.2	84	-1.2	2	4	989.7	NA	0.0000	UP	9999	4760	0	0	0
2017/06/03 14:37:00	BASE	5.05	122	7.56	126	1.3	83	-1.3	2	4	989.7	NA	0.0000	UP	9999	4860	0	0	0
2017/06/03 14:38:00	BASE	5.14	126	7.56	126	1.3	83	-1.3	2	4	989.7	NA	0.0000	UP	9999	4950	0	0	0
2017/06/03 14:39:00	BASE	5.47	124	7.56	126	1.3	82	-1.4	2	4	989.7	NA	0.0000	UP	9999	4990	0	0	0
2017/06/03 14:40:00	BASE	6.60	125	9.83	127	1.3	82	-1.5	2	4	989.6	NA	0.0000	UP	9999	4990	0	0	0
2017/06/03 14:41:00	BASE	7.18	125	9.83	127	1.3	81	-1.5	2	4	989.6	NA	0.0000	UP	9999	4860	0	0	0
2017/06/03 14:42:00	BASE	6.37	123	9.83	127	1.3	81	-1.6	2	5	989.7	NA	0.0000	UP	9999	4720	0	0	0
2017/06/03 14:43:00	BASE	5.69	128	9.83	127	1.4	81	-1.6	2	5	989.7	NA	0.0000	UP	9999	4860	0	0	0
2017/06/03 14:44:00	BASE	5.28	126	9.83	127	1.4	81	-1.6	2	5	989.7	NA	0.0000	UP	9999	4990	0	0	0
2017/06/03 14:45:00	BASE	4.82	121	9.83	127	1.5	80	-1.5	3	6	989.7	NA	0.0000	UP	9999	5120	0	0	0
2017/06/03 14:46:00	BASE	4.72	122	9.83	127	1.5	80	-1.6	3	6	989.7	NA	0.0000	UP	9999	5020	0	0	0
2017/06/03 14:47:00	BASE	5.39	123	9.83	127	1.5	80	-1.6	3	6	989.7	NA	0.0000	UP	9999	4920	0	0	0
2017/06/03 14:48:00	BASE	5.92	121	9.83	127	1.5	79	-1.7	3	6	989.7	NA	0.0000	UP	9999	5020	0	0	0
2017/06/03 14:49:00	BASE	5.97	120	9.83	127	1.5	79	-1.7	3	8	989.7	NA	0.0000	UP	9999	5450	0	0	0
2017/06/03 14:50:00	BASE	5.37	114	7.41	118	1.5	79	-1.7	3	9	989.7	NA	0.0000	UP	9999	5090	0	0	0
2017/06/03 14:51:00	BASE	5.39	111	6.94	132	1.6	79	-1.7	4	9	989.7	NA	0.0000	UP	9999	5380	0	0	0
2017/06/03 14:52:00	BASE	6.39	118	7.82	120	1.6	79	-1.7	4	10	989.6	NA	0.0000		9999	5450	0	0	0
2017/06/03 14:53:00	BASE	6.61	120	7.82	120	1.6	78	-1.7	4	10	989.6	NA	0.0000		9999	5020	0	0	0
2017/06/03 14:54:00	BASE	6.07	119	7.82	120	1.6	78	-1.8	5	10	989.7	NA	0.0000		9999	5050	0	0	0
2017/06/03 14:55:00	BASE	5.53	117	7.82	120	1.7	78	-1.8	5	11	989.7	NA	0.0000		9999	5050	0	0	0
2017/06/03 14:56:00	BASE	5.42	116	7.82	120	1.7	77	-1.8	5	11	989.7	NA	0.0000		9999	5020	0	0	0
2017/06/03 14:57:00	BASE	5.69	115	7.82	120	1.8	77	-1.8	5	11	989.7	NA	0.0000		9999	5770	0	0	0
2017/06/03 14:58:00	BASE	4.96	102	7.82	120	1.9	77	-1.8	5	11	989.7	NA	0.0000		9999	5910	0	0	0
2017/06/03 14:59:00	BASE	4.58	103	7.82	120	2.0	76	-1.7	5	11	989.7	NA	0.0000		9999	5640	0	0	0
2017/06/03 15:00:00	BASE	4.89	115	7.82	120	2.1	76	-1.8	5	11	989.7	NA	0.0000		9999	2030	0	0	0
2017/06/03 15:01:00	BASE	4.35	115	7.82	120	2.2	75	-1.8	5	11	989.7	NA	0.0000		9999	2170	0	0	0
2017/06/03 15:02:00	BASE	3.79	116	6.74	125	2.2	75	-1.9	5	11	989.7	NA	0.0000		9999	2300	0	0	0
2017/06/03 15:03:00	BASE	2.95	123	6.74	125	2.1	74	-2.0	5	11	989.8	NA	0.0000		9999	2560	0	0	0
2017/06/03 15:04:00	BASE	2.27	118	6.28	118	2.0	74	-2.2	5	12	989.8	NA	0.0000		9999	2720	0	0	0
2017/06/03 15:05:00	BASE	2.60	116	6.28	118	1.8	75	-2.2	5	12	989.8	NA	0.0000		9999	2760	0	0	0
2017/06/03 15:06:00	BASE	3.06	132	6.17	116	1.7	75	-2.2	6	13	989.7	NA	0.0000		9999	2660	0	0	0
2017/06/03 15:07:00	BASE	2.96	144	5.30	117	1.6	76	-2.2	6	13	989.7	NA	0.0000		9999	0	0	0	4130
2017/06/03 15:08:00	BASE	2.08	152	5.30	117	1.5	77	-2.1	6	13	989.8	NA	0.0000	UP	9999	0	0	0	5680
2017/06/03 15:09:00	BASE	0.73	125	5.25	115	1.4	78	-2.1	6	13	989.8	NA	0.0000	UP	9999	0	0	0	5870
2017/06/03 15:10:00	BASE	0.64	101	4.48	110	1.3	79	-2.0	6	14	989.8	NA	0.0000	UP	9999	3250	0	0	0
2017/06/03 15:11:00	BASE	2.06	128	4.12	121	1.3	79	-1.9	7	14	989.8	NA	0.0000	UP	9999	0	0	0	5870
2017/06/03 15:12:00	BASE	2.21	127	3.60	147	1.3	80	-1.8	7	15	989.8	NA	0.0000	UP	9999	5510	0	0	0
2017/06/03 15:13:00	BASE	1.21	107	3.60	147	1.3	80	-1.8	7	15	989.9	NA	0.0000	UP	9999	5050	0	0	0
2017/06/03 15:14:00	BASE	1.35	133	3.60	147	1.4	80	-1.8	7	15	989.8	NA	0.0000	UP	9999	1970	0	0	0
2017/06/03 15:15:00	BASE	1.31	159	3.60	147	1.4	79	-1.8	7	16	989.8	NA	0.0000	UP	9999	4920	0	0	0
2017/06/03 15:16:00	BASE	0.75	120	3.45	137	1.3	79	-1.9	7	16	989.8	NA	0.0000	UP	9999	4890	0	0	0
2017/06/03 15:17:00	BASE	0.40	96	3.45	137	1.2	80	-2.0	7	15	989.8	NA	0.0000	UP	9999	4890	0	0	0
2017/06/03 15:18:00	BASE	0.14	149	3.45	137	1.0	80	-2.0	7	15	989.8	NA	0.0000	UP	9999	4920	0	0	0
2017/06/03 15:19:00	BASE	0.24	204	3.45	137	0.9	81	-2.0	7	15	989.8	NA	0.0000	UP	9999	4890	0	0	0
2017/06/03 15:20:00	BASE	0.70	195	3.45	137	0.9	81	-1.9	7	15	989.8	NA	0.0000	UP	9999	4820	0	0	0
2017/06/03 15:21:00	BASE	1.36	196	3.45	137	0.9	82	-1.9	7	15	989.7	NA	0.0000	UP	9999	5050	0	0	0
2017/06/03 15:22:00	BASE	1.48	228	2.37	176	0.9	82	-1.9	7	15	989.8	NA	0.0000	UP	9999	5680	0	0	0
2017/06/03 15:23:00	BASE	1.29	254	2.37	176	0.9	82	-1.8	7	15	989.8	NA	0.0000	UP	9999	5180	0	0	0
2017/06/03 15:24:00	BASE	1.45	244	2.06	228	0.9	82	-1.8	7	15	989.7	NA	0.0000	UP	9999	1800	0	0	0
2017/06/03 15:25:00	BASE	1.05	226	2.06	228	0.9	82	-1.8	7	16	989.8	NA	0.0000	UP	9999	1740	0	0	0
2017/06/03 15:26:00	BASE	0.24	179	2.06	228	0.8	82	-1.8	7	16	989.8	NA	0.0000	UP	9999	0	0	0	2590
2017/06/03 15:27:00	BASE	0.81	137	2.06	228	0.8	83	-1.8	7	16	989.8	NA	0.0000		9999	0	0	0	2460
2017/06/03 15:28:00	BASE	1.79	145	2.26	156	0.8	83	-1.8	7	16	989.7	NA	0.0000		9999	0	0	0	2530
2017/06/03 15:29:00	BASE	2.03	142	2.31	134	0.8	83	-1.8	7	16	989.7	NA	0.0000		9999	0	0	0	2430
2017/06/03 15:30:00	BASE	1.90	135	2.31	134	0.8	83	-1.7	7	17	989.7	NA	0.0000	UP	9999	0	0	0	2460
2017/06/03 15:31:00	BASE	2.18	132	2.83	122	0.8	83	-1.7	8	17	989.7	NA	0.0000	UP	8000	0	0	0	2460
2017/06/03 15:32:00	BASE	2.34	122	2.83	122	0.9	83	-1.7	8	17	989.7	NA	0.0000	UP	8000	0	0	0	2400
2017/06/03 15:33:00	BASE	2.15	117	2.83	122	1.0	83	-1.6	8	18	989.7	NA	0.0000	UP	9000	0	0	0	2400
2017/06/03 15:34:00	BASE	1.98	121	2.83	122	1.0	83	-1.6	8	18	989.7	NA	0.0000	UP	9999	0	0	0	5510
2017/06/03 15:35:00	BASE	1.94	110	2.83	122	1.1	82	-1.6	8	18	989.7	NA	0.0000	UP	9999	0	0	0	5810
2017/06/03 15:36:00	BASE	2.03	102	2.83	122	1.1	82	-1.7	8	19	989.7	NA	0.0000	UP	9999	5320	0	0	0
2017/06/03 15:37:00	BASE	1.89	126	2.83	122	1.1	82	-1.6	8	19	989.6	NA	0.0000	UP	9999	5450	0	0	0
2017/06/03 15:38:00	BASE	1.74	146	2.83	122	1.2	82	-1.6	9	19	989.6	NA	0.0000	UP	9999	5770	0	0	0
2017/06/03 15:39:00	BASE	1.58	141	2.83	122	1.3	81	-1.6	9	19	989.6	NA	0.0000	UP	9999	5870	0	0	0
2017/06/03 15:40:00	BASE	1.73	143	2.83	122	1.4	81	-1.5	9	19	989.6	NA	0.0000	UP	9999	5410	0	0	0
2017/06/03 15:41:00	BASE	2.03	145	2.73	113	1.5	80	-1.5	9	19	989.6	NA	0.0000	UP	9999	5480	0	0	0
2017/06/03 15:42:00	BASE	1.66	143	2.62	114	1.6	79	-1.6	9	20	989.6	NA	0.0000	UP	9999	5380	0	0	0
2017/06/03 15:43:00	BASE	0.88	165	2.52	99	1.6	79	-1.7	9	20	989.6	NA	0.0000	UP	9999	6140	0	0	0
2017/06/03 15:44:00	BASE	0.35	192	2.52	99	1.6	78	-1.8	9	20	989.6	NA	0.0000	UP	9999	6430	0	0	0
2017/06/03 15:45:00	BASE	0.64	300	2.37	143	1.6	78	-1.7	9	20	989.5	NA	0.0000		9999	6270	0	0	0
2017/06/03 15:46:00	BASE	1.03	301	2.37	143	1.7	78	-1.7	9	20	989.5	NA	0.0000		9999	5510	0	0	0
2017/06/03 15:47:00	BASE	0.52	192	2.37	143	1.8	77	-1.8	9	20	989.6	NA	0.0000		9999	5740	0	0	0
2017/06/03 15:48:00	BASE	0.48	260	2.37	143	1.8	77	-1.8	9	20	989.6	NA	0.0000		9999	5710	0	0	0
2017/06/03 15:49:00	BASE	0.63	298	2.37	143	1.8	77	-1.8	9	20	989.6	NA	0.0000		9999	5640	0	0	0
2017/06/03 15:50:00	BASE	0.38	263	2.37	143	1.7	77	-1.9	9	20	989.6	NA	0.0000		9999	5580	0	0	0
2017/06/03 15:51:00	BASE	0.18	230	2.21	143	1.6	77	-1.9	9	20	989.6	NA	0.0000		9999	5640	0	0	0
2017/06/03 15:52:00	BASE	0.00	187	1.85	337	1.7	78	-1.8	9	20	989.6	NA	0.0000		9999	5870	0	0	0
2017/06/03 15:53:00	BASE	0.84	154	2.47	144	1.7	78	-1.7	9	20	989.6	NA	0.0000		9999	5910	0	0	0
2017/06/03 15:54:00	BASE	1.16	106	2.47	144	1.8	78	-1.7	9	20	989.6	NA	0.0000		9999	5870	0	0	0
2017/06/03 15:55:00	BASE	2.16	75	4.42	86	1.9	78	-1.6	9	20	989.6	NA	0.0000		9999	5810	0	0	0
2017/06/03 15:56:00	BASE	4.45	90	6.12	74	2.0	78	-1.5	9	20	989.5	NA	0.0000		9999	5640	0	0	0
2017/06/03 15:57:00	BASE	4.24	97	6.12	74	2.0	77	-1.6	9	20	989.5	NA	0.0000		9999	5580	0	0	0
2017/06/03 15:58:00	BASE	3.45	79	6.12	74	2.0	77	-1.6	9	20	989.6	NA	0.0000		9999	5580	0	0	0
2017/06/03 15:59:00	BASE	3.80	64	6.12	74	2.1	77	-1.5	9	20	989.6	NA	0.0000		9999	5480	0	0	0
2017/06/03 16:00:00	BASE	3.35	62	6.12	74	2.1	77	-1.4	9	20	989.6	NA	0.0000		9999	5540	0	0	0
2017/06/03 16:01:00	BASE	2.85	71	6.12	74	2.2	77	-1.5	9	20	989.6	NA	0.0000		9999	5450	0	0	0
2017/06/03 16:02:00	BASE	2.82	69	6.12	74	2.2	77	-1.5	9	21	989.6	NA	0.0000		9999	5540	0	0	0
2017/06/03 16:03:00	BASE	2.71	64	6.12	74	2.3	76	-1.4	9	21	989.6	NA	0.0000		9999	5320	0	0	0
2017/06/03 16:04:00	BASE	2.95	55	6.12	74	2.4	76	-1.4	9	21	989.6	NA	0.0000		9999	5120	0	0	0
2017/06/03 16:05:00	BASE	3.46	36	6.12	74	2.4	76	-1.4	9	21	989.6	NA	0.0000		9999	5120	0	0	0
2017/06/03 16:06:00	BASE	2.87	33	4.99	46	2.5	75	-1.5	9	21	989.6	NA	0.0000		9999	5250	0	0	0
2017/06/03 16:07:00	BASE	1.79	41	4.99	46	2.6	75	-1.5	10	21	989.6	NA	0.0000		9999	5250	0	0	0
2017/06/03 16:08:00	BASE	2.99	45	5.45	45	2.6	74	-1.5	10	22	989.5	NA	0.0000		9999	5120	0	0	0
2017/06/03 16:09:00	BASE	4.02	50	5.71	47	2.6	74	-1.5	10	22	989.5	NA	0.0000		9999	5050	0	0	0
2017/06/03 16:10:00	BASE	4.06	56	5.81	52	2.7	74	-1.5	10	22	989.5	NA	0.0000		9999	4720	0	0	0
2017/06/03 16:11:00	BASE	5.23	56	7.15	58	2.7	73	-1.6	10	22	989.5	NA	0.0000		9999	4760	0	0	0
2017/06/03 16:12:00	BASE	6.69	59	9.31	78	2.8	73	-1.6	10	21	989.4	NA	0.0000		9999	5410	0	0	0
2017/06/03 16:13:00	BASE	7.76	67	9.31	78	2.8	73	-1.6	9	21	989.4	NA	0.0000		9999	4590	0	0	0
2017/06/03 16:14:00	BASE	8.05	73	9.77	69	2.8	72	-1.7	9	20	989.4	NA	0.0000		9999	4530	0	0	0
2017/06/03 16:15:00	BASE	8.05	80	9.77	69	2.8	72	-1.8	9	19	989.4	NA	0.0000		9999	4460	0	0	0
2017/06/03 16:16:00	BASE	7.61	82	9.77	69	2.7	72	-1.8	8	19	989.5	NA	0.0000		9999	4400	0	0	0
2017/06/03 16:17:00	BASE	6.60	72	9.77	69	2.7	72	-1.8	8	19	989.5	NA	0.0000		9999	4400	0	0	0
2017/06/03 16:18:00	BASE	7.33	69	10.13	55	2.6	72	-1.8	8	18	989.4	NA	0.0000		9999	4330	0	0	0
2017/06/03 16:19:00	BASE	8.25	75	10.13	55	2.6	73	-1.8	8	18	989.4	NA	0.0000		9999	4300	0	0	0
2017/06/03 16:20:00	BASE	7.27	79	10.13	55	2.5	73	-1.8	8	18	989.5	NA	0.0000		9999	4300	0	0	0
2017/06/03 16:21:00	BASE	6.66	85	10.13	55	2.5	74	-1.8	8	18	989.4	NA	0.0000		9999	4400	0	0	0
2017/06/03 16:22:00	BASE	5.96	90	10.13	55	2.4	74	-1.8	8	18	989.5	NA	0.0000		9999	4430	0	0	0
2017/06/03 16:23:00	BASE	6.01	82	10.13	55	2.3	74	-1.8	8	18	989.4	NA	0.0000		9999	4530	0	0	0
2017/06/03 16:24:00	BASE	6.56	79	10.13	55	2.3	74	-1.8	8	18	989.4	NA	0.0000		9999	4400	0	0	0
2017/06/03 16:25:00	BASE	5.56	93	10.13	55	2.2	75	-1.8	8	18	989.5	NA	0.0000		9999	4490	0	0	0
2017/06/03 16:26:00	BASE	4.70	96	10.13	55	2.2	75	-1.8	8	18	989.4	NA	0.0000		9999	4630	0	0	0
2017/06/03 16:27:00	BASE	4.77	98	10.13	55	2.1	75	-1.8	8	18	989.4	NA	0.0000		9999	4690	0	0	0
2017/06/03 16:28:00	BASE	4.69	108	9.52	86	2.1	75	-1.9	8	18	989.5	NA	0.0000		9999	4630	0	0	0
2017/06/03 16:29:00	BASE	4.41	109	8.39	88	2.0	75	-2.0	8	18	989.5	NA	0.0000		9999	4530	0	0	0
2017/06/03 16:30:00	BASE	3.77	109	8.39	88	2.0	75	-2.0	8	18	989.5	NA	0.0000		9999	4630	0	0	0
2017/06/03 16:31:00	BASE	3.11	104	7.87	72	1.9	75	-2.0	8	18	989.5	NA	0.0000		9999	4690	0	0	0
2017/06/03 16:32:00	BASE	3.83	90	7.87	72	1.9	75	-2.0	8	18	989.4	NA	0.0000		9999	4790	0	0	0
2017/06/03 16:33:00	BASE	3.98	100	7.61	68	1.9	75	-2.0	8	18	989.4	NA	0.0000		9999	4790	0	0	0
2017/06/03 16:34:00	BASE	4.40	100	8.08	91	2.0	75	-1.9	8	18	989.4	NA	0.0000		9999	4790	0	0	0
2017/06/03 16:35:00	BASE	4.61	92	8.08	91	2.0	75	-1.9	8	17	989.3	NA	0.0000		9999	4760	0	0	0
2017/06/03 16:36:00	BASE	3.54	92	8.08	91	2.1	75	-1.8	8	17	989.3	NA	0.0000		9999	4760	0	0	0
2017/06/03 16:37:00	BASE	3.95	70	9.11	64	2.2	75	-1.8	7	17	989.3	NA	0.0000		9999	4660	0	0	0
2017/06/03 16:38:00	BASE	5.71	61	9.11	64	2.3	75	-1.7	7	17	989.2	NA	0.0000		9999	4790	0	0	0
2017/06/03 16:39:00	BASE	6.94	59	9.11	64	2.4	75	-1.7	7	17	989.1	NA	0.0000		9999	4860	0	0	0
2017/06/03 16:40:00	BASE	6.87	60	9.11	64	2.4	75	-1.6	7	17	989.2	NA	0.0000		9999	4820	0	0	0
2017/06/03 16:41:00	BASE	7.28	53	10.19	42	2.5	74	-1.6	7	17	989.1	NA	0.0000		9999	4760	0	0	0
2017/06/03 16:42:00	BASE	7.79	45	10.19	42	2.6	74	-1.6	7	16	989.0	NA	0.0000		9999	4790	0	0	0
2017/06/03 16:43:00	BASE	8.56	43	10.49	32	2.6	73	-1.7	7	16	988.9	NA	0.0000		9999	4690	0	0	0
2017/06/03 16:44:00	BASE	9.66	41	11.37	40	2.6	73	-1.7	7	16	988.8	NA	0.0000		9999	4790	0	0	0
2017/06/03 16:45:00	BASE	10.50	38	12.30	37	2.6	73	-1.7	7	16	988.7	NA	0.0000		9999	4790	0	0	0
2017/06/03 16:46:00	BASE	10.84	36	12.30	37	2.6	73	-1.8	6	15	988.7	NA	0.0000		9999	4790	0	0	0
2017/06/03 16:47:00	BASE	10.23	39	12.30	37	2.6	73	-1.8	6	15	988.7	NA	0.0000		9999	4720	0	0	0
2017/06/03 16:48:01	BASE	9.84	42	12.30	37	2.6	72	-1.8	6	14	988.7	NA	0.0000		9999	4690	0	0	0
2017/06/03 16:49:00	BASE	10.74	40	13.38	43	2.6	72	-1.9	6	14	988.5	NA	0.0000		9999	4660	0	0	0
2017/06/03 16:50:00	BASE	11.27	39	13.38	43	2.6	72	-1.9	6	14	988.6	NA	0.0000		9999	4720	0	0	0
2017/06/03 16:51:00	BASE	11.45	38	13.38	43	2.6	72	-2.0	6	14	988.6	NA	0.0000		9999	4630	0	0	0
2017/06/03 16:52:00	BASE	12.18	39	14.15	40	2.7	72	-2.0	5	13	988.6	NA	0.0000		9999	4590	0	0	0
2017/06/03 16:53:00	BASE	12.53	41	14.15	40	2.7	71	-2.0	5	13	988.6	NA	0.0000		9999	4630	0	0	0
2017/06/03 16:54:00	BASE	12.53	43	14.15	40	2.7	71	-2.0	5	13	988.6	NA	0.0000		9999	4530	0	0	0
2017/06/03 16:55:00	BASE	11.81	50	14.15	40	2.8	70	-2.1	5	12	988.8	NA	0.0000		9999	4560	0	0	0
2017/06/03 16:56:00	BASE	10.96	63	14.15	40	2.8	70	-2.1	5	12	988.9	NA	0.0000		9999	4530	0	0	0
2017/06/03 16:57:00	BASE	9.66	72	14.15	40	2.8	70	-2.1	5	12	989.0	NA	0.0000		9999	4490	0	0	0
2017/06/03 16:58:00	BASE	8.30	80	14.15	40	2.7	71	-2.1	5	11	989.0	NA	0.0000		9999	4460	0	0	0
2017/06/03 16:59:00	BASE	8.66	89	14.15	40	2.6	71	-2.1	5	11	988.9	NA	0.0000		9999	4430	0	0	0
2017/06/03 17:00:00	BASE	9.52	94	14.15	40	2.4	72	-2.2	4	11	988.9	NA	0.0000		9999	4490	0	0	0
2017/06/03 17:01:00	BASE	9.70	99	14.15	40	2.2	73	-2.2	4	11	988.9	NA	0.0000		9999	4460	0	0	0
2017/06/03 17:02:00	BASE	9.62	110	13.94	43	2.0	74	-2.2	4	11	988.8	NA	0.0000		9999	4490	0	0	0
2017/06/03 17:03:00	BASE	8.61	112	13.53	44	1.9	74	-2.2	4	11	989.0	NA	0.0000		9999	4490	0	0	0
2017/06/03 17:04:00	BASE	7.46	112	12.66	41	1.8	75	-2.2	4	11	989.0	NA	0.0000		9999	4490	0	0	0
2017/06/03 17:05:00	BASE	6.64	114	11.73	67	1.7	75	-2.2	4	11	989.1	NA	0.0000		9999	4590	0	0	0
2017/06/03 17:06:00	BASE	5.64	107	10.65	97	1.7	75	-2.2	4	11	989.2	NA	0.0000		9999	4560	0	0	0
2017/06/03 17:07:00	BASE	3.53	96	10.65	97	1.7	75	-2.2	4	11	989.2	NA	0.0000		9999	4560	0	0	0
2017/06/03 17:08:00	BASE	2.13	94	10.65	97	1.7	75	-2.2	4	10	989.2	NA	0.0000		9999	4560	0	0	0
2017/06/03 17:09:00	BASE	2.51	114	10.65	97	1.7	76	-2.2	4	10	989.1	NA	0.0000		9999	4590	0	0	0
2017/06/03 17:10:00	BASE	3.21	124	10.65	97	1.7	76	-2.1	4	10	989.2	NA	0.0000		9999	4630	0	0	0
2017/06/03 17:11:00	BASE	3.43	122	10.34	111	1.6	76	-2.1	4	10	989.2	NA	0.0000		9999	4630	0	0	0
2017/06/03 17:12:00	BASE	2.57	129	8.28	110	1.6	76	-2.2	4	10	989.2	NA	0.0000		9999	4630	0	0	0
2017/06/03 17:13:00	BASE	2.19	134	7.56	118	1.6	76	-2.2	4	10	989.2	NA	0.0000		9999	4590	0	0	0
2017/06/03 17:14:00	BASE	2.43	129	6.94	114	1.5	76	-2.2	4	10	989.2	NA	0.0000		9999	4660	0	0	0
2017/06/03 17:15:00	BASE	2.50	129	6.17	99	1.5	76	-2.2	4	10	989.2	NA	0.0000		9999	4690	0	0	0
2017/06/03 17:16:00	BASE	1.98	138	4.48	124	1.4	77	-2.2	4	10	989.2	NA	0.0000		9999	4660	0	0	0
2017/06/03 17:17:00	BASE	1.82	126	4.48	124	1.4	77	-2.1	4	10	989.2	NA	0.0000		9999	4790	0	0	0
2017/06/03 17:18:00	BASE	1.92	125	4.48	124	1.4	78	-2.1	4	9	989.2	NA	0.0000		9999	4790	0	0	0
2017/06/03 17:19:00	BASE	1.65	142	4.48	124	1.4	78	-2.1	4	9	989.2	NA	0.0000		9999	4820	0	0	0
2017/06/03 17:20:00	BASE	1.71	156	3.65	129	1.4	78	-2.0	4	9	989.1	NA	0.0000		9999	4890	0	0	0
2017/06/03 17:21:00	BASE	1.86	162	3.55	48	1.4	78	-2.0	4	9	989.2	NA	0.0000		9999	4920	0	0	0
2017/06/03 17:22:00	BASE	2.07	151	3.55	48	1.4	78	-2.0	4	9	989.2	NA	0.0000		9999	4920	0	0	0
2017/06/03 17:23:00	BASE	2.28	147	3.55	48	1.4	78	-2.0	4	9	989.1	NA	0.0000		9999	4950	0	0	0
2017/06/03 17:24:00	BASE	2.56	166	3.65	159	1.4	78	-2.0	4	9	989.1	NA	0.0000		9999	4990	0	0	0
2017/06/03 17:25:00	BASE	3.32	174	4.06	145	1.4	78	-2.0	4	9	989.1	NA	0.0000		9999	4990	0	0	0
2017/06/03 17:26:00	BASE	4.14	184	4.99	197	1.4	78	-2.0	4	9	989.0	NA	0.0000		9999	5020	0	0	0
2017/06/03 17:27:00	BASE	3.84	185	4.99	197	1.4	78	-2.0	4	8	989.1	NA	0.0000		9999	5090	0	0	0
2017/06/03 17:28:00	BASE	3.54	153	4.99	197	1.3	78	-2.0	4	8	989.2	NA	0.0000		9999	5090	0	0	0
2017/06/03 17:29:00	BASE	3.63	149	4.99	197	1.2	79	-2.1	4	8	989.1	NA	0.0000		9999	5050	0	0	0
2017/06/03 17:30:00	BASE	3.37	156	4.99	197	1.2	79	-2.1	4	8	989.1	NA	0.0000		9999	5090	0	0	0
2017/06/03 17:31:00	BASE	3.28	160	4.99	197	1.1	80	-2.1	4	8	989.1	NA	0.0000		9999	5050	0	0	0
2017/06/03 17:32:00	BASE	3.24	162	4.99	197	1.0	80	-2.0	4	8	989.1	NA	0.0000		9999	5120	0	0	0
2017/06/03 17:33:00	BASE	3.35	162	4.99	197	1.0	81	-2.0	4	8	989.1	NA	0.0000		9999	5120	0	0	0
2017/06/03 17:34:00	BASE	2.88	160	4.99	197	0.9	81	-2.0	4	8	989.2	NA	0.0000		9999	5180	0	0	0
2017/06/03 17:35:00	BASE	2.07	160	4.99	197	0.9	81	-2.0	4	8	989.2	NA	0.0000		9999	5250	0	0	0
2017/06/03 17:36:00	BASE	2.03	169	4.01	140	0.9	81	-2.0	4	8	989.1	NA	0.0000		9999	5320	0	0	0
2017/06/03 17:37:00	BASE	2.49	171	4.01	140	0.8	82	-1.9	4	8	989.1	NA	0.0000		9999	5350	0	0	0
2017/06/03 17:38:00	BASE	2.81	164	3.86	176	0.8	82	-1.9	4	8	989.1	NA	0.0000		9999	5280	0	0	0
2017/06/03 17:39:00	BASE	2.64	168	3.86	176	0.8	83	-1.9	4	8	989.1	NA	0.0000		9999	5280	0	0	0
2017/06/03 17:40:00	BASE	2.08	158	3.86	176	0.7	83	-1.9	4	8	989.1	NA	0.0000		9999	5220	0	0	0
2017/06/03 17:41:00	BASE	1.79	145	3.86	176	0.7	83	-1.8	4	8	989.1	NA	0.0000		9999	5120	0	0	0
2017/06/03 17:42:00	BASE	2.05	155	3.81	154	0.6	83	-1.8	4	8	989.1	NA	0.0000		9999	5050	0	0	0
2017/06/03 17:43:00	BASE	2.30	169	3.19	159	0.6	84	-1.8	4	8	989.1	NA	0.0000		9999	5120	0	0	0
2017/06/03 17:44:00	BASE	2.35	188	3.19	159	0.6	84	-1.8	4	8	989.1	NA	0.0000		9999	5150	0	0	0
2017/06/03 17:45:00	BASE	2.55	205	3.19	159	0.5	85	-1.8	4	8	989.1	NA	0.0000		9999	5150	0	0	0
2017/06/03 17:46:00	BASE	2.75	215	3.19	159	0.5	85	-1.7	4	8	989.2	NA	0.0000		9999	5180	0	0	0
2017/06/03 17:47:00	BASE	2.38	215	3.19	159	0.5	85	-1.7	4	8	989.2	NA	0.0000		9999	5180	0	0	0
2017/06/03 17:48:00	BASE	2.04	200	3.04	210	0.5	85	-1.6	4	8	989.2	NA	0.0000		9999	5220	0	0	0
2017/06/03 17:49:00	BASE	2.04	178	3.04	210	0.5	86	-1.6	4	8	989.2	NA	0.0000		9999	5150	0	0	0
2017/06/03 17:50:00	BASE	2.00	161	3.09	159	0.5	86	-1.6	4	8	989.2	NA	0.0000		9999	5020	0	0	0
2017/06/03 17:51:00	BASE	1.76	149	3.09	159	0.5	86	-1.5	4	7	989.3	NA	0.0000		9999	5150	0	0	0
2017/06/03 17:52:00	BASE	1.62	139	3.09	159	0.6	86	-1.5	4	7	989.3	NA	0.0000		9999	5050	0	0	0
2017/06/03 17:53:00	BASE	1.49	121	3.09	159	0.6	86	-1.5	4	7	989.4	NA	0.0000		9999	4460	0	0	0
2017/06/03 17:54:00	BASE	0.84	112	3.09	159	0.7	86	-1.4	4	7	989.5	NA	0.0000		9999	4490	0	0	0
2017/06/03 17:55:00	BASE	0.27	133	3.09	159	0.8	86	-1.3	3	7	989.4	NA	0.0000		9999	4490	0	0	0
2017/06/03 17:56:00	BASE	0.85	161	3.09	159	1.0	85	-1.3	3	7	989.4	NA	0.0000		9999	4630	0	0	0
2017/06/03 17:57:00	BASE	1.52	167	3.09	159	1.2	84	-1.2	3	7	989.4	NA	0.0000		9999	4560	0	0	0
2017/06/03 17:58:00	BASE	1.73	157	3.09	159	1.3	83	-1.3	3	6	989.4	NA	0.0000		9999	4590	0	0	0
2017/06/03 17:59:00	BASE	1.95	167	3.09	159	1.4	82	-1.4	3	6	989.4	NA	0.0000		9999	4950	0	0	0
2017/06/03 18:00:00	BASE	1.68	199	2.21	170	1.3	81	-1.6	3	6	989.4	NA	0.0000		9999	0	0	0	4430
2017/06/03 18:01:00	BASE	1.48	212	2.21	170	1.2	80	-1.8	3	6	989.3	NA	0.0000		9999	2790	0	0	0
2017/06/03 18:02:00	BASE	2.12	189	3.19	158	1.1	80	-1.9	3	5	989.2	NA	0.0000		9999	4130	0	0	0
2017/06/03 18:03:00	BASE	2.80	153	3.34	131	0.9	81	-1.9	3	5	989.2	NA	0.0000		9999	3740	0	0	0
2017/06/03 18:04:00	BASE	3.28	129	3.86	110	0.9	82	-1.9	3	5	989.2	NA	0.0000		9999	3710	0	0	0
2017/06/03 18:05:00	BASE	4.00	124	4.89	133	0.9	82	-1.8	3	5	989.2	NA	0.0000		9999	4590	0	0	0
2017/06/03 18:06:00	BASE	4.06	125	4.89	133	0.8	83	-1.7	3	4	989.1	NA	0.0000		9999	3670	0	0	0
2017/06/03 18:07:00	BASE	3.12	129	4.89	133	0.8	83	-1.7	3	4	989.2	NA	0.0000		9999	3640	0	0	0
2017/06/03 18:08:00	BASE	1.73	141	4.89	133	0.8	84	-1.6	3	4	989.3	NA	0.0000		9999	3640	0	0	0
2017/06/03 18:09:00	BASE	0.51	112	4.89	133	0.8	84	-1.6	3	4	989.3	NA	0.0000		9999	3540	0	0	0
2017/06/03 18:10:00	BASE	0.72	82	4.89	133	0.8	85	-1.5	3	4	989.4	NA	0.0000		9999	3580	0	0	0
2017/06/03 18:11:00	BASE	1.85	116	4.89	133	0.7	86	-1.4	3	4	989.3	NA	0.0000		9999	3610	0	0	0
2017/06/03 18:12:00	BASE	3.25	150	5.71	176	0.7	86	-1.3	3	4	989.2	NA	0.0000		9999	3640	0	0	0
2017/06/03 18:13:00	BASE	4.97	177	6.64	197	0.7	87	-1.3	3	4	989.0	NA	0.0000		9999	3740	0	0	0
2017/06/03 18:14:00	BASE	5.21	193	6.64	197	0.7	87	-1.2	3	3	989.1	NA	0.0000		9999	3510	0	0	0
2017/06/03 18:15:00	BASE	4.11	201	6.64	197	0.8	87	-1.1	2	3	989.2	NA	0.0000		9999	3280	4920	0	0
2017/06/03 18:16:00	BASE	2.41	199	6.64	197	0.8	87	-1.1	2	3	989.3	NA	0.0000		9999	4950	0	0	0
2017/06/03 18:17:00	BASE	1.99	116	6.64	197	0.9	87	-1.1	2	3	989.4	NA	0.0000		9999	3380	0	0	0
2017/06/03 18:18:00	BASE	3.25	82	6.64	197	0.9	87	-1.0	2	3	989.3	NA	0.0000		9999	3350	0	0	0
2017/06/03 18:19:00	BASE	4.51	103	6.64	197	0.9	87	-1.0	2	3	989.2	NA	0.0000		9999	3840	0	0	0
2017/06/03 18:20:00	BASE	5.96	127	7.72	142	0.9	87	-1.0	2	3	989.1	NA	0.0000		9999	2330	0	0	0
2017/06/03 18:21:00	BASE	7.27	138	8.64	143	0.9	87	-1.1	2	2	989.0	NA	0.0000		9999	4690	0	0	0
2017/06/03 18:22:00	BASE	7.71	148	8.75	164	0.9	87	-1.0	2	2	989.0	NA	0.0000		9999	4690	0	0	0
2017/06/03 18:23:00	BASE	8.45	155	10.34	152	0.8	87	-1.0	2	2	988.9	NA	0.0000		9999	3940	0	0	0
2017/06/03 18:24:00	BASE	8.99	153	10.34	152	0.8	87	-1.0	2	1	988.9	NA	0.0000		9999	4590	0	0	0
2017/06/03 18:25:00	BASE	7.11	148	10.34	152	0.8	88	-1.0	1	1	989.2	NA	0.0000		9999	4490	0	0	0
2017/06/03 18:26:00	BASE	5.25	145	10.34	152	0.9	88	-0.9	1	1	989.2	NA	0.0000		9999	4430	0	0	0
2017/06/03 18:27:00	BASE	3.87	142	10.34	152	1.0	88	-0.8	1	1	989.3	NA	0.0000		9999	4270	0	0	0
2017/06/03 18:28:00	BASE	1.44	144	10.34	152	1.1	87	-0.7	1	1	989.4	NA	0.0000		9999	4230	0	0	0
2017/06/03 18:29:00	BASE	0.65	120	10.34	152	1.3	87	-0.7	1	1	989.4	NA	0.0000		9999	4230	0	0	0
2017/06/03 18:30:00	BASE	1.85	56	10.34	152	1.4	86	-0.7	1	1	989.4	NA	0.0000		9999	4070	0	0	0
2017/06/03 18:31:00	BASE	2.03	38	10.34	152	1.5	85	-0.8	1	1	989.4	NA	0.0000		9999	4000	0	0	0
2017/06/03 18:32:00	BASE	1.08	15	10.34	152	1.4	84	-0.9	1	0	989.3	NA	0.0000		9999	4660	0	0	0
2017/06/03 18:33:00	BASE	0.25	345	9.98	148	1.4	84	-1.1	1	0	989.2	NA	0.0000		9999	0	0	0	3450
2017/06/03 18:34:00	BASE	0.00	321	6.94	157	1.3	84	-1.2	1	0	989.2	NA	0.0000		9999	4690	0	0	0
2017/06/03 18:35:00	BASE	0.05	297	5.50	142	1.2	84	-1.2	1	0	989.2	NA	0.0000		9999	0	0	0	2760
2017/06/03 18:36:00	BASE	0.69	272	4.22	134	1.2	84	-1.1	1	0	989.2	NA	0.0000		9999	4950	0	0	0
2017/06/03 18:37:00	BASE	0.84	273	2.93	51	1.3	84	-1.1	1	0	989.2	NA	0.0000		9999	0	0	0	2560
2017/06/03 18:38:00	BASE	0.93	338	2.93	51	1.4	84	-1.1	1	0	989.2	NA	0.0000	UP	9999	0	0	0	2460
2017/06/03 18:39:00	BASE	1.05	12	2.88	47	1.4	84	-1.1	1	0	989.2	NA	0.0000	UP	9999	0	0	0	2490
2017/06/03 18:40:00	BASE	0.74	2	2.21	63	1.3	83	-1.2	1	0	989.1	NA	0.0000	UP	9999	0	0	0	2430
2017/06/03 18:41:00	BASE	1.05	355	1.75	17	1.2	83	-1.3	0	0	989.2	NA	0.0000	UP	9999	4890	0	0	0
2017/06/03 18:42:00	BASE	1.39	354	2.01	343	1.1	84	-1.3	0	0	989.2	NA	0.0000	UP	9999	4920	0	0	0
2017/06/03 18:43:00	BASE	1.07	336	2.01	343	1.1	85	-1.2	0	0	989.2	NA	0.0000	UP	9999	4790	0	0	0
2017/06/03 18:44:00	BASE	1.09	316	2.01	343	1.2	85	-1.1	0	0	989.2	NA	0.0000	UP	9999	4790	0	0	0
2017/06/03 18:45:00	BASE	1.53	301	2.06	279	1.4	85	-0.9	0	0	989.2	NA	0.0000	UP	9999	4950	0	0	0
2017/06/03 18:46:00	BASE	1.64	330	2.47	31	1.5	84	-0.9	0	0	989.2	NA	0.0000	UP	9999	5180	0	0	0
2017/06/03 18:47:00	BASE	2.10	21	2.78	33	1.5	83	-1.0	0	0	989.2	NA	0.0000	UP	9999	5020	0	0	0
2017/06/03 18:48:00	BASE	1.55	360	2.78	33	1.5	83	-1.1	0	0	989.2	NA	0.0000	UP	9999	5120	0	0	0
2017/06/03 18:49:00	BASE	1.17	335	2.93	22	1.4	83	-1.2	0	0	989.2	NA	0.0000	UP	9999	5250	0	0	0
2017/06/03 18:50:00	BASE	1.53	17	2.93	22	1.3	83	-1.3	0	0	989.2	NA	0.0000	UP	9999	5220	0	0	0
2017/06/03 18:51:00	BASE	0.98	29	2.93	22	1.2	83	-1.4	0	0	989.1	NA	0.0000	UP	9999	5280	0	0	0
2017/06/03 18:52:00	BASE	0.97	358	2.93	22	1.2	84	-1.3	0	0	989.1	NA	0.0000	UP	9999	5380	0	0	0
2017/06/03 18:53:00	BASE	1.41	332	2.93	22	1.2	84	-1.2	0	0	989.1	NA	0.0000		9999	5280	0	0	0
2017/06/03 18:54:00	BASE	1.40	344	2.93	22	1.2	84	-1.2	0	0	989.2	NA	0.0000		9999	5250	0	0	0
2017/06/03 18:55:00	BASE	0.86	22	2.93	22	1.2	85	-1.1	0	0	989.2	NA	0.0000		9999	5220	0	0	0
2017/06/03 18:56:00	BASE	0.77	44	2.93	22	1.3	85	-1.0	0	0	989.1	NA	0.0000		9999	5150	0	0	0
2017/06/03 18:57:00	BASE	2.00	56	3.96	69	1.4	84	-1.0	0	0	989.1	NA	0.0000		9999	5150	0	0	0
2017/06/03 18:58:00	BASE	3.15	71	4.12	61	1.4	84	-1.0	0	0	989.1	NA	0.0000		9999	5250	0	0	0
2017/06/03 18:59:00	BASE	3.27	82	4.12	61	1.4	83	-1.1	0	0	989.1	NA	0.0000		9999	5280	0	0	0
2017/06/03 19:00:00	BASE	3.15	88	4.12	61	1.4	83	-1.2	0	0	989.1	NA	0.0000		9999	5180	0	0	0
2017/06/03 19:01:00	BASE	3.72	91	5.09	99	1.4	82	-1.3	0	0	989.1	NA	0.0000		9999	5090	0	0	0
2017/06/03 19:02:00	BASE	4.73	98	5.71	103	1.4	82	-1.4	0	0	989.0	NA	0.0000		9999	5120	0	0	0
2017/06/03 19:03:00	BASE	5.26	107	5.81	110	1.4	82	-1.4	0	0	989.0	NA	0.0000		9999	5120	0	0	0
2017/06/03 19:04:00	BASE	4.50	108	5.81	110	1.4	81	-1.5	0	0	989.0	NA	0.0000		9999	5150	0	0	0
2017/06/03 19:05:00	BASE	3.85	91	5.81	110	1.4	81	-1.5	0	0	989.1	NA	0.0000		9999	5180	0	0	0
2017/06/03 19:06:00	BASE	3.40	93	5.81	110	1.5	81	-1.5	0	0	989.0	NA	0.0000		9999	5220	0	0	0
2017/06/03 19:07:00	BASE	2.01	133	5.81	110	1.6	80	-1.5	0	0	989.0	NA	0.0000		9999	5320	0	0	0
2017/06/03 19:08:00	BASE	1.39	146	5.81	110	1.6	80	-1.5	0	0	988.9	NA	0.0000		9999	5410	0	0	0
2017/06/03 19:09:00	BASE	1.25	98	5.81	110	1.7	79	-1.6	0	0	988.9	NA	0.0000		9999	5480	0	0	0
2017/06/03 19:10:00	BASE	1.15	87	5.81	110	1.7	79	-1.6	0	0	988.9	NA	0.0000		9999	5540	0	0	0
2017/06/03 19:11:00	BASE	1.52	75	5.81	110	1.8	78	-1.6	0	0	988.9	NA	0.0000		9999	5640	0	0	0
2017/06/03 19:12:00	BASE	1.58	85	5.81	110	1.8	78	-1.6	0	0	988.9	NA	0.0000		9999	5510	0	0	0
2017/06/03 19:13:00	BASE	1.99	160	4.99	109	1.8	78	-1.7	0	0	988.8	NA	0.0000		9999	5450	0	0	0
2017/06/03 19:14:00	BASE	1.76	182	4.53	77	1.9	77	-1.7	0	0	988.9	NA	0.0000		9999	5380	0	0	0
2017/06/03 19:15:00	BASE	1.71	145	3.45	75	1.9	77	-1.8	0	0	989.0	NA	0.0000		9999	5150	0	0	0
2017/06/03 19:16:00	BASE	2.88	100	4.32	102	1.8	77	-1.9	0	0	989.0	NA	0.0000		9999	5250	0	0	0
2017/06/03 19:17:00	BASE	3.69	95	4.32	94	1.6	77	-1.9	0	0	989.0	NA	0.0000		9999	5050	0	0	0
2017/06/03 19:18:00	BASE	3.99	103	4.37	101	1.5	78	-2.0	0	0	989.0	NA	0.0000		9999	4460	5020	0	0
2017/06/03 19:19:00	BASE	3.83	114	4.37	101	1.3	79	-1.9	0	0	988.9	NA	0.0000		9999	3120	4430	5090	0
2017/06/03 19:20:00	BASE	3.70	123	4.37	101	1.2	80	-1.9	0	0	989.0	NA	0.0000		9999	4170	5050	0	0
2017/06/03 19:21:00	BASE	4.25	120	5.30	104	1.1	81	-1.8	0	0	989.0	NA	0.0000		9999	4130	5050	0	0
2017/06/03 19:22:00	BASE	4.82	114	5.35	114	1.1	81	-1.7	0	0	989.0	NA	0.0000		9999	4040	5090	0	0
2017/06/03 19:23:00	BASE	4.68	127	5.35	114	1.1	82	-1.7	0	0	989.0	NA	0.0000		9999	4000	4990	0	0
2017/06/03 19:24:00	BASE	4.63	138	6.02	136	1.1	82	-1.6	0	0	989.0	NA	0.0000		9999	3970	0	0	0
2017/06/03 19:25:00	BASE	5.47	142	6.69	143	1.1	82	-1.6	0	0	989.0	NA	0.0000		9999	4000	0	0	0
2017/06/03 19:26:00	BASE	5.93	142	6.69	143	1.0	83	-1.6	0	0	989.0	NA	0.0000		9999	3870	0	0	0
2017/06/03 19:27:00	BASE	5.72	138	6.69	143	1.0	83	-1.5	0	0	989.0	NA	0.0000		9999	3810	0	0	0
2017/06/03 19:28:00	BASE	5.79	141	6.69	143	1.0	83	-1.5	0	0	988.8	NA	0.0000		9999	3710	0	0	0
2017/06/03 19:29:00	BASE	5.35	148	6.69	143	1.0	84	-1.5	0	0	988.9	NA	0.0000		9999	3770	4790	0	0
2017/06/03 19:30:00	BASE	4.64	142	6.69	143	0.9	84	-1.5	0	0	988.9	NA	0.0000		9999	3740	4660	0	0
2017/06/03 19:31:00	BASE	4.40	136	6.69	143	0.9	84	-1.5	0	0	988.9	NA	0.0000		9999	3610	4630	0	0
2017/06/03 19:32:00	BASE	4.55	133	6.69	143	0.9	84	-1.5	0	0	988.9	NA	0.0000		9999	4560	0	0	0
2017/06/03 19:33:00	BASE	4.95	133	6.69	143	0.9	84	-1.5	0	0	988.9	NA	0.0000		9999	4490	0	0	0
2017/06/03 19:34:00	BASE	5.12	142	6.69	143	0.9	85	-1.4	0	0	988.8	NA	0.0000		9999	4560	0	0	0
2017/06/03 19:35:00	BASE	5.42	151	6.58	144	0.8	85	-1.4	0	0	988.7	NA	0.0000		9999	4530	0	0	0
2017/06/03 19:36:00	BASE	5.75	154	6.58	144	0.8	85	-1.4	0	0	988.7	NA	0.0000		9999	4490	0	0	0
2017/06/03 19:37:00	BASE	4.86	155	6.58	144	0.8	85	-1.4	0	0	988.8	NA	0.0000		9999	4430	0	0	0
2017/06/03 19:38:00	BASE	3.98	144	6.22	152	0.8	85	-1.4	0	0	988.9	NA	0.0000		9999	4330	0	0	0
2017/06/03 19:39:00	BASE	3.28	134	6.22	152	0.8	85	-1.4	0	0	988.9	NA	0.0000		9999	4040	0	0	0
2017/06/03 19:40:00	BASE	1.88	130	6.22	152	0.8	86	-1.4	0	0	989.0	NA	0.0000		9999	3770	0	0	0
2017/06/03 19:41:00	BASE	0.89	113	6.22	152	0.8	86	-1.4	0	0	989.0	NA	0.0000		9999	3940	0	0	0
2017/06/03 19:42:00	BASE	1.58	34	6.22	152	0.7	86	-1.3	0	0	989.0	NA	0.0000		9999	3770	0	0	0
2017/06/03 19:43:00	BASE	2.27	45	6.22	152	0.7	86	-1.4	0	0	989.0	NA	0.0000		9999	3770	0	0	0
2017/06/03 19:44:00	BASE	1.70	68	6.22	152	0.7	86	-1.4	0	0	989.0	NA	0.0000		9999	3900	0	0	0
2017/06/03 19:45:00	BASE	1.26	96	6.22	152	0.6	86	-1.4	0	0	988.9	NA	0.0000		9999	3970	0	0	0
2017/06/03 19:46:00	BASE	1.37	117	5.09	157	0.6	87	-1.4	0	0	988.9	NA	0.0000		9999	3870	0	0	0
2017/06/03 19:47:00	BASE	2.84	133	7.41	134	0.6	87	-1.3	0	0	988.8	NA	0.0000		9999	3810	0	0	0
2017/06/03 19:48:00	BASE	4.23	136	7.41	134	0.7	87	-1.2	0	0	988.7	NA	0.0000		9999	3710	0	0	0
2017/06/03 19:49:00	BASE	3.75	116	7.41	134	0.8	87	-1.1	0	0	988.7	NA	0.0000		9999	3670	0	0	0
2017/06/03 19:50:00	BASE	3.23	31	7.41	134	0.9	86	-1.1	0	0	988.7	NA	0.0000		9999	3740	0	0	0
2017/06/03 19:51:00	BASE	2.81	342	7.41	134	1.0	86	-1.1	0	0	988.7	NA	0.0000		9999	3740	0	0	0
2017/06/03 19:52:00	BASE	2.06	339	7.41	134	1.0	85	-1.2	0	0	988.7	NA	0.0000		9999	3670	0	0	0
2017/06/03 19:53:00	BASE	1.90	22	7.41	134	1.0	85	-1.3	0	0	988.7	NA	0.0000		9999	3810	0	0	0
2017/06/03 19:54:00	BASE	2.30	78	7.41	134	0.9	85	-1.4	0	0	988.7	NA	0.0000		9999	3840	0	0	0
2017/06/03 19:55:00	BASE	2.41	102	7.41	134	0.9	85	-1.4	0	0	988.7	NA	0.0000		9999	3970	0	0	0
2017/06/03 19:56:00	BASE	2.06	106	7.41	134	1.0	85	-1.2	0	0	988.7	NA	0.0000		9999	3840	0	0	0
2017/06/03 19:57:00	BASE	3.11	96	6.48	136	1.1	85	-1.1	0	0	988.8	NA	0.0000		9999	3840	0	0	0
2017/06/03 19:58:00	BASE	5.13	83	6.74	76	1.3	85	-1.0	0	0	988.9	NA	0.0000		9999	3710	0	0	0
2017/06/03 19:59:00	BASE	5.64	84	6.74	76	1.5	84	-0.9	0	0	988.8	NA	0.0000		9999	3670	0	0	0
2017/06/03 20:00:00	BASE	5.31	81	7.46	68	1.8	82	-0.8	0	0	988.8	NA	0.0000		9999	3610	0	0	0
2017/06/03 20:01:00	BASE	4.02	45	7.46	68	2.1	80	-1.0	0	0	988.9	NA	0.0000		9999	3580	0	0	0
2017/06/03 20:02:00	BASE	2.55	330	7.46	68	2.3	78	-1.3	0	0	988.9	NA	0.0000		9999	3580	0	0	0
2017/06/03 20:03:00	BASE	2.45	278	7.46	68	2.3	76	-1.5	0	0	988.9	NA	0.0000		9999	3480	0	0	0
2017/06/03 20:04:00	BASE	2.23	290	7.46	68	2.2	75	-1.7	0	0	989.0	NA	0.0000		9999	3540	0	0	0
2017/06/03 20:05:00	BASE	2.47	307	7.46	68	2.0	75	-1.9	0	0	989.0	NA	0.0000		9999	3540	0	0	0
2017/06/03 20:06:00	BASE	3.54	311	7.46	68	1.8	76	-2.0	0	0	989.0	NA	0.0000		9999	3480	0	0	0
2017/06/03 20:07:00	BASE	4.44	317	7.46	68	1.7	77	-1.9	0	0	989.0	NA	0.0000		9999	3540	0	0	0
2017/06/03 20:08:00	BASE	4.44	327	7.46	68	1.7	78	-1.8	0	0	989.0	NA	0.0000		9999	3510	0	0	0
2017/06/03 20:09:00	BASE	3.35	327	7.46	68	1.8	78	-1.7	0	0	989.0	NA	0.0000		9999	3510	0	0	0
2017/06/03 20:10:00	BASE	2.21	301	5.61	342	1.8	78	-1.7	0	0	989.0	NA	0.0000		9999	3480	0	0	0
2017/06/03 20:11:00	BASE	1.59	282	5.61	342	1.9	77	-1.6	0	0	988.9	NA	0.0000		9999	3410	0	0	0
2017/06/03 20:12:00	BASE	0.66	311	5.61	342	2.0	77	-1.6	0	0	989.0	NA	0.0000		9999	3510	0	0	0
2017/06/03 20:13:00	BASE	0.52	17	5.61	342	2.0	76	-1.7	0	0	989.0	NA	0.0000		9999	3670	0	0	0
2017/06/03 20:14:00	BASE	1.56	73	5.61	342	2.1	76	-1.7	0	0	989.0	NA	0.0000		9999	3610	0	0	0
2017/06/03 20:15:00	BASE	2.11	89	5.61	342	2.1	76	-1.8	0	0	988.9	NA	0.0000		9999	3540	0	0	0
2017/06/03 20:16:00	BASE	1.93	109	5.61	342	2.0	76	-1.8	0	0	988.7	NA	0.0000		9999	3350	0	0	0
2017/06/03 20:17:00	BASE	2.01	120	5.61	342	2.0	76	-1.8	0	0	988.7	NA	0.0000		9999	3380	0	0	0
2017/06/03 20:18:00	BASE	2.60	113	3.19	328	2.0	76	-1.8	0	0	988.7	NA	0.0000		9999	3410	4400	0	0
2017/06/03 20:19:00	BASE	2.92	117	3.14	122	1.9	76	-1.8	0	0	988.7	NA	0.0000		9999	3410	4330	0	0
2017/06/03 20:20:00	BASE	2.35	123	3.14	122	1.9	77	-1.8	0	0	988.8	NA	0.0000		9999	3640	0	0	0
2017/06/03 20:21:00	BASE	2.30	127	4.22	138	1.9	77	-1.8	0	0	988.8	NA	0.0000		9999	3480	0	0	0
2017/06/03 20:22:00	BASE	3.30	141	4.22	138	1.9	77	-1.8	0	0	988.7	NA	0.0000		9999	3350	0	0	0
2017/06/03 20:23:00	BASE	3.94	152	4.58	160	1.8	77	-1.8	0	0	988.7	NA	0.0000		9999	3510	0	0	0
2017/06/03 20:24:00	BASE	3.64	152	4.58	160	1.7	77	-1.8	0	0	988.7	NA	0.0000		9999	3510	0	0	0
2017/06/03 20:25:00	BASE	2.57	151	4.58	160	1.6	78	-1.8	0	0	988.7	NA	0.0000		9999	3480	0	0	0
2017/06/03 20:26:00	BASE	2.16	159	4.58	160	1.5	79	-1.8	0	0	988.7	NA	0.0000		9999	3480	0	0	0
2017/06/03 20:27:00	BASE	2.36	154	4.58	160	1.4	80	-1.7	0	0	988.7	NA	0.0000		9999	3510	0	0	0
2017/06/03 20:28:00	BASE	2.36	119	4.58	160	1.3	80	-1.7	0	0	988.7	NA	0.0000		9999	3450	0	0	0
2017/06/03 20:29:00	BASE	2.12	99	4.58	160	1.3	81	-1.6	0	0	988.7	NA	0.0000		9999	3540	0	0	0
2017/06/03 20:30:00	BASE	1.55	100	4.58	160	1.3	81	-1.6	0	0	988.7	NA	0.0000		9999	3510	0	0	0
2017/06/03 20:31:00	BASE	1.54	73	4.58	160	1.3	82	-1.5	0	0	988.7	NA	0.0000		9999	3450	0	0	0
2017/06/03 20:32:00	BASE	2.23	48	4.58	160	1.3	82	-1.5	0	0	988.7	NA	0.0000		9999	3510	0	0	0
2017/06/03 20:33:00	BASE	2.48	56	4.22	146	1.3	82	-1.5	0	0	988.8	NA	0.0000		9999	3510	4400	0	0
2017/06/03 20:34:00	BASE	2.49	72	3.34	88	1.3	82	-1.5	0	0	988.8	NA	0.0000		9999	3450	4430	0	0
2017/06/03 20:35:00	BASE	3.06	88	4.48	96	1.3	82	-1.5	0	0	988.7	NA	0.0000		9999	3310	4430	0	0
2017/06/03 20:36:00	BASE	4.00	95	4.78	87	1.2	82	-1.5	0	0	988.7	NA	0.0000		9999	3310	4400	0	0
2017/06/03 20:37:00	BASE	4.23	91	4.78	87	1.2	82	-1.5	0	0	988.7	NA	0.0000		9999	4400	5710	0	0
2017/06/03 20:38:00	BASE	4.59	99	5.76	108	1.1	83	-1.5	0	0	988.6	NA	0.0000		9999	4460	5640	0	0
2017/06/03 20:39:00	BASE	5.29	116	5.76	108	1.1	83	-1.5	0	0	988.5	NA	0.0000		9999	4530	0	0	0
2017/06/03 20:40:00	BASE	5.05	123	5.76	108	1.0	84	-1.4	0	0	988.5	NA	0.0000		9999	4690	0	0	0
2017/06/03 20:41:00	BASE	4.77	121	5.76	108	1.0	84	-1.4	0	0	988.6	NA	0.0000		9999	4660	5380	0	0
2017/06/03 20:42:00	BASE	4.70	117	5.76	108	0.9	85	-1.4	0	0	988.7	NA	0.0000		9999	5450	0	0	0
2017/06/03 20:43:00	BASE	5.09	113	6.33	112	0.8	85	-1.4	0	0	988.5	NA	0.0000		9999	5680	0	0	0
2017/06/03 20:44:00	BASE	5.22	115	6.33	112	0.8	85	-1.4	0	0	988.5	NA	0.0000		9999	5740	0	0	0
2017/06/03 20:45:00	BASE	4.93	111	6.33	112	0.8	86	-1.4	0	0	988.6	NA	0.0000		9999	5740	0	0	0
2017/06/03 20:46:00	BASE	4.60	109	6.33	112	0.8	86	-1.3	0	0	988.6	NA	0.0000		9999	5740	0	0	0
2017/06/03 20:47:00	BASE	4.05	111	6.33	112	0.7	86	-1.3	0	0	988.6	NA	0.0000		9999	5680	0	0	0
2017/06/03 20:48:00	BASE	4.01	106	6.33	112	0.7	86	-1.3	0	0	988.7	NA	0.0000		9999	5640	0	0	0
2017/06/03 20:49:00	BASE	4.58	107	6.33	112	0.7	87	-1.3	0	0	988.6	NA	0.0000		9999	5610	0	0	0
2017/06/03 20:50:00	BASE	5.84	114	7.31	120	0.7	87	-1.3	0	0	988.4	NA	0.0000		9999	5610	0	0	0
2017/06/03 20:51:00	BASE	6.45	122	7.31	120	0.6	87	-1.3	0	0	988.4	NA	0.0000		9999	5580	0	0	0
2017/06/03 20:52:00	BASE	5.47	116	7.31	120	0.6	87	-1.2	0	0	988.5	NA	0.0000		9999	5540	0	0	0
2017/06/03 20:53:00	BASE	4.41	96	7.31	120	0.6	88	-1.2	0	0	988.7	NA	0.0000		9999	5580	0	0	0
2017/06/03 20:54:00	BASE	4.30	93	7.31	120	0.6	88	-1.2	0	0	988.7	NA	0.0000		9999	5540	0	0	0
2017/06/03 20:55:00	BASE	3.97	104	7.31	120	0.7	88	-1.1	0	0	988.7	NA	0.0000		9999	5450	0	0	0
2017/06/03 20:56:00	BASE	3.47	107	7.31	120	0.7	88	-1.0	0	0	988.7	NA	0.0000		9999	5380	0	0	0
2017/06/03 20:57:01	BASE	3.05	101	7.31	120	0.7	88	-1.0	0	0	988.7	NA	0.0000		9999	5640	0	0	0
2017/06/03 20:58:00	BASE	2.77	94	7.31	120	0.8	88	-1.0	0	0	988.7	NA	0.0000		9999	5510	0	0	0
2017/06/03 20:59:00	BASE	2.61	91	7.31	120	0.8	88	-1.0	0	0	988.7	NA	0.0000		9999	5480	0	0	0
2017/06/03 21:00:00	BASE	1.86	93	6.84	123	0.8	88	-1.0	0	0	988.7	NA	0.0000		9999	5610	0	0	0
2017/06/03 21:01:00	BASE	3.02	51	7.31	31	0.8	88	-1.0	0	0	988.7	NA	0.0000		9999	5610	0	0	0
2017/06/03 21:02:00	BASE	4.60	25	7.31	31	0.9	88	-0.9	0	0	988.6	NA	0.0000		9999	5810	0	0	0
2017/06/03 21:03:01	BASE	4.38	26	7.31	31	1.1	87	-0.8	0	0	988.6	NA	0.0000		9999	5770	0	0	0
2017/06/03 21:04:00	BASE	3.47	23	7.31	31	1.3	86	-0.8	0	0	988.5	NA	0.0000		9999	5770	0	0	0
2017/06/03 21:05:00	BASE	3.51	23	7.31	31	1.5	84	-0.9	0	0	988.5	NA	0.0000		9999	5640	0	0	0
2017/06/03 21:06:00	BASE	4.24	0	7.31	31	1.7	82	-1.1	0	0	988.4	NA	0.0000		9999	8630	0	0	0
2017/06/03 21:07:00	BASE	4.84	4	8.03	15	1.9	80	-1.3	0	0	988.5	NA	0.0000		9999	0	0	0	0
2017/06/03 21:08:01	BASE	5.47	17	8.03	15	2.0	78	-1.5	0	0	988.5	NA	0.0000		9999	0	0	0	0
2017/06/03 21:09:00	BASE	5.51	18	8.03	15	2.1	76	-1.7	0	0	988.5	NA	0.0000		9999	0	0	0	0
2017/06/03 21:10:00	BASE	6.42	12	9.83	344	2.3	74	-1.8	0	0	988.5	NA	0.0000		9999	0	0	0	0
2017/06/03 21:11:00	BASE	5.70	1	9.83	344	2.3	73	-2.0	0	0	988.5	NA	0.0000		9999	0	0	0	0
2017/06/03 21:12:00	BASE	3.29	8	9.83	344	2.4	72	-2.1	0	0	988.5	NA	0.0000		9999	0	0	0	0
2017/06/03 21:13:00	BASE	2.62	14	9.83	344	2.4	72	-2.2	0	0	988.5	NA	0.0000		9999	0	0	0	0
2017/06/03 21:14:00	BASE	3.19	21	9.83	344	2.4	71	-2.3	0	0	988.5	NA	0.0000		9999	0	0	0	0
2017/06/03 21:15:01	BASE	2.09	67	9.83	344	2.4	71	-2.3	0	0	988.6	NA	0.0000		9999	0	0	0	0
2017/06/03 21:16:01	BASE	0.37	148	9.83	344	2.3	71	-2.4	0	0	988.6	NA	0.0000		9999	10830	0	0	0
2017/06/03 21:17:01	BASE	0.38	217	9.83	344	2.1	72	-2.4	0	0	988.6	NA	0.0000		9999	10960	0	0	0
2017/06/03 21:18:01	BASE	1.18	321	9.83	344	2.0	73	-2.3	0	0	988.5	NA	0.0000		9999	10860	0	0	0
2017/06/03 21:19:01	BASE	1.73	323	9.83	344	1.9	74	-2.3	0	0	988.5	NA	0.0000		9999	7840	10430	0	0
2017/06/03 21:20:01	BASE	2.42	323	5.61	26	1.8	75	-2.2	0	0	988.5	NA	0.0000		9999	10170	0	0	0
2017/06/03 21:21:01	BASE	3.11	8	5.61	42	1.8	75	-2.0	0	0	988.5	NA	0.0000		9999	10140	0	0	0
2017/06/03 21:22:01	BASE	2.88	57	5.61	42	2.0	75	-2.0	0	0	988.5	NA	0.0000		9999	10270	0	0	0
2017/06/03 21:23:01	BASE	2.19	61	5.61	42	2.1	74	-2.1	0	0	988.5	NA	0.0000		9999	7050	10270	0	0
2017/06/03 21:24:01	BASE	2.38	64	5.61	42	2.2	73	-2.1	0	0	988.6	NA	0.0000		9999	7280	7780	10140	0
2017/06/03 21:25:01	BASE	1.85	106	5.61	42	2.2	73	-2.2	0	0	988.6	NA	0.0000		9999	7680	0	0	0
2017/06/03 21:26:01	BASE	0.70	114	5.61	42	2.2	72	-2.3	0	0	988.7	NA	0.0000		9999	7380	7940	0	0
2017/06/03 21:27:01	BASE	1.36	354	5.61	42	2.1	72	-2.3	0	0	988.7	NA	0.0000		9999	6170	7870	0	0
2017/06/03 21:28:01	BASE	2.06	8	5.61	42	2.2	72	-2.3	0	0	988.6	NA	0.0000		9999	6170	7640	0	0
2017/06/03 21:29:01	BASE	2.29	86	5.61	42	2.2	72	-2.3	0	0	988.6	NA	0.0000		9999	7580	0	0	0
2017/06/03 21:30:01	BASE	2.68	140	5.61	42	2.2	72	-2.3	0	0	988.6	NA	0.0000		9999	7320	0	0	0
2017/06/03 21:31:01	BASE	3.04	108	5.25	96	2.2	72	-2.3	0	0	988.7	NA	0.0000		9999	7550	9940	0	0
2017/06/03 21:32:01	BASE	3.39	94	4.73	104	2.1	72	-2.4	0	0	988.6	NA	0.0000		9999	6100	7640	0	0
2017/06/03 21:33:01	BASE	4.01	100	5.71	97	2.1	72	-2.4	0	0	988.6	NA	0.0000		9999	6100	7870	0	0
2017/06/03 21:34:01	BASE	4.06	97	5.71	97	2.0	73	-2.4	0	0	988.7	NA	0.0000		9999	6100	0	0	0
2017/06/03 21:35:01	BASE	3.47	107	5.71	97	2.0	73	-2.3	0	0	988.6	NA	0.0000		9999	6140	9190	0	0
2017/06/03 21:36:01	BASE	3.35	108	5.71	97	2.0	73	-2.3	0	0	988.6	NA	0.0000		9999	6100	9290	0	0
2017/06/03 21:37:01	BASE	3.42	84	5.71	97	2.0	73	-2.3	0	0	988.6	NA	0.0000		9999	6140	9320	0	0
2017/06/03 21:38:01	BASE	4.25	83	6.94	59	2.0	73	-2.4	0	0	988.5	NA	0.0000		9999	6040	0	0	0
2017/06/03 21:39:01	BASE	4.56	87	6.94	59	2.0	73	-2.4	0	0	988.6	NA	0.0000		9999	5940	0	0	0
2017/06/03 21:40:01	BASE	3.81	62	6.94	59	2.0	72	-2.4	0	0	988.7	NA	0.0000		9999	5910	0	0	0
2017/06/03 21:41:01	BASE	3.76	65	6.94	59	2.1	72	-2.5	0	0	988.6	NA	0.0000		9999	5910	0	0	0
2017/06/03 21:42:01	BASE	2.86	78	6.94	59	2.2	71	-2.5	0	0	988.7	NA	0.0000		9999	5840	0	0	0
2017/06/03 21:43:01	BASE	2.52	71	6.94	59	2.2	71	-2.6	0	0	988.6	NA	0.0000		9999	5740	0	0	0
2017/06/03 21:44:01	BASE	3.59	76	6.94	59	2.2	70	-2.6	0	0	988.6	NA	0.0000		9999	5710	0	0	0
2017/06/03 21:45:01	BASE	4.13	79	6.94	59	2.2	70	-2.7	0	0	988.5	NA	0.0000		9999	5680	0	0	0
2017/06/03 21:46:01	BASE	4.17	91	6.94	59	2.2	70	-2.8	0	0	988.5	NA	0.0000		9999	5710	0	0	0
2017/06/03 21:47:01	BASE	4.25	112	6.94	59	2.1	70	-2.8	0	0	988.5	NA	0.0000		9999	5640	0	0	0
2017/06/03 21:48:01	BASE	4.16	115	7.25	82	2.0	71	-2.7	0	0	988.6	NA	0.0000		9999	5610	0	0	0
2017/06/03 21:49:01	BASE	4.25	105	7.25	82	2.0	71	-2.7	0	0	988.5	NA	0.0000		9999	5540	0	0	0
2017/06/03 21:50:01	BASE	4.84	98	7.25	82	2.0	71	-2.6	0	0	988.4	NA	0.0000		9999	5320	0	0	0
2017/06/03 21:51:01	BASE	4.12	112	7.25	82	2.1	71	-2.6	0	0	988.5	NA	0.0000		9999	5280	0	0	0
2017/06/03 21:52:01	BASE	2.98	137	7.25	82	2.2	71	-2.6	0	0	988.5	NA	0.0000		9999	5350	0	0	0
2017/06/03 21:53:01	BASE	3.05	120	7.25	82	2.2	70	-2.6	0	0	988.5	NA	0.0000		9999	5480	0	0	0
2017/06/03 21:54:01	BASE	4.46	88	8.03	92	2.2	70	-2.7	0	0	988.4	NA	0.0000		9999	5480	0	0	0
2017/06/03 21:55:01	BASE	6.18	86	8.75	76	2.2	70	-2.7	0	0	988.3	NA	0.0000		9999	5580	0	0	0
2017/06/03 21:56:01	BASE	5.37	83	8.75	76	2.2	70	-2.7	0	0	988.4	NA	0.0000		9999	5710	0	0	0
2017/06/03 21:57:01	BASE	4.34	64	8.75	76	2.2	70	-2.7	0	0	988.5	NA	0.0000		9999	6140	8270	0	0
2017/06/03 21:58:01	BASE	4.23	63	8.75	76	2.2	70	-2.7	0	0	988.5	NA	0.0000		9999	8140	0	0	0
2017/06/03 21:59:01	BASE	4.49	79	8.75	76	2.3	70	-2.6	0	0	988.5	NA	0.0000		9999	8370	0	0	0
2017/06/03 22:00:01	BASE	3.77	107	8.75	76	2.4	70	-2.6	0	0	988.5	NA	0.0000		9999	8370	0	0	0
2017/06/03 22:01:01	BASE	2.90	120	8.75	76	2.4	70	-2.5	0	0	988.5	NA	0.0000		9999	8300	0	0	0
2017/06/03 22:02:01	BASE	2.46	104	8.75	76	2.4	70	-2.6	0	0	988.6	NA	0.0000		9999	8300	0	0	0
2017/06/03 22:03:01	BASE	3.40	69	8.85	70	2.4	70	-2.6	0	0	988.6	NA	0.0000		9999	8460	0	0	0
2017/06/03 22:04:01	BASE	3.57	26	8.85	70	2.4	70	-2.5	0	0	988.5	NA	0.0000		9999	8530	0	0	0
2017/06/03 22:05:01	BASE	2.87	61	8.85	70	2.4	69	-2.6	0	0	988.6	NA	0.0000		9999	8500	0	0	0
2017/06/03 22:06:01	BASE	3.22	94	8.85	70	2.4	69	-2.6	0	0	988.6	NA	0.0000		9999	7090	8660	0	0
2017/06/03 22:07:01	BASE	2.05	103	8.85	70	2.4	69	-2.6	0	0	988.6	NA	0.0000		9999	8790	0	0	0
2017/06/03 22:08:01	BASE	1.74	131	8.85	70	2.3	70	-2.7	0	0	988.6	NA	0.0000		9999	7020	7910	0	0
2017/06/03 22:09:01	BASE	2.50	135	8.85	70	2.2	70	-2.8	0	0	988.6	NA	0.0000		9999	7870	0	0	0
2017/06/03 22:10:01	BASE	3.91	129	8.85	70	2.0	70	-2.8	0	0	988.5	NA	0.0000		9999	7640	0	0	0
2017/06/03 22:11:01	BASE	4.15	144	8.85	70	2.0	71	-2.7	0	0	988.5	NA	0.0000		9999	7810	0	0	0
2017/06/03 22:12:01	BASE	3.85	159	8.85	70	1.9	72	-2.7	0	0	988.5	NA	0.0000		9999	7970	0	0	0
2017/06/03 22:13:01	BASE	4.94	159	6.74	158	1.8	73	-2.6	0	0	988.4	NA	0.0000		9999	7940	0	0	0
2017/06/03 22:14:01	BASE	5.96	157	7.15	163	1.7	73	-2.6	0	0	988.4	NA	0.0000		9999	7810	0	0	0
2017/06/03 22:15:01	BASE	5.43	157	7.15	163	1.6	74	-2.5	0	0	988.4	NA	0.0000		9999	7810	0	0	0
2017/06/03 22:16:01	BASE	4.35	160	7.15	163	1.5	75	-2.5	0	0	988.5	NA	0.0000		9999	7740	0	0	0
2017/06/03 22:17:01	BASE	2.83	159	7.15	163	1.5	75	-2.4	0	0	988.6	NA	0.0000		9999	7640	0	0	0
2017/06/03 22:18:01	BASE	1.94	147	7.15	163	1.4	76	-2.4	0	0	988.7	NA	0.0000		9999	7680	0	0	0
2017/06/03 22:19:01	BASE	1.50	150	7.15	163	1.4	76	-2.3	0	0	988.6	NA	0.0000		9999	7810	0	0	0
2017/06/03 22:20:01	BASE	0.70	202	7.15	163	1.4	76	-2.3	0	0	988.5	NA	0.0000		9999	7870	0	0	0
2017/06/03 22:21:01	BASE	1.16	234	7.15	163	1.5	76	-2.3	0	0	988.5	NA	0.0000		9999	7910	0	0	0
2017/06/03 22:22:01	BASE	3.27	141	7.15	163	1.5	76	-2.2	0	0	988.4	NA	0.0000		9999	7870	0	0	0
2017/06/03 22:23:01	BASE	3.64	122	7.15	163	1.7	75	-2.2	0	0	988.5	NA	0.0000		9999	7580	7940	0	0
2017/06/03 22:24:01	BASE	3.79	118	6.48	112	1.8	74	-2.3	0	0	988.4	NA	0.0000		9999	7510	0	0	0
2017/06/03 22:25:01	BASE	3.82	92	6.48	112	2.0	73	-2.3	0	0	988.4	NA	0.0000		9999	7280	0	0	0
2017/06/03 22:26:01	BASE	2.20	82	6.48	112	2.1	72	-2.4	0	0	988.4	NA	0.0000		9999	7050	0	0	0
2017/06/03 22:27:01	BASE	2.80	108	6.48	112	2.3	71	-2.5	0	0	988.4	NA	0.0000		9999	7120	0	0	0
2017/06/03 22:28:01	BASE	3.23	115	6.48	112	2.3	70	-2.6	0	0	988.5	NA	0.0000		9999	7020	0	0	0
2017/06/03 22:29:01	BASE	2.30	74	6.48	112	2.3	69	-2.7	0	0	988.5	NA	0.0000		9999	6990	0	0	0
2017/06/03 22:30:01	BASE	2.03	29	6.48	112	2.3	69	-2.8	0	0	988.5	NA	0.0000		9999	6730	0	0	0
2017/06/03 22:31:01	BASE	2.68	0	6.48	112	2.2	69	-2.8	0	0	988.5	NA	0.0000		9999	0	0	0	1640
2017/06/03 22:32:01	BASE	3.41	17	5.81	118	2.2	70	-2.8	0	0	988.5	NA	0.0000		9999	6890	0	0	0
2017/06/03 22:33:01	BASE	3.63	19	5.81	118	2.2	70	-2.8	0	0	988.4	NA	0.0000		9999	0	0	0	1670
2017/06/03 22:34:01	BASE	3.96	21	6.12	26	2.2	70	-2.7	0	0	988.4	NA	0.0000	UP	8000	0	0	0	1440
2017/06/03 22:35:01	BASE	3.51	44	6.12	26	2.1	70	-2.7	0	0	988.4	NA	0.0000	UP	8000	0	0	0	1480
2017/06/03 22:36:01	BASE	3.66	58	6.48	58	2.1	71	-2.7	0	0	988.3	NA	0.0000	UP	8000	0	0	0	1150
2017/06/03 22:37:01	BASE	5.04	60	8.23	41	2.0	71	-2.6	0	0	988.3	NA	0.0000	UP	9999	6690	0	0	0
2017/06/03 22:38:01	BASE	5.47	59	8.23	41	2.0	72	-2.5	0	0	988.3	NA	0.0000	UP	9999	6960	0	0	0
2017/06/03 22:39:01	BASE	5.06	61	8.23	41	2.0	72	-2.4	0	0	988.4	NA	0.0000	UP	9999	7970	0	0	0
2017/06/03 22:40:01	BASE	5.85	59	8.49	47	2.0	73	-2.3	0	0	988.3	NA	0.0000	UP	9999	8240	0	0	0
2017/06/03 22:41:01	BASE	7.00	55	8.49	47	2.1	73	-2.2	0	0	988.2	NA	0.0000	UP	9999	5940	0	0	0
2017/06/03 22:42:01	BASE	7.04	58	8.59	56	2.1	73	-2.2	0	0	988.3	NA	0.0000	UP	9999	5940	0	0	0
2017/06/03 22:43:01	BASE	6.58	76	8.59	56	2.2	73	-2.3	0	0	988.2	NA	0.0000	UP	9999	5940	0	0	0
2017/06/03 22:44:01	BASE	5.39	94	8.59	56	2.1	72	-2.3	0	0	988.3	NA	0.0000	UP	9999	5940	0	0	0
2017/06/03 22:45:01	BASE	4.72	92	8.59	56	2.1	72	-2.3	0	0	988.2	NA	0.0000	UP	9999	5940	0	0	0
2017/06/03 22:46:01	BASE	4.13	92	8.59	56	2.1	72	-2.4	0	0	988.3	NA	0.0000	UP	9999	5740	0	0	0
2017/06/03 22:47:01	BASE	3.13	85	8.59	56	2.1	72	-2.4	0	0	988.3	NA	0.0000		9999	5580	0	0	0
2017/06/03 22:48:01	BASE	3.63	77	8.59	56	2.1	72	-2.5	0	0	988.3	NA	0.0000		9999	5580	0	0	0
2017/06/03 22:49:01	BASE	4.54	84	8.59	56	2.1	72	-2.5	0	0	988.2	NA	0.0000		9999	5350	0	0	0
2017/06/03 22:50:01	BASE	4.59	85	8.59	56	2.1	72	-2.5	0	0	988.2	NA	0.0000		9999	5380	0	0	0
2017/06/03 22:51:01	BASE	5.22	95	8.59	56	2.1	72	-2.5	0	0	988.2	NA	0.0000		9999	5380	0	0	0
2017/06/03 22:52:01	BASE	4.74	93	8.75	34	2.1	72	-2.5	0	0	988.2	NA	0.0000		9999	5410	0	0	0
2017/06/03 22:53:01	BASE	3.49	85	8.75	34	2.0	72	-2.5	0	0	988.2	NA	0.0000		9999	5610	0	0	0
2017/06/03 22:54:01	BASE	3.85	86	8.75	34	2.0	72	-2.5	0	0	988.2	NA	0.0000		9999	5510	0	0	0
2017/06/03 22:55:01	BASE	4.52	89	8.75	34	2.0	72	-2.5	0	0	988.2	NA	0.0000		9999	5540	0	0	0
2017/06/03 22:56:01	BASE	4.94	95	8.75	34	2.0	72	-2.5	0	0	988.2	NA	0.0000		9999	5680	7350	0	0
2017/06/03 22:57:01	BASE	5.13	89	8.75	34	2.0	72	-2.5	0	0	988.3	NA	0.0000		9999	5810	0	0	0
2017/06/03 22:58:01	BASE	5.14	82	8.75	34	2.0	72	-2.5	0	0	988.2	NA	0.0000		9999	5640	0	0	0
2017/06/03 22:59:01	BASE	5.29	79	8.75	34	2.0	72	-2.5	0	0	988.2	NA	0.0000		9999	5770	0	0	0
2017/06/03 23:00:00	BASE	5.92	73	8.85	60	2.0	72	-2.5	0	0	988.2	NA	0.0000		9999	5580	0	0	0
2017/06/03 23:01:00	BASE	6.50	68	8.85	60	2.1	72	-2.5	0	0	988.2	NA	0.0000		9999	6040	0	0	0
2017/06/03 23:02:00	BASE	5.79	68	8.85	60	2.1	72	-2.5	0	0	988.2	NA	0.0000		9999	6530	0	0	0
2017/06/03 23:03:00	BASE	5.04	76	8.85	60	2.1	71	-2.6	0	0	988.2	NA	0.0000		9999	6430	0	0	0
2017/06/03 23:04:00	BASE	4.70	71	8.85	60	2.1	71	-2.6	0	0	988.3	NA	0.0000		9999	6590	7380	0	0
2017/06/03 23:05:00	BASE	5.37	59	8.85	60	2.1	71	-2.6	0	0	988.2	NA	0.0000		9999	7120	0	0	0
2017/06/03 23:06:00	BASE	6.33	52	8.85	60	2.1	71	-2.6	0	0	988.2	NA	0.0000		9999	5580	6760	7250	0
2017/06/03 23:07:00	BASE	6.13	48	8.85	60	2.1	71	-2.6	0	0	988.3	NA	0.0000		9999	5610	0	0	0
2017/06/03 23:08:00	BASE	6.67	44	8.90	36	2.1	71	-2.6	0	0	988.2	NA	0.0000		9999	5610	0	0	0
2017/06/03 23:09:00	BASE	6.67	44	8.90	36	2.2	71	-2.6	0	0	988.3	NA	0.0000		9999	5610	0	0	0
2017/06/03 23:10:00	BASE	5.63	47	8.90	36	2.2	70	-2.7	0	0	988.3	NA	0.0000		9999	5610	0	0	0
2017/06/03 23:11:00	BASE	6.16	43	9.05	44	2.2	70	-2.6	0	0	988.2	NA	0.0000		9999	5580	0	0	0
2017/06/03 23:12:00	BASE	6.86	46	9.67	41	2.2	70	-2.6	0	0	988.2	NA	0.0000		9999	5770	0	0	0
2017/06/03 23:13:00	BASE	6.27	54	9.67	41	2.2	71	-2.6	0	0	988.3	NA	0.0000		9999	5840	0	0	0
2017/06/03 23:14:00	BASE	6.23	68	9.67	41	2.2	71	-2.6	0	0	988.2	NA	0.0000		9999	5840	0	0	0
2017/06/03 23:15:00	BASE	6.11	99	9.67	41	2.1	71	-2.6	0	0	988.2	NA	0.0000		9999	5810	0	0	0
2017/06/03 23:16:00	BASE	4.78	111	9.67	41	2.1	71	-2.6	0	0	988.3	NA	0.0000		9999	5870	0	0	0
2017/06/03 23:17:00	BASE	4.59	91	9.67	41	2.0	71	-2.6	0	0	988.3	NA	0.0000		9999	6170	0	0	0
2017/06/03 23:18:00	BASE	6.22	85	9.67	41	2.0	72	-2.6	0	0	988.2	NA	0.0000		9999	6270	0	0	0
2017/06/03 23:19:00	BASE	6.56	91	9.67	41	1.9	72	-2.6	0	0	988.3	NA	0.0000		9999	6200	0	0	0
2017/06/03 23:20:00	BASE	5.24	75	9.67	41	1.9	72	-2.6	0	0	988.4	NA	0.0000		9999	6860	0	0	0
2017/06/03 23:21:00	BASE	5.53	66	9.67	41	2.0	72	-2.6	0	0	988.3	NA	0.0000		9999	7050	7740	0	0
2017/06/03 23:22:00	BASE	5.57	79	9.57	116	2.0	72	-2.6	0	0	988.4	NA	0.0000		9999	6660	7680	0	0
2017/06/03 23:23:00	BASE	5.72	75	9.57	116	2.0	72	-2.6	0	0	988.3	NA	0.0000		9999	6630	7280	0	0
2017/06/03 23:24:00	BASE	6.65	66	10.80	43	2.0	71	-2.6	0	0	988.3	NA	0.0000		9999	6590	7280	0	0
2017/06/03 23:25:00	BASE	6.31	69	10.80	43	2.1	71	-2.6	0	0	988.3	NA	0.0000		9999	7250	7970	0	0
2017/06/03 23:26:00	BASE	5.97	72	10.80	43	2.1	71	-2.6	0	0	988.3	NA	0.0000		9999	7840	0	0	0
2017/06/03 23:27:00	BASE	4.98	80	10.80	43	2.1	71	-2.6	0	0	988.3	NA	0.0000		9999	8010	0	0	0
2017/06/03 23:28:00	BASE	3.40	101	10.80	43	2.1	71	-2.6	0	0	988.4	NA	0.0000		9999	7810	0	0	0
2017/06/03 23:29:00	BASE	3.63	80	10.80	43	2.1	71	-2.6	0	0	988.3	NA	0.0000		9999	7380	0	0	0
2017/06/03 23:30:00	BASE	5.70	59	10.80	43	2.1	71	-2.6	0	0	988.3	NA	0.0000		9999	7050	0	0	0
2017/06/03 23:31:00	BASE	6.51	52	10.80	43	2.1	71	-2.6	0	0	988.3	NA	0.0000		9999	7150	0	0	0
2017/06/03 23:32:00	BASE	6.25	50	10.80	43	2.1	71	-2.6	0	0	988.2	NA	0.0000		9999	7150	0	0	0
2017/06/03 23:33:00	BASE	6.92	52	10.80	43	2.1	71	-2.7	0	0	988.2	NA	0.0000		9999	7020	0	0	0
2017/06/03 23:34:00	BASE	8.05	48	10.08	41	2.1	71	-2.6	0	0	988.2	NA	0.0000		9999	7250	0	0	0
2017/06/03 23:35:00	BASE	7.77	47	10.08	41	2.1	71	-2.6	0	0	988.2	NA	0.0000		9999	7780	0	0	0
2017/06/03 23:36:00	BASE	7.11	49	10.08	41	2.1	71	-2.6	0	0	988.2	NA	0.0000		9999	8100	0	0	0
2017/06/03 23:37:00	BASE	7.09	49	10.08	41	2.1	71	-2.6	0	0	988.3	NA	0.0000		9999	8830	0	0	0
2017/06/03 23:38:00	BASE	7.06	50	10.08	41	2.1	71	-2.6	0	0	988.3	NA	0.0000		9999	8760	10990	0	0
2017/06/03 23:39:00	BASE	7.69	53	10.13	49	2.1	71	-2.6	0	0	988.2	NA	0.0000		9999	8920	11090	0	0
2017/06/03 23:40:00	BASE	7.84	49	10.13	49	2.1	71	-2.6	0	0	988.2	NA	0.0000		9999	9060	11020	0	0
2017/06/03 23:41:00	BASE	8.24	46	10.65	49	2.1	71	-2.6	0	0	988.1	NA	0.0000		9999	10930	13060	0	0
2017/06/03 23:42:00	BASE	9.13	46	10.65	49	2.1	71	-2.6	0	0	988.2	NA	0.0000		9999	10890	13120	0	0
2017/06/03 23:43:01	BASE	9.73	47	10.75	46	2.1	71	-2.6	0	0	988.1	NA	0.0000		9999	10960	13260	0	0
2017/06/03 23:44:01	BASE	9.89	52	12.86	52	2.1	71	-2.6	0	0	988.1	NA	0.0000		9999	12990	0	0	0
2017/06/03 23:45:01	BASE	9.65	57	12.86	52	2.1	71	-2.5	0	0	988.1	NA	0.0000		9999	9190	0	0	0
2017/06/03 23:46:00	BASE	9.20	60	12.86	52	2.1	72	-2.5	0	0	988.2	NA	0.0000		9999	8860	0	0	0
2017/06/03 23:47:00	BASE	8.72	58	12.86	52	2.1	72	-2.5	0	0	988.1	NA	0.0000		9999	8630	0	0	0
2017/06/03 23:48:00	BASE	8.54	58	12.86	52	2.1	72	-2.5	0	0	988.1	NA	0.0000		9999	8430	0	0	0
2017/06/03 23:49:00	BASE	9.22	57	12.86	52	2.1	72	-2.5	0	0	988.0	NA	0.0000		9999	8170	0	0	0
2017/06/03 23:50:00	BASE	9.39	56	12.86	52	2.0	72	-2.5	0	0	988.1	NA	0.0000		9999	8170	0	0	0
2017/06/03 23:51:00	BASE	8.88	57	12.86	52	2.0	72	-2.5	0	0	988.1	NA	0.0000		9999	8100	0	0	0
2017/06/03 23:52:00	BASE	8.69	56	12.86	52	2.0	72	-2.5	0	0	988.1	NA	0.0000		9999	8040	0	0	0
2017/06/03 23:53:00	BASE	8.05	55	12.86	52	2.0	72	-2.5	0	0	988.0	NA	0.0000		9999	7870	0	0	0
2017/06/03 23:54:00	BASE	8.10	55	11.42	53	1.9	73	-2.5	0	0	988.0	NA	0.0000		9999	7740	0	0	0
2017/06/03 23:55:00	BASE	8.34	57	11.42	53	1.9	73	-2.5	0	0	988.0	NA	0.0000		9999	7710	0	0	0
2017/06/03 23:56:00	BASE	8.39	57	11.32	54	1.9	73	-2.4	0	0	988.0	NA	0.0000		9999	7680	0	0	0
2017/06/03 23:57:00	BASE	8.79	58	11.32	54	1.9	73	-2.5	0	0	988.0	NA	0.0000		9999	7510	0	0	0
2017/06/03 23:58:00	BASE	9.04	60	11.32	54	1.8	73	-2.5	0	0	988.0	NA	0.0000		9999	7550	0	0	0
2017/06/03 23:59:00	BASE	8.44	61	11.01	64	1.8	73	-2.5	0	0	988.0	NA	0.0000		9999	7550	0	0	0